[[{"header":{"parameterUnit":"m.s-1","parameterCategory":1,"la1":30.6,"la2":29.2853,"lo1":-89.7004,"lo2":-87.6739,"dy":0.0162,"dx":0.0183,"nx":112,"ny":82,"refTime":"2025-11-22T12:00:00:Z","depth":0,"parameterNumber":2,"parameterNumberName":"U-component_of_WINDS"},"data":[0.0,0.0,0.0,0.0,0.0,0.0,0.0,0.0,0.0,0.0,0.0,0.0,0.0,0.0,0.0,0.0,0.0,0.0,0.0,0.0,0.0,0.0,0.0,0.0,0.0,0.0,0.0,0.0,0.0,0.0,0.0,0.0,0.0,0.0,0.0,0.0,0.0,0.0,0.0,0.0,0.0,0.0,0.0,0.0,0.0,0.0,0.0,0.0,0.0,0.0,0.0,0.0,0.0,0.0,0.0,0.0,0.0,0.0,0.0,0.0,0.0,0.0,0.0,0.0,0.0,0.0,0.0,0.0,0.0,0.0,0.0,0.0,0.0,0.0,0.0,0.0,0.0,0.0,0.0,0.0,0.0,0.0,0.0,0.0,0.0,0.0,0.0,0.0,0.0,0.0,1.6332,1.7353,1.8317,1.887,1.8827,1.8242,1.7169,1.5444,0.0,0.0,0.0,0.0,0.0,0.0,0.0,0.0,0.0,0.0,0.0,0.0,0.0,0.0,0.0,0.0,0.0,0.0,0.0,0.0,0.0,0.0,0.0,0.0,0.0,0.0,0.0,0.0,0.0,0.0,0.0,0.0,0.0,0.0,0.0,0.0,0.0,0.0,0.0,0.0,0.0,0.0,0.0,0.0,0.0,0.0,0.0,0.0,0.0,0.0,0.0,0.0,0.0,0.0,0.0,0.0,0.0,0.0,0.0,0.0,0.0,0.0,0.0,0.0,0.0,0.0,0.0,0.0,0.0,0.0,0.0,0.0,0.0,0.0,0.0,0.0,0.0,0.0,0.0,0.0,0.0,0.0,0.0,0.0,0.0,0.0,0.0,0.0,0.0,0.0,0.0,0.0,0.0,0.0,0.0,0.0,0.0,0.0,0.0,0.0,0.0,0.0,0.0,0.0,1.5768,1.8371,1.8739,1.8827,1.887,1.8283,1.7345,1.6046,0.0,0.0,0.0,0.0,0.0,0.0,0.0,0.0,0.0,0.0,0.0,0.0,0.0,0.0,0.0,0.0,0.0,0.0,0.0,0.0,0.0,0.0,0.0,0.0,0.0,0.0,0.0,0.0,0.0,0.0,0.0,0.0,0.0,0.0,0.0,0.0,0.0,0.0,0.0,0.0,0.0,0.0,0.0,0.0,0.0,0.0,0.0,0.0,0.0,0.0,0.0,0.0,0.0,0.0,0.0,0.0,0.0,0.0,0.0,0.0,0.0,0.0,0.0,0.0,0.0,0.0,0.0,0.0,0.0,0.0,0.0,0.0,0.0,0.0,0.0,0.0,0.0,0.0,0.0,0.0,0.0,0.0,0.0,0.0,0.0,0.0,0.0,0.0,0.0,0.0,0.0,0.0,0.0,0.0,0.0,0.0,0.0,0.0,0.0,0.0,0.0,0.0,0.0,1.6015,1.7523,1.9213,1.9331,1.9288,1.9331,1.8453,1.7386,1.6191,1.4623,0.0,0.0,0.0,0.0,0.0,0.0,0.0,0.0,0.0,0.0,0.0,0.0,0.0,0.0,0.0,0.0,0.0,0.0,0.0,0.0,0.0,0.0,0.0,0.0,0.0,0.0,0.0,0.0,0.0,0.0,0.0,0.0,0.0,0.0,0.0,0.0,0.0,0.0,0.0,0.0,0.0,0.0,0.0,0.0,0.0,0.0,0.0,0.0,0.0,0.0,0.0,0.0,0.0,0.0,0.0,0.0,0.0,0.0,0.0,0.0,0.0,0.0,0.0,0.0,0.0,0.0,0.0,0.0,0.0,0.0,0.0,0.0,0.0,0.0,0.0,0.0,0.0,0.0,0.0,0.0,0.0,0.0,0.0,0.0,0.0,0.0,0.0,0.0,0.0,0.0,0.0,0.0,0.0,0.0,0.0,0.0,0.0,0.0,0.0,0.0,0.0,0.0,1.8199,1.9316,1.976,1.9739,1.97,1.97,1.833,1.7082,1.6104,1.3925,0.0,0.0,0.0,0.0,0.0,0.0,0.0,0.0,0.0,0.0,0.0,0.0,0.0,0.0,0.0,0.0,0.0,0.0,0.0,0.0,0.0,0.0,0.0,0.0,0.0,0.0,0.0,0.0,0.0,0.0,0.0,0.0,0.0,0.0,0.0,0.0,0.0,0.0,0.0,0.0,0.0,0.0,0.0,0.0,0.0,0.0,0.0,0.0,0.0,0.0,0.0,0.0,0.0,0.0,0.0,0.0,0.0,0.0,0.0,0.0,0.0,0.0,0.0,0.0,0.0,0.0,0.0,0.0,0.0,0.0,0.0,0.0,0.0,0.0,0.0,0.0,0.0,0.0,0.0,0.0,0.0,0.0,0.0,0.0,0.0,0.0,0.0,0.0,0.0,0.0,0.0,0.0,0.0,0.0,0.0,0.0,0.0,0.0,0.0,0.0,0.0,0.0,1.8054,1.9891,1.9823,1.9739,1.97,1.97,1.757,1.6145,1.5932,1.2761,0.0,0.0,0.0,0.0,0.0,0.0,0.0,0.0,0.0,0.0,0.0,0.0,0.0,0.0,0.0,0.0,0.0,0.0,0.0,0.0,0.0,0.0,0.0,0.0,0.0,0.0,0.0,0.0,0.0,0.0,0.0,0.0,0.0,0.0,0.0,0.0,0.0,0.0,0.0,0.0,0.0,0.0,0.0,0.0,0.0,0.0,0.0,0.0,0.0,0.0,0.0,0.0,0.0,0.0,0.0,0.0,0.0,0.0,0.0,0.0,0.0,0.0,0.0,0.0,0.0,0.0,0.0,0.0,0.0,0.0,0.0,0.0,0.0,0.0,0.0,0.0,0.0,0.0,0.0,0.0,0.0,0.0,0.0,0.0,0.0,0.0,0.0,0.0,0.0,0.0,0.0,0.0,0.0,0.0,0.0,0.0,0.0,0.0,0.0,0.0,0.0,0.0,1.8172,1.9433,1.976,1.9739,1.9537,1.9165,1.795,1.6729,1.5536,0.0,0.0,0.0,0.0,0.0,0.0,0.0,0.0,0.0,0.0,0.0,0.0,0.0,0.0,0.0,0.0,0.0,0.0,0.0,0.0,0.0,0.0,0.0,0.0,0.0,0.0,0.0,0.0,0.0,0.0,0.0,0.0,0.0,0.0,0.0,0.0,0.0,0.0,0.0,0.0,0.0,0.0,0.0,0.0,0.0,0.0,0.0,0.0,0.0,0.0,0.0,0.0,0.0,0.0,0.0,0.0,0.0,0.0,0.0,0.0,0.0,0.0,0.0,0.0,0.0,0.0,0.0,0.0,0.0,0.0,0.0,0.0,0.0,0.0,0.0,0.0,0.0,0.0,0.0,0.0,0.0,0.0,0.0,0.0,0.0,0.0,0.0,0.0,0.0,0.0,0.0,0.0,0.0,0.0,0.0,0.0,0.0,0.0,0.0,0.0,0.0,0.0,1.6945,1.8378,1.9431,2.0019,1.9848,1.9524,1.9125,1.7834,1.6517,1.5246,0.0,0.0,0.0,0.0,0.0,0.0,0.0,0.0,0.0,0.0,0.0,0.0,0.0,0.0,0.0,0.0,0.0,0.0,0.0,0.0,0.0,0.0,0.0,0.0,0.0,0.0,0.0,0.0,0.0,0.0,0.0,0.0,0.0,0.0,0.0,0.0,0.0,0.0,0.0,0.0,0.0,0.0,0.0,0.0,0.0,0.0,0.0,0.0,0.0,0.0,0.0,0.0,0.0,0.0,0.0,0.0,0.0,0.0,0.0,0.0,0.0,0.0,0.0,0.0,0.0,0.0,0.0,0.0,0.0,0.0,0.0,0.0,0.0,0.0,0.0,0.0,0.0,0.0,0.0,0.0,0.0,0.0,0.0,0.0,0.0,0.0,0.0,0.0,0.0,0.0,0.0,0.0,0.0,0.0,0.0,0.0,0.0,0.0,0.0,0.0,0.0,0.0,1.6879,1.8679,2.0033,2.0635,2.0107,1.97,1.9686,1.6951,1.5178,0.0,0.0,0.0,0.0,0.0,0.0,0.0,0.0,0.0,0.0,0.0,0.0,0.0,0.0,0.0,0.0,0.0,0.0,0.0,0.0,0.0,0.0,0.0,0.0,0.0,0.0,0.0,0.0,0.0,0.0,0.0,0.0,0.0,0.0,0.0,0.0,0.0,0.0,0.0,0.0,0.0,0.0,0.0,0.0,0.0,0.0,0.0,0.0,0.0,0.0,0.0,0.0,0.0,0.0,0.0,0.0,0.0,0.0,0.0,0.0,0.0,0.0,0.0,0.0,0.0,0.0,0.0,0.0,0.0,0.0,0.0,0.0,0.0,0.0,0.0,0.0,0.0,0.0,0.0,0.0,0.0,0.0,0.0,0.0,0.0,0.0,0.0,0.0,0.0,0.0,0.0,0.0,0.0,0.0,0.0,0.0,0.0,0.0,0.0,0.0,0.0,0.0,0.0,1.7388,1.8903,1.9948,2.0496,2.0039,1.9524,1.9097,1.7481,1.5915,1.4623,0.0,0.0,0.0,0.0,0.0,0.0,0.0,0.0,0.0,0.0,0.0,0.0,0.0,0.0,0.0,0.0,0.0,0.0,0.0,0.0,0.0,0.0,0.0,0.0,0.0,0.0,0.0,0.0,0.0,0.0,0.0,0.0,0.0,0.0,0.0,0.0,0.0,0.0,0.0,0.0,0.0,0.0,0.0,0.0,0.0,0.0,0.0,0.0,0.0,0.0,0.0,0.0,0.0,0.0,0.0,0.0,0.0,0.0,0.0,0.0,0.0,0.0,0.0,0.0,0.0,0.0,0.0,0.0,0.0,0.0,0.0,0.0,0.0,0.0,0.0,0.0,0.0,0.0,0.0,0.0,0.0,0.0,0.0,0.0,0.0,0.0,0.0,0.0,0.0,0.0,0.0,0.0,0.0,0.0,0.0,0.0,0.0,0.0,0.0,0.0,0.0,0.0,1.7608,1.8997,1.9999,2.0789,2.0152,1.9551,1.9193,1.7517,1.5811,1.4232,0.0,0.0,0.0,0.0,0.0,0.0,0.0,0.0,0.0,0.0,0.0,0.0,0.0,0.0,0.0,0.0,0.0,0.0,0.0,0.0,0.0,0.0,0.0,0.0,0.0,0.0,0.0,0.0,0.0,0.0,0.0,0.0,0.0,0.0,0.0,0.0,0.0,0.0,0.0,0.0,0.0,0.0,0.0,0.0,0.0,0.0,0.0,0.0,0.0,0.0,0.0,0.0,0.0,0.0,0.0,0.0,0.0,0.0,0.0,0.0,0.0,0.0,0.0,0.0,0.0,0.0,0.0,0.0,0.0,0.0,0.0,0.0,0.0,0.0,0.0,0.0,0.0,0.0,0.0,0.0,0.0,0.0,0.0,0.0,0.0,0.0,0.0,0.0,0.0,0.0,0.0,0.0,0.0,0.0,0.0,0.0,0.0,0.0,0.0,0.0,0.0,0.0,1.759,1.8975,2.0148,2.1277,2.0386,1.971,1.9655,1.727,1.5262,1.3999,0.0,0.0,0.0,0.0,0.0,0.0,0.0,0.0,0.0,0.0,0.0,0.0,0.0,0.0,0.0,0.0,0.0,0.0,0.0,0.0,0.0,0.0,0.0,0.0,0.0,0.0,0.0,0.0,0.0,0.0,0.0,0.0,0.0,0.0,0.0,0.0,0.0,0.0,0.0,0.0,0.0,0.0,0.0,0.0,0.0,0.0,0.0,0.0,0.0,0.0,0.0,0.0,0.0,0.0,0.0,0.0,0.0,0.0,0.0,0.0,1.1469,1.0702,0.0,0.0,0.0,0.0,0.0,0.0,0.0,0.0,0.0,0.0,0.0,0.0,0.0,0.0,0.0,0.0,0.0,0.0,0.0,0.0,0.0,0.0,0.0,0.0,0.0,0.0,0.0,0.0,0.0,0.0,0.0,0.0,0.0,0.0,0.0,0.0,0.0,0.0,0.0,0.0,1.7595,1.8997,2.0148,2.1277,2.0475,1.9688,1.9269,1.76,1.5858,1.417,1.2225,0.0,0.0,0.0,0.0,0.0,0.0,0.0,0.0,0.0,0.0,0.0,0.0,0.0,0.0,0.0,0.0,0.0,0.0,0.0,0.0,0.0,0.0,0.0,0.0,0.0,0.0,0.0,0.0,0.0,0.0,0.0,0.0,0.0,0.0,0.0,0.0,0.0,0.0,0.0,0.0,0.0,0.0,0.0,0.0,0.0,0.0,0.0,0.0,0.0,0.0,0.0,0.0,0.0,0.0,0.0,0.0,0.0,0.0,0.0,1.3192,1.2379,0.0,0.0,0.0,0.0,0.0,0.0,0.0,0.0,0.0,0.0,0.0,0.0,0.0,0.0,0.0,0.0,0.0,0.0,0.0,0.0,0.0,0.0,0.0,0.0,0.0,0.0,0.0,0.0,0.0,0.0,0.0,0.0,0.0,0.0,0.0,0.0,0.0,0.0,0.0,0.0,1.7689,1.9228,2.041,2.1304,2.0667,1.996,1.9431,1.7857,1.626,1.4769,1.2818,0.0,0.0,0.0,0.0,0.0,0.0,0.0,0.0,0.0,0.0,0.0,0.0,0.0,0.0,0.0,0.0,0.0,0.0,0.0,0.0,0.0,0.0,0.0,0.0,0.0,0.0,0.0,0.0,0.0,0.0,0.0,0.0,0.0,0.0,0.0,0.0,0.0,0.0,0.0,0.0,0.0,0.0,0.0,0.0,0.0,0.0,0.0,0.0,0.0,0.0,0.0,0.0,0.0,1.5621,1.6057,1.6563,1.6563,1.677,1.7032,1.5498,1.4744,1.456,1.3269,0.0,0.0,0.0,0.0,0.0,0.0,0.0,0.0,0.0,0.0,0.0,0.0,0.0,0.0,0.0,0.0,0.0,0.0,0.0,0.0,0.0,0.0,1.5461,1.701,1.7277,1.6621,1.4647,0.0,0.0,0.0,0.0,0.0,0.0,0.0,0.0,0.0,0.0,0.0,1.7706,1.9306,2.0509,2.1137,2.0689,2.0134,1.9596,1.8026,1.6578,1.5438,1.3536,1.2204,0.0,0.0,0.0,0.0,0.0,0.0,0.0,0.0,0.0,0.0,0.0,0.0,0.0,0.0,0.0,0.0,0.0,0.0,0.0,0.0,0.0,0.0,0.0,0.0,0.0,0.0,0.0,0.0,0.0,0.0,0.0,0.0,0.9213,0.9638,0.0,0.0,0.0,0.0,0.0,0.0,0.0,0.0,0.0,0.0,0.0,0.0,0.0,1.3637,1.516,1.5924,1.6723,1.7569,1.8297,1.8969,1.9519,1.9519,1.9584,1.9627,1.9376,0.0,1.5571,1.5081,0.0,0.0,0.0,0.0,0.0,0.0,0.0,0.0,0.0,0.0,0.0,0.0,0.0,0.0,0.0,0.0,0.0,0.0,0.0,0.0,0.0,0.0,1.8461,1.7808,1.8522,1.9032,1.7758,1.6193,1.4604,1.3146,1.2241,1.1518,0.0,0.0,0.0,0.0,0.0,0.0,1.7458,1.8711,1.9702,2.0282,1.9978,1.951,1.8957,1.7957,1.6867,1.5726,1.4509,1.3595,1.3051,1.1648,0.0,0.0,0.0,0.0,0.0,0.0,0.0,0.0,0.0,0.0,0.0,0.0,0.0,0.0,0.0,0.0,0.0,0.0,0.0,0.0,0.0,0.0,0.0,0.0,0.0,0.0,0.0,0.0,0.0,0.9003,0.9842,1.0374,0.991,0.9419,0.0,0.0,0.0,0.0,0.0,0.0,0.0,0.0,0.0,1.473,1.5012,1.5736,1.6978,1.8142,1.8776,1.8848,1.9775,2.0357,2.0608,2.044,2.0377,2.0377,2.0511,1.967,1.8155,1.7186,1.6059,1.4884,0.0,0.0,0.0,0.0,1.4565,1.4488,1.5521,1.5554,1.5068,1.4692,0.0,0.0,0.0,0.0,0.0,0.0,0.0,1.5813,1.6598,1.7953,1.9182,1.945,1.9814,2.0007,1.9744,1.8484,1.6864,1.5006,1.4809,1.4408,1.2828,1.2774,0.0,0.0,0.0,1.6731,1.799,1.912,1.9913,2.0182,2.0054,1.9687,1.9119,1.8524,1.7701,1.6556,1.5591,1.4803,1.4289,1.3095,1.2289,0.0,0.0,0.0,0.0,0.0,0.0,0.0,0.0,0.0,0.0,0.0,0.0,0.0,0.0,0.0,0.0,0.0,0.0,0.0,0.0,0.0,0.0,0.0,0.0,0.0,0.0,0.0,0.0,0.9873,1.0463,1.0832,1.0606,1.0127,0.0,0.0,0.0,0.0,0.0,0.0,1.2192,1.2924,1.4218,1.614,1.6502,1.7189,1.8261,1.9332,1.9784,1.9659,2.023,2.0584,2.0786,2.0463,2.0408,2.0591,2.0728,2.0594,2.0205,1.9017,1.8043,1.7213,1.6716,1.6531,1.6623,1.7175,1.717,1.7027,1.8122,1.8177,1.7614,1.694,1.6563,1.6073,1.4562,0.0,0.0,0.0,0.0,1.6784,1.8254,1.9042,1.9709,2.0619,2.0746,2.0671,2.075,2.0167,1.9069,1.711,1.7171,1.696,1.507,1.4835,0.0,1.5428,1.6518,1.7675,1.8765,1.9598,2.0102,2.0102,1.9976,1.9712,1.9258,1.8859,1.8277,1.7382,1.6637,1.596,1.5377,1.4582,1.3776,1.2997,0.0,0.0,0.0,0.0,0.0,0.0,0.0,0.0,0.0,0.0,0.0,0.0,0.0,0.0,0.0,0.0,0.0,0.0,0.0,0.0,0.0,0.0,0.0,0.0,0.0,0.0,0.0,0.0,0.0,1.0597,1.1429,0.0,0.0,0.0,0.0,1.118,1.2188,1.3028,1.3564,1.4173,1.5282,1.6991,1.6875,1.7442,1.8751,1.8708,1.9139,2.0068,1.9393,1.9512,2.0232,1.9689,1.9858,2.0521,2.0521,2.0655,2.0818,2.0227,1.9704,1.9222,1.8742,1.8545,1.86,1.9091,1.9255,1.9244,1.9321,1.9026,1.8717,1.9102,1.8632,1.782,1.7484,1.6975,0.0,0.0,1.789,1.878,1.8929,1.9884,2.0781,2.0635,2.1147,2.1424,2.0603,2.0495,2.0274,1.9479,1.8428,1.7665,1.7614,0.0,1.6952,1.7549,1.8177,1.8893,1.9625,1.9791,1.9815,1.9815,1.9368,1.9054,1.903,1.8533,1.8156,1.7967,1.7566,1.7015,1.636,1.586,1.5507,1.5331,1.3026,0.0,0.0,0.0,0.0,0.0,0.0,0.0,0.0,0.0,0.0,0.0,0.0,0.0,0.0,0.0,0.0,0.0,0.0,0.0,0.0,0.0,0.0,0.0,0.0,0.0,0.0,0.0,0.0,1.1658,1.2202,0.0,1.1153,1.1724,1.2239,1.2434,1.3404,1.4251,1.4825,1.5051,1.5802,1.7098,1.6887,1.7087,1.785,1.8156,1.8378,1.8498,1.8609,1.882,1.9102,1.874,1.8889,1.949,1.9615,2.0066,2.0702,2.0843,2.0476,1.9834,1.966,1.9595,1.9616,1.9791,1.9856,1.9856,1.9856,1.9747,1.9627,1.9802,1.9627,1.9353,1.9395,1.9017,1.8674,1.9224,1.9527,1.9731,2.003,2.0438,2.0717,2.0523,2.0449,2.0421,2.0408,2.0266,2.0193,2.0373,1.9662,1.8951,1.8568,1.8478,1.8498,1.8689,1.8998,1.9336,1.9634,2.0049,2.0161,1.9718,1.9597,1.9519,1.9519,1.9011,1.8358,1.7526,1.7434,1.6955,1.5991,1.5788,1.5531,1.5181,1.3941,1.2708,0.0,0.0,0.0,0.0,0.0,0.0,0.0,0.0,0.0,0.0,0.0,0.0,0.0,0.0,0.0,0.0,0.0,0.0,0.0,0.0,0.0,0.0,0.0,0.0,0.0,1.1479,1.2266,1.2451,1.3089,1.3171,1.2296,1.2988,1.3497,1.3608,1.4466,1.512,1.5388,1.5614,1.6106,1.6941,1.6885,1.6983,1.7347,1.7723,1.7743,1.742,1.7769,1.7885,1.7844,1.7451,1.7673,1.8283,1.8308,1.8848,1.9745,2.0128,2.0067,1.9801,2.0367,2.0598,2.0598,2.0598,2.0598,2.0576,2.0412,2.0249,2.0118,2.0118,2.0118,2.0107,2.0281,2.0039,1.9873,2.03,2.0316,2.0275,2.0515,2.0665,2.0726,2.054,2.0308,2.016,2.0378,2.0216,2.0191,2.0655,2.0401,1.9973,1.9477,1.9516,1.9604,1.9658,1.9657,1.975,2.0053,2.0175,2.0032,1.9646,1.9487,1.9407,1.9461,1.8955,1.8319,1.7514,1.7434,1.6872,1.5684,1.5715,1.5403,1.4719,1.4173,1.3233,1.1845,0.0,0.0,0.0,0.0,0.0,0.0,0.0,0.0,0.0,0.0,0.0,0.0,0.0,0.0,0.0,0.0,0.0,0.0,0.0,0.0,0.0,0.0,0.0,1.0802,1.1996,1.2823,1.2839,1.4084,1.4587,1.3753,1.4637,1.507,1.4684,1.5324,1.5608,1.5253,1.5848,1.6285,1.6499,1.6847,1.7147,1.7359,1.7359,1.7234,1.7073,1.6874,1.672,1.6545,1.5995,1.6226,1.709,1.6766,1.7151,1.7988,1.8134,1.8486,1.9137,2.0846,2.1538,2.1538,2.1538,2.1538,2.1472,2.1036,2.0544,2.0129,2.0129,2.0118,2.0162,2.0162,2.0151,2.0129,2.0129,2.0259,2.0378,2.0378,2.0603,2.0816,2.0711,2.0752,2.0762,2.0442,2.0388,2.0356,2.041,2.054,2.0608,2.0423,2.0227,2.0216,2.0542,2.0185,0.0,2.0943,2.0092,1.945,1.9578,1.9022,1.8699,1.8819,1.8332,1.7999,1.7976,1.7589,1.68,1.556,1.5681,1.527,1.4173,1.373,1.3338,1.292,0.0,0.0,0.0,0.0,0.0,0.0,0.0,0.0,0.0,0.0,0.0,0.0,0.0,0.0,0.0,0.0,0.0,0.0,0.0,0.0,0.0,1.074,1.1619,1.1668,1.2861,1.3817,1.4072,1.4928,1.5391,1.5155,1.5602,1.5888,1.5785,1.619,1.6364,1.6269,1.6246,1.6246,1.6285,1.6165,1.6124,1.6163,1.6163,1.6221,1.6294,1.6239,1.619,1.6154,1.6002,1.6259,1.6879,1.6776,1.7143,1.7788,1.7938,1.8025,1.8172,1.9448,2.0189,2.0511,2.0511,2.0511,2.0489,2.0358,2.0478,2.0664,2.0664,2.0904,2.1188,2.1188,2.0948,2.0664,2.0664,2.0446,2.0183,2.0183,2.0059,1.9941,1.9909,1.9685,1.9529,1.978,1.9731,1.9788,2.0107,2.0216,2.0334,2.0585,2.0236,2.0051,2.0266,1.9915,1.9585,1.9518,1.9668,1.9715,1.9616,1.9581,1.9569,1.9597,1.874,1.7926,1.7192,1.681,1.6232,1.5403,1.5592,1.5594,1.5329,1.4502,1.3876,0.0,0.0,0.0,0.0,0.0,0.0,0.0,0.0,0.0,0.0,0.0,0.0,0.0,0.0,0.0,0.0,0.0,0.0,0.0,0.0,0.0,0.0,1.1956,1.2774,1.3044,1.3781,1.4534,1.5184,1.565,1.596,1.6103,1.6309,1.6365,1.6222,1.6397,1.6444,1.6301,1.6238,1.6206,1.6206,1.615,1.6118,1.6118,1.6118,1.6126,1.6107,1.6212,1.6204,1.6099,1.6099,1.6293,1.6671,1.6513,1.6698,1.7103,1.7241,1.7424,1.7649,0.0,0.0,0.0,0.0,1.99,2.0118,2.0118,2.0292,2.0555,2.0555,2.0751,2.0981,2.0981,2.0784,2.0555,2.0555,2.0325,2.0118,2.0118,1.9953,1.9798,1.9798,1.9601,1.948,1.9743,1.9746,1.978,2.0063,2.0118,0.0,2.041,2.0022,1.9674,1.9719,1.928,1.8922,1.8828,1.8908,1.8971,1.8903,1.8925,1.9086,1.9321,1.8403,0.0,0.0,0.0,1.6056,1.5278,1.5224,0.0,0.0,0.0,0.0,0.0,0.0,0.0,0.0,1.4994,1.5036,0.0,0.0,0.0,0.0,0.0,0.0,0.0,0.0,0.0,0.0,0.0,0.0,0.0,0.0,0.0,0.0,1.3267,1.395,1.4621,1.4756,1.5128,1.6095,1.6238,1.6389,1.6665,1.6689,1.6562,1.6285,1.6269,1.6126,1.5817,1.6095,0.0,0.0,0.0,1.6689,1.6689,1.6689,1.6531,1.6269,1.6547,1.6531,1.6269,1.6269,1.6349,1.65,1.6217,1.6179,1.63,1.6428,1.6813,1.7358,1.7989,1.8256,1.8353,1.9073,1.9626,2.0009,2.0074,0.0,0.0,2.0118,2.0118,2.0118,2.0118,2.0118,2.0118,2.0118,2.0118,2.0118,2.0118,2.0118,2.0118,2.0118,2.0118,2.0118,2.0118,2.0118,2.0118,2.0118,2.0118,2.0096,2.0042,1.9671,1.9317,1.9006,1.8519,1.8285,1.8526,1.8036,1.775,1.7933,1.7834,0.0,1.8588,1.7765,1.7469,1.8087,1.7125,1.6183,1.5383,1.5001,1.5168,1.5898,1.6514,1.7279,1.8276,1.8276,1.853,1.8965,1.7476,1.7393,0.0,0.0,0.0,0.0,0.0,0.0,0.0,0.0,0.0,0.0,0.0,0.0,0.0,0.0,0.0,1.2933,1.3807,1.4645,1.538,1.5721,1.5975,1.6182,1.646,1.6618,1.6681,1.6689,1.6665,1.6594,1.6594,1.6562,1.6491,1.6554,1.6594,1.6594,1.6657,1.6689,1.6689,1.6689,1.6657,1.6594,1.6665,0.0,1.6594,1.6594,1.6635,1.6668,1.6604,1.6453,1.6221,1.6426,1.6558,1.6791,1.8155,1.8682,1.8755,1.9332,1.9479,1.9518,1.9944,2.0118,2.0118,2.0118,2.0118,2.0118,2.0118,2.0118,0.0,2.0118,2.0118,2.0118,2.0118,2.0118,2.0118,2.0118,2.0118,2.0118,2.0118,2.0118,2.0118,2.0118,2.0118,1.9987,1.9595,1.9442,1.9255,1.8824,1.8353,1.7961,1.7751,1.7618,1.7679,1.8107,1.8123,1.8293,1.8792,1.8322,1.808,1.8334,1.7375,1.6646,1.6198,1.6546,1.6892,1.7161,1.7803,1.8298,1.867,1.867,1.8797,1.8987,1.867,1.8867,0.0,0.0,0.0,0.0,0.0,0.0,0.0,0.0,0.0,0.0,0.0,1.1316,1.1551,0.0,1.3339,1.4021,1.4577,1.5157,1.584,1.6095,1.6269,1.6444,1.6586,1.6689,1.6689,1.6689,1.6689,1.6689,1.6689,1.6689,1.6689,1.6689,1.6689,1.6689,1.6689,1.6689,1.6689,1.6689,1.6689,1.6689,1.6689,1.6689,1.6689,1.6689,1.6689,1.6689,1.6689,1.6594,1.6468,1.6557,1.6685,1.687,1.7635,1.8189,1.8567,1.8844,1.9178,1.9589,2.0194,2.0409,2.0443,2.0759,2.0697,2.05,2.05,2.0303,2.0118,2.0118,2.0118,2.0118,2.0118,2.0118,2.0118,2.0118,2.0118,2.0118,2.0118,2.0118,2.0118,2.0118,2.0118,2.0042,1.9791,1.9747,1.9496,1.8807,1.849,1.8203,1.7807,1.7742,1.7742,1.7742,1.7742,1.7939,1.8404,1.8218,1.8034,1.7849,1.7131,1.6749,1.6893,1.7299,1.7659,1.8034,1.849,1.895,1.9459,1.9471,1.9753,2.0201,2.0478,2.0454,0.0,0.0,0.0,0.0,0.0,0.0,0.0,0.8912,0.9491,1.0236,1.1331,1.222,1.2385,1.324,1.418,1.5046,1.53,1.5578,1.6126,1.6261,1.6412,1.6657,1.6689,1.6689,1.6689,1.6689,1.6689,1.6689,1.6689,1.6689,1.6689,1.6689,1.6689,1.6689,1.6689,1.6689,1.6689,1.6689,1.6689,1.6689,1.6689,1.6689,1.6689,1.6689,1.6689,1.6689,1.6689,1.6689,1.6689,1.6689,1.6812,1.7017,1.7017,1.7488,1.8123,1.8303,1.885,1.9584,2.0267,2.0598,2.0776,2.1255,2.125,2.1036,2.1036,2.0729,2.0369,2.0282,2.0249,2.0227,2.014,2.0118,2.0118,2.0118,2.0118,2.0118,2.0118,2.0118,2.0118,2.0118,2.0118,2.0118,2.0118,2.0118,1.9813,1.896,1.8829,1.8665,1.8196,1.8141,1.7988,1.7623,1.7503,1.7573,1.7977,1.8086,1.7933,1.7481,1.7038,1.6978,1.7357,1.7662,1.8036,1.8514,1.8908,1.9437,2.0147,2.0229,2.06,2.1314,2.1637,2.1476,0.5952,0.5918,0.6031,0.6468,0.6897,0.7664,0.0,0.9806,1.0153,1.1141,1.2112,1.2873,1.3051,1.4153,1.5046,1.5165,1.5697,1.6118,1.6198,1.6476,1.665,1.6689,1.6689,1.6689,1.6689,1.6689,1.6689,1.6689,1.6689,1.6689,1.6689,1.6689,1.6689,1.6689,1.6689,1.6689,1.6689,1.6689,1.6689,1.6689,1.6689,1.6689,1.6689,1.6689,1.6689,1.6689,1.6689,1.6689,1.6689,1.6689,1.673,1.673,1.673,1.705,1.7588,1.8297,1.861,1.8847,1.9548,2.0196,2.0705,2.0776,2.1142,2.1505,2.1505,2.1472,2.1341,2.0938,2.0818,2.0719,2.0216,2.0118,2.0118,2.0118,2.0118,2.0118,2.0118,2.0118,2.0118,2.0118,2.0118,2.0118,2.0118,2.0118,1.9933,1.9387,1.9311,1.9157,1.8676,1.8611,1.8589,1.8534,1.8163,1.7944,1.7999,1.8381,1.8414,1.7955,1.7868,1.7671,1.7317,1.7853,1.8183,1.8238,1.925,1.9976,2.0381,2.0381,2.0568,2.0936,2.0535,2.0944,0.6801,0.6779,0.6701,0.6962,0.746,0.8158,0.9241,0.9772,1.0294,1.1166,1.1968,1.2587,1.27,1.3479,1.4198,1.4574,1.4862,1.5106,1.5297,1.5601,1.5815,1.5815,1.5999,1.6277,1.665,1.6689,1.6689,1.6689,1.6689,1.6689,1.6689,1.6689,1.6689,1.6689,1.6689,1.6689,1.6689,1.6689,1.6689,1.6689,1.6689,1.6689,1.6689,1.6689,1.6689,1.6689,1.6689,1.6689,1.6689,1.6689,1.6689,1.6689,1.6689,1.6935,1.7286,1.7883,1.831,1.8768,1.9545,2.0075,2.0462,2.0873,2.0958,2.0897,2.0897,2.071,2.045,2.0263,2.0201,2.0159,1.9938,1.9886,1.9893,1.9972,1.9975,2.0002,2.0074,2.0118,2.0118,2.0118,2.0118,2.0118,2.0118,2.0118,2.0042,1.9845,1.9813,1.9627,1.9179,1.9113,1.9004,1.872,1.8512,1.8403,1.8403,1.8578,1.8611,1.8414,1.8403,1.8436,1.8523,1.8769,1.9041,1.9295,1.9509,1.9783,2.0115,2.0124,2.0278,2.0626,2.0707,2.1067,0.7088,0.7213,0.7297,0.7271,0.789,0.86,0.8963,0.9518,1.0123,1.0707,1.1407,1.1937,1.2157,1.2717,1.3369,1.3982,1.4135,1.4247,1.465,1.483,1.5032,1.52,1.5341,1.5724,1.6348,1.6491,1.6586,1.6681,1.6689,1.6689,1.6689,1.6689,1.6689,1.6689,1.6689,1.6689,1.6689,1.6689,1.6689,1.6689,1.6689,1.6689,1.6689,1.6689,1.6689,1.6689,1.6689,1.6689,1.6689,1.6689,1.6689,1.6689,1.6689,1.6812,1.7009,1.7416,1.7951,1.8603,1.9253,1.9717,2.0118,2.0653,2.0677,2.0532,2.0617,2.0386,2.0069,1.9912,1.9872,1.9853,1.9723,1.9693,1.9721,1.9832,1.9854,1.991,2.0197,2.0266,2.03,2.0477,2.0401,2.0314,2.0314,2.0205,2.0118,2.0118,2.0118,1.9987,1.9627,1.9584,1.9398,1.8938,1.8884,1.884,1.8698,1.8687,1.8687,1.8687,1.8687,1.8851,1.92,1.9222,1.9386,1.9704,1.9496,1.9544,1.9847,1.9979,2.0203,2.0475,2.0871,2.1074,0.6403,0.6856,0.7455,0.7242,0.8107,0.8921,0.877,0.9167,0.9679,0.9906,1.0432,1.1037,1.1601,1.2306,1.3011,1.3696,1.3902,1.4158,1.465,1.4495,1.4534,1.5112,1.4988,1.5072,1.5667,1.6023,1.6365,1.6665,1.6689,1.6689,1.6689,1.6689,1.6689,1.6689,1.6689,1.6689,1.6689,1.6689,1.6689,1.6689,1.6689,1.6689,1.6689,1.6689,1.6689,1.6689,1.6689,1.6689,1.6689,1.6689,1.6689,1.6689,1.6689,1.6689,1.6738,1.7017,1.7505,1.808,1.8353,1.8984,1.9638,1.9864,2.0323,2.0827,2.1106,2.1173,2.1034,2.0537,2.0379,2.0279,1.9813,1.9693,1.9693,1.9719,1.9709,1.9889,2.0557,2.0698,2.0839,2.1433,2.12,2.0872,2.0872,2.0456,2.0118,2.0118,2.0118,2.0107,2.0096,2.0096,1.99,1.942,1.9366,1.92,1.8731,1.8687,1.8687,1.8687,1.8687,1.8698,1.8709,1.8709,1.872,1.8731,1.9189,1.9513,1.9701,2.0145,2.0485,2.0679,2.0701,2.0701,0.7239,0.7565,0.793,0.7966,0.8515,0.8985,0.891,0.9044,0.9284,0.962,0.9644,0.9834,1.064,1.0964,1.1351,1.204,1.2457,1.275,1.2885,1.327,1.3507,1.3347,1.3603,1.3885,1.4137,1.4833,1.5575,1.6317,1.5986,1.6038,1.6681,1.6689,1.6689,1.6689,1.6689,1.6689,1.6689,1.6689,1.6689,1.6689,1.6689,1.6689,1.6689,1.6689,1.6689,1.6689,1.6689,1.6689,1.6689,1.6689,1.6689,1.6689,1.6689,1.6689,1.6689,1.6812,1.7098,1.7465,1.7821,1.8184,1.8585,1.8993,1.9231,1.946,1.9844,1.9923,1.9894,1.9713,1.9675,1.9647,1.9467,1.942,1.9468,1.9569,1.9576,1.9646,1.997,2.0053,2.0088,2.0313,2.0225,2.0263,2.0684,2.0302,2.0,2.0096,2.0118,2.0118,2.0118,2.0118,2.0053,1.9889,1.9867,1.9802,1.9638,1.9627,1.9627,1.9627,1.9627,1.9627,1.9627,1.9627,1.9627,1.9627,1.978,1.9899,1.9964,2.0128,2.0248,2.0313,2.0313,2.0313,0.7721,0.7981,0.8245,0.8458,0.8746,0.8981,0.8981,0.8961,0.8955,0.9215,0.9084,0.9071,0.9732,0.9785,1.0007,1.0807,1.1238,1.156,1.1872,1.2253,1.2522,1.2575,1.275,1.304,1.3449,1.3846,1.4488,1.545,1.5271,1.5435,1.6304,1.636,1.6443,1.6689,1.6689,1.6689,1.6689,1.6689,1.6689,1.6689,1.6689,1.6689,1.6689,1.6689,1.6689,1.6689,1.6689,1.6689,1.6689,1.6689,1.6689,1.6689,1.6689,1.6689,1.6689,1.6689,1.6812,1.7017,1.7375,1.7627,1.7878,1.8331,1.8531,1.8692,1.9073,1.9222,1.9301,1.9301,1.9301,1.9301,1.9301,1.9301,1.9316,1.9398,1.9448,1.9526,1.9813,1.9866,1.994,2.0199,2.0079,2.0078,2.0514,2.018,1.9865,1.9991,2.0027,2.0039,2.0096,2.0118,2.0118,2.0118,2.0118,2.0118,2.0118,2.0118,2.0118,2.0118,2.0118,2.0118,2.0118,2.0118,2.0118,2.0118,2.0118,2.0118,2.0118,2.0118,2.0118,2.0085,2.0292,2.0402,0.7797,0.8132,0.8496,0.8685,0.8878,0.8985,0.8985,0.885,0.8666,0.8682,0.8656,0.8686,0.889,0.8799,0.8995,1.0044,1.0305,1.0696,1.1512,1.1438,1.1682,1.2675,1.2364,1.2454,1.35,1.3081,1.316,1.4149,1.4455,1.4929,1.5609,1.5692,1.5982,1.6607,1.6697,1.6689,1.6689,1.6689,1.6689,1.6689,1.6689,1.6689,1.6689,1.6689,1.6689,1.6689,1.6689,1.6689,1.6689,1.6689,1.6689,1.6689,1.6689,1.6689,1.6689,1.6689,1.6689,1.673,1.6976,1.718,1.7432,1.7838,1.8161,1.8434,1.8843,1.9112,1.9301,1.9301,1.9301,1.9301,1.9301,1.9301,1.9301,1.9301,1.9301,1.946,2.004,2.0167,2.0352,2.0972,2.0719,2.0382,2.0362,2.0012,1.9762,1.9876,1.9882,1.9954,2.0074,2.0118,2.0118,2.0118,2.0118,2.0118,2.0118,2.0118,2.0118,2.0118,2.0118,2.0118,2.0118,2.0118,2.0118,2.0118,2.0118,2.0096,2.0151,2.0151,2.0162,2.0194,2.0686,2.0938,0.8368,0.877,0.91,0.9152,0.9056,0.8985,0.8985,0.8741,0.842,0.8279,0.8028,0.7812,0.7817,0.8046,0.8499,0.9211,0.9886,1.0467,1.0852,1.1117,1.1335,1.1404,1.1578,1.185,1.2126,1.2298,1.2527,1.2795,1.3352,1.4028,1.4887,1.5443,1.5775,1.594,1.6443,1.6689,1.6689,1.6689,1.6689,1.6689,1.6689,1.6689,1.6689,1.6689,1.6689,1.6689,1.6689,1.6689,1.6689,1.6689,1.6689,1.6689,1.6689,1.6689,1.6689,1.6689,1.6689,1.6697,1.6771,1.6861,1.6943,1.7392,1.7797,1.8161,1.8482,1.8913,1.9262,1.9112,1.9192,1.9301,1.9301,1.9301,1.9301,1.9301,1.9301,1.9341,1.9499,1.9539,1.9569,1.9766,2.0032,2.013,1.9772,2.0001,2.0116,1.9808,1.9737,1.986,2.0085,2.0118,2.0118,2.0118,2.0118,2.0118,2.0118,2.0118,2.0118,2.0118,2.0118,2.0118,2.0118,2.0118,2.0118,2.0118,2.0118,2.0292,2.0719,2.0719,2.0871,2.1221,2.1352,2.1407,0.8755,0.9108,0.9399,0.9305,0.9197,0.9042,0.873,0.8458,0.8122,0.7569,0.74,0.7283,0.6937,0.732,0.7874,0.8408,0.9218,0.9917,1.0298,1.063,1.0948,1.1205,1.1294,1.1513,1.1899,1.2189,1.2362,1.2362,1.2768,1.3381,1.4223,1.4901,1.5401,1.5692,1.636,1.6689,1.6689,1.6689,1.6689,1.6689,1.6689,1.6689,1.6689,1.6689,1.6689,1.6689,1.6689,1.6689,1.6689,1.6689,1.6689,1.6689,1.6689,1.6689,1.6689,1.6689,1.6689,1.6689,1.6689,1.6689,1.6771,1.7139,1.7546,1.791,1.8152,1.8674,1.9112,1.8922,1.9073,1.9262,1.9183,1.9222,1.9301,1.9301,1.9301,1.9301,1.9301,1.9301,1.9301,1.9301,1.9578,1.9739,1.9456,1.9688,1.9849,1.9646,1.9615,1.9696,1.9896,1.9974,1.9928,1.978,1.9976,2.0118,2.0118,2.0118,2.0118,2.0118,2.0118,2.0118,2.0118,2.0118,2.0118,2.0118,2.0325,2.0587,2.0894,2.1113,2.1354,2.1592,2.1811,2.1909,0.8966,0.9288,0.955,0.938,0.9241,0.9004,0.8379,0.8062,0.7672,0.6777,0.6813,0.6858,0.6261,0.6695,0.7294,0.774,0.8515,0.9272,0.9846,1.0107,1.0562,1.1472,1.124,1.1317,1.2169,1.232,1.2326,1.232,1.2491,1.2875,1.3519,1.4188,1.4859,1.565,1.6312,1.6648,1.6689,1.6689,1.6689,1.6689,1.6689,1.6689,1.6689,1.6689,1.6689,1.6689,1.6689,1.6689,1.6689,1.6689,1.6689,1.6689,1.6689,1.6689,1.6689,1.6689,1.6689,1.6689,1.6689,1.6689,1.673,1.6976,1.7335,1.77,1.7829,1.8353,1.8882,1.8652,1.8922,1.9222,1.9042,1.9152,1.9301,1.9301,1.9301,1.9301,1.9301,1.9301,1.9301,1.9301,1.9301,1.9301,1.9301,1.9301,1.933,1.9478,1.9459,1.9477,1.9472,1.9676,1.9685,1.9412,1.9736,2.0009,2.0074,2.0118,2.0118,2.0118,2.0118,2.0118,2.0118,2.0118,2.014,2.0205,2.0642,2.096,2.1091,2.1472,2.1712,2.1789,2.2204,2.2411,0.8981,0.9289,0.9593,0.9555,0.9041,0.8518,0.8393,0.7702,0.6993,0.6598,0.6309,0.6095,0.5982,0.6454,0.7066,0.7683,0.8333,0.896,0.9596,0.9686,1.0017,1.0788,1.095,1.1112,1.1451,1.1854,1.1989,1.1849,1.2026,1.2332,1.2833,1.3349,1.4188,1.5394,1.6105,1.6525,1.6689,1.6689,1.6689,1.6689,1.6689,1.6689,1.6689,1.6689,1.6689,1.6689,1.6689,1.6689,1.6689,1.6689,1.6689,1.6689,1.6689,1.6689,1.6689,1.6689,1.6689,1.6689,1.6689,1.6689,1.6697,1.673,1.7066,1.7432,1.7302,1.7829,1.8442,1.8201,1.8554,1.9033,1.9002,1.9152,1.9301,1.9301,1.9301,1.9301,1.9301,1.9301,1.9301,1.9301,1.9301,1.9301,1.9301,1.9301,1.9313,1.9319,1.9349,1.9081,1.8471,1.8861,1.9371,1.9771,1.9584,1.9616,2.0042,2.0118,2.0118,2.0118,2.0118,2.0118,2.0118,2.0118,2.0303,2.0763,2.085,2.1288,2.2062,2.2149,2.239,2.2761,2.2848,2.2881,0.9018,0.9303,0.953,0.9201,0.8765,0.8206,0.7581,0.7011,0.6463,0.5801,0.5659,0.561,0.5448,0.6007,0.6633,0.7064,0.7659,0.8321,0.9014,0.9211,0.9606,1.0391,1.057,1.0766,1.1111,1.1332,1.1424,1.1327,1.1505,1.1854,1.2332,1.2881,1.3802,1.5186,1.556,1.5974,1.6517,1.6517,1.6607,1.6689,1.6689,1.6689,1.6689,1.6689,1.6689,1.6689,1.6689,1.6689,1.6689,1.6689,1.6689,1.6689,1.6689,1.6689,1.6689,1.6689,1.6689,1.6689,1.6689,1.6689,1.6689,1.6689,1.6943,1.7221,1.7139,1.7538,1.7991,1.7757,1.8152,1.8683,1.8683,1.8913,1.9152,1.9262,1.9301,1.9301,1.9301,1.9301,1.9301,1.9301,1.9301,1.9301,1.9301,1.9301,1.9301,1.9301,1.9301,1.9091,1.8504,1.8516,1.8621,1.8754,1.8832,1.911,1.9649,1.9693,1.9802,2.0074,2.0118,2.0118,2.0118,2.0118,2.0336,2.0883,2.1146,2.1592,2.2313,2.2553,2.2783,2.3001,2.3001,2.3001,0.8846,0.9087,0.9229,0.8697,0.8373,0.7859,0.6722,0.6324,0.5965,0.5125,0.5122,0.5236,0.5081,0.5623,0.6167,0.6454,0.7026,0.7731,0.8524,0.8859,0.9296,1.0141,1.0253,1.0424,1.0809,1.0895,1.0901,1.0852,1.1068,1.1332,1.178,1.2406,1.3372,1.4671,1.4887,1.5394,1.6319,1.6394,1.6476,1.6648,1.6697,1.6689,1.6689,1.6689,1.6689,1.6689,1.6689,1.6689,1.6689,1.6689,1.6689,1.6689,1.6689,1.6689,1.6689,1.6689,1.6689,1.6689,1.6689,1.6689,1.6689,1.6689,1.6853,1.7009,1.7009,1.7294,1.7538,1.7383,1.7789,1.8273,1.8322,1.8643,1.9002,1.9222,1.9301,1.9301,1.9301,1.9301,1.9301,1.9301,1.9301,1.9301,1.9301,1.9301,1.9301,1.9301,1.9301,1.9127,1.865,1.832,1.7953,1.7561,1.8003,1.864,1.9379,1.9362,1.9593,2.0227,2.0172,2.0118,2.0118,2.0216,2.0533,2.1036,2.1494,2.1985,2.2466,2.2826,2.3001,2.3001,2.3001,2.3001,0.8168,0.8356,0.8461,0.8212,0.7736,0.7157,0.6559,0.5992,0.5472,0.5148,0.4952,0.4946,0.5231,0.5481,0.5829,0.6407,0.6899,0.7512,0.8311,0.8774,0.9256,0.9932,1.021,1.0337,1.0381,1.0598,1.0641,1.0381,1.0598,1.0857,1.1073,1.1714,1.2522,1.3535,1.4132,1.4985,1.6128,1.6319,1.6394,1.6435,1.6607,1.6689,1.6689,1.6689,1.6689,1.6689,1.6689,1.6689,1.6689,1.6689,1.6689,1.6689,1.6689,1.6689,1.6689,1.6689,1.6689,1.6689,1.6689,1.6689,1.6689,1.6689,1.673,1.673,1.673,1.6935,1.7131,1.7139,1.7456,1.7821,1.7991,1.8362,1.8812,1.9222,1.9301,1.9301,1.9301,1.9301,1.9301,1.9301,1.9301,1.9301,1.9301,1.9301,1.9301,1.9301,1.9301,1.9026,1.8237,1.8109,1.7816,1.706,1.7432,1.8374,1.9805,1.9551,1.9731,2.0762,2.0358,2.0118,2.0118,2.0566,2.1058,2.1551,2.1996,2.2477,2.2936,2.2979,2.3001,2.3001,2.3001,2.3001,0.7966,0.8163,0.8276,0.7859,0.7492,0.7032,0.6107,0.5644,0.5245,0.4825,0.4701,0.4754,0.4951,0.5227,0.5576,0.605,0.6298,0.6729,0.7569,0.8014,0.8514,0.9134,0.9608,0.9943,1.0111,1.0212,1.0207,1.0125,1.0212,1.0299,1.0381,1.0901,1.1628,1.2522,1.3209,1.4104,1.5242,1.5914,1.6203,1.6203,1.6533,1.6648,1.6525,1.6648,1.6689,1.6689,1.6689,1.6689,1.6689,1.6689,1.6689,1.6689,1.6689,1.6689,1.6689,1.6689,1.6689,1.6689,1.6689,1.6689,1.6689,1.6689,1.6689,1.6689,1.6689,1.6771,1.6853,1.6853,1.709,1.7383,1.7595,1.808,1.8603,1.9033,1.9112,1.9152,1.9262,1.9301,1.9301,1.9301,1.9301,1.9301,1.9301,1.9301,1.9301,1.9301,1.9301,1.9017,1.8191,1.8091,1.7779,1.6991,1.732,1.7973,1.8909,1.9043,1.956,2.07,2.0575,2.0617,2.0979,2.1199,2.1527,2.2018,2.2215,2.2542,2.3001,2.3001,2.3001,2.3001,2.3001,2.3001,0.7301,0.7533,0.7655,0.7326,0.7157,0.6772,0.5755,0.5373,0.511,0.4599,0.4561,0.4639,0.4779,0.5031,0.5335,0.0,0.5868,0.6223,0.7157,0.7593,0.8009,0.8628,0.9096,0.9469,0.9781,0.9923,0.9994,0.9994,0.9994,0.9994,0.9994,1.0299,1.0901,1.1757,1.2528,1.3421,1.4524,1.5492,1.5997,1.6004,1.6368,1.6443,1.6319,1.6451,1.6533,1.6533,1.6533,1.6533,1.6533,1.6533,1.6574,1.6607,1.6607,1.6648,1.6689,1.6689,1.6689,1.6689,1.6689,1.6689,1.6689,1.6689,1.6689,1.6689,1.6689,1.6689,1.6689,1.6689,1.6894,1.7139,1.7351,1.7797,1.8313,1.8723,1.8882,1.8962,1.9152,1.9262,1.9301,1.9301,1.9301,1.9301,1.9301,1.9301,1.9301,1.9301,1.9301,1.9017,1.8191,1.8091,1.7779,1.6991,1.7367,1.7886,1.8442,1.8766,1.9472,2.0833,2.0778,2.0963,2.1592,2.1723,2.1964,2.2277,2.2455,2.2684,2.3001,2.3001,2.3001,2.3001,2.3001,2.3001,0.6005,0.6233,0.6304,0.6625,0.6554,0.6205,0.5462,0.5187,0.498,0.4574,0.4561,0.4639,0.4779,0.4919,0.5127,0.5542,0.5779,0.6275,0.7361,0.7688,0.8009,0.8628,0.8708,0.8874,0.9249,0.9705,0.9994,0.9994,0.9994,0.9994,0.9994,0.9994,1.0424,1.1284,1.2211,1.3148,1.4097,1.5186,1.5692,1.5692,1.5997,1.6095,1.6087,1.6095,1.6095,1.6095,1.6095,1.6095,1.6095,1.6095,1.6203,1.6394,1.6394,1.6525,1.6689,1.6689,1.6689,1.6689,1.6689,1.6689,1.6689,1.6689,1.6689,1.6689,1.6689,1.6689,1.6689,1.6689,1.6894,1.7139,1.7351,1.7546,1.7821,1.8273,1.8571,1.8772,1.8962,1.9152,1.9301,1.9301,1.9301,1.9301,1.9301,1.9301,1.9301,1.9301,1.9301,1.9017,1.8191,1.8091,1.7779,1.6991,1.7633,1.8323,1.892,1.8939,1.96,2.1293,2.0957,2.0963,2.1592,2.2051,2.2313,2.2313,2.2761,2.3001,2.3001,2.3001,2.3001,2.3001,2.3001,2.3001,0.4964,0.5137,0.5302,0.5553,0.5663,0.5597,0.5062,0.5031,0.4955,0.4457,0.4491,0.4618,0.4661,0.4849,0.5169,0.5722,0.5868,0.6176,0.6915,0.747,0.7962,0.8439,0.9124,0.9653,0.9781,0.9919,0.9994,0.9994,0.9994,0.9994,0.9994,0.9994,1.0207,1.0593,1.1537,1.2437,1.3343,1.4475,1.52,1.5499,1.5922,1.5997,1.5824,1.6004,1.6087,1.6087,1.6087,1.6087,1.6087,1.6087,1.6203,1.6394,1.6394,1.6525,1.6689,1.6689,1.6689,1.6689,1.6689,1.6689,1.6689,1.6689,1.6689,1.6689,1.6689,1.6689,1.6689,1.6689,1.6771,1.6894,1.7139,1.7261,1.7497,1.8233,1.8322,1.8362,1.8882,1.9042,1.9073,1.9073,1.9222,1.9301,1.9301,1.9301,1.9301,1.9301,1.9072,1.8715,1.8155,1.7871,1.7495,1.6963,1.7376,1.788,1.8341,1.8871,1.9591,2.0534,2.0444,2.0828,2.1893,2.2078,2.2376,2.2783,2.2925,2.3001,2.3001,2.3001,2.3001,2.3001,2.3001,2.3001,0.3851,0.4055,0.424,0.4638,0.4887,0.4941,0.4669,0.4741,0.4763,0.438,0.4469,0.4596,0.4596,0.4823,0.5141,0.5599,0.5741,0.6072,0.6826,0.73,0.7792,0.8335,0.9181,0.9715,0.9715,0.99,0.9994,0.9994,0.9923,0.9838,0.9838,0.9762,0.98,0.9922,1.0979,1.1843,1.2485,1.3548,1.4398,1.5041,1.5333,1.5492,1.5575,1.5756,1.5839,1.5839,1.5839,1.5839,0.0,1.5839,1.5955,1.6147,1.6237,1.6324,1.6434,1.665,1.661,1.6491,1.6491,1.6578,1.665,1.638,1.6333,1.6357,1.6451,1.6586,1.6689,1.6689,1.6689,1.673,1.6894,1.6935,1.7139,1.7838,1.7991,1.8161,1.8772,1.9002,1.9112,1.9112,1.9222,1.9301,1.9301,1.9173,1.9072,1.9072,1.8742,1.8348,1.7944,1.766,1.7348,1.6945,1.7257,1.7596,1.7862,1.8485,1.9187,1.9947,1.9956,2.0525,2.17,2.1987,2.2289,2.2665,2.2889,2.3001,2.3001,2.3001,2.3001,2.3001,2.3001,2.3001,0.0,0.2987,0.3159,0.382,0.4138,0.4271,0.426,0.4363,0.0,0.4335,0.4469,0.4605,0.4653,0.4846,0.5092,0.5335,0.5533,0.6006,0.7047,0.7242,0.7579,0.8349,0.8963,0.9282,0.9282,0.9677,0.9952,0.9952,0.9729,0.9583,0.9583,0.939,0.9282,0.9282,1.05,1.1316,1.1621,1.2432,1.3322,1.4246,1.4266,1.4622,1.5311,1.5333,1.5333,1.5352,1.5352,1.5338,1.5323,1.5323,1.5433,1.5666,1.5928,1.595,1.5911,1.6418,1.6412,1.6166,1.6166,1.6381,1.6547,1.5888,1.5712,1.5776,1.6071,1.642,1.6665,1.6681,1.6689,1.6689,1.6689,1.6689,1.682,1.727,1.7676,1.8072,1.8536,1.8917,1.9216,1.9189,1.9219,1.9219,1.9219,1.8916,1.8669,1.8669,1.8292,1.7935,1.755,1.7468,1.7312,1.6945,1.7229,1.7449,1.7449,1.7862,1.849,1.9439,1.9496,1.9944,2.1006,2.1611,2.1935,2.1983,2.2606,2.2964,2.3001,2.3001,2.3001,2.3001,2.3001,2.3001,0.1745,0.0,0.2194,0.2618,0.2955,0.3285,0.0,0.3942,0.4149,0.4268,0.4469,0.4706,0.508,0.5056,0.5259,0.6078,0.6125,0.6336,0.709,0.774,0.8302,0.8817,0.9103,0.9282,0.9282,0.9412,0.9474,0.9474,0.9426,0.9357,0.9357,0.931,0.9282,0.9282,0.9623,1.0166,1.0947,1.1275,1.1927,1.287,1.3035,1.3515,1.4357,1.4545,1.4781,1.5017,1.5017,1.4918,1.4692,1.4692,1.4843,1.5025,1.5065,1.5263,1.5522,1.5639,1.5763,1.5839,1.5839,1.5856,1.5896,1.5768,1.5712,1.569,1.5777,1.6047,1.6389,1.6618,1.6689,1.6689,1.6689,1.6689,1.682,1.727,1.7473,1.76,1.7751,1.8113,1.8297,1.7964,1.8167,1.8365,1.8365,1.8283,1.8228,1.8228,1.7908,1.7605,1.7504,1.7229,1.7009,1.6917,1.6991,1.7046,1.7046,1.7706,1.8193,1.8434,1.8434,1.8769,1.9487,1.9948,2.0426,2.0934,2.1847,2.2553,2.3001,2.3001,2.3001,2.3001,2.3001,2.3001,0.1411,0.1526,0.1729,0.1957,0.2269,0.2623,0.3046,0.3498,0.3848,0.4005,0.4334,0.471,0.506,0.5213,0.5486,0.6111,0.6285,0.6591,0.7375,0.816,0.877,0.8957,0.9159,0.9282,0.9282,0.9282,0.9282,0.9282,0.9197,0.9145,0.9145,0.9091,0.9039,0.9039,0.9039,0.9408,1.0212,1.0333,1.0858,1.1748,1.1879,1.256,1.3675,1.3831,1.4189,1.4728,1.4728,1.4626,1.4511,1.4511,1.4543,1.4691,1.4754,1.4826,1.495,1.5258,1.5365,1.5338,1.5451,1.534,1.5229,1.5396,1.534,1.5229,1.5396,1.5586,1.5809,1.615,1.6246,1.6246,1.6246,1.6246,1.6325,1.669,1.6849,1.6948,1.7106,1.7449,1.7684,1.7548,1.7737,1.8007,1.8091,1.7963,1.7834,1.7834,1.7486,1.7185,1.7114,1.6888,1.6726,1.6621,1.6621,1.6656,1.6751,1.7098,1.7424,1.7789,1.7834,1.8064,1.8572,1.9076,1.9734,2.0585,2.1607,2.2252,2.259,2.2852,2.3001,2.3001,2.3001,2.3001,0.142,0.1475,0.1545,0.1636,0.1895,0.2184,0.2454,0.0,0.0,0.0,0.4134,0.4651,0.5,0.5357,0.5739,0.6091,0.6469,0.6988,0.7768,0.8486,0.8901,0.8934,0.9124,0.9188,0.9188,0.9188,0.9188,0.9188,0.9032,0.8934,0.8934,0.8803,0.8742,0.878,0.878,0.9029,0.9631,0.9591,0.9953,1.0708,1.0747,1.1483,1.2844,1.2883,1.3317,1.4066,1.4151,1.42,1.4202,1.4318,1.4357,1.4357,1.4535,1.4448,1.4283,1.498,1.5047,1.4834,1.5028,1.4903,1.4653,1.5006,1.4895,1.466,1.5006,1.5102,1.5165,1.5435,1.5594,1.5712,1.5712,1.5712,1.5758,1.592,1.6103,1.6307,1.6464,1.687,1.7219,1.7289,1.7502,1.7705,1.7898,1.7642,1.7403,1.7403,1.7119,1.683,1.6682,1.6603,1.6542,1.6412,1.6377,1.6447,1.6647,1.6482,1.6695,1.7385,1.7368,1.7551,1.7972,1.8514,1.9255,2.0326,2.1258,2.1797,2.1996,2.2596,2.2927,2.3001,2.3001,2.3001,0.1459,0.1568,0.1642,0.1486,0.1602,0.1841,0.2114,0.2424,0.0,0.0,0.3961,0.457,0.5575,0.5702,0.6031,0.7073,0.746,0.7758,0.8236,0.8415,0.8562,0.8732,0.8779,0.8798,0.8798,0.8798,0.8798,0.8798,0.877,0.8751,0.8751,0.8718,0.8856,0.9208,0.9056,0.909,0.9346,0.9034,0.8995,0.9312,0.9536,1.0084,1.0857,1.1039,1.1453,1.2049,1.2594,1.2841,1.2929,1.3454,1.3645,1.3645,1.3682,1.3763,1.3909,1.4202,1.4369,1.4504,1.4656,1.4653,1.4613,1.4668,1.4653,1.4613,1.4668,1.4684,1.47,1.4748,1.5221,1.5712,1.5712,1.5712,1.572,1.5758,1.5912,1.5983,1.5757,1.6209,1.6628,1.6368,1.6696,1.7057,1.7092,1.7037,1.7,1.7,1.6945,1.6908,1.6864,1.6716,1.6647,1.6795,1.6656,1.6647,1.683,1.683,1.6857,1.6991,1.6842,1.698,1.7578,1.7695,1.8206,1.9236,1.9738,2.0517,2.1576,2.2024,2.2515,2.3001,2.3001,2.3001,0.1358,0.1467,0.153,0.1513,0.1627,0.1793,0.1988,0.2251,0.2674,0.348,0.4028,0.4658,0.5648,0.6042,0.651,0.7499,0.7905,0.8184,0.8373,0.8496,0.86,0.8689,0.8703,0.8703,0.8703,0.8703,0.8703,0.8703,0.8703,0.8703,0.8703,0.8703,0.8894,0.9284,0.9099,0.9099,0.9284,0.9018,0.8861,0.8822,0.8957,0.9425,1.0111,1.023,1.0677,1.1356,1.2073,1.2418,1.2489,1.32,1.3492,1.3492,1.3492,1.3572,1.3681,1.3992,1.4245,1.4425,1.4569,1.4605,1.4605,1.4605,1.4605,1.4605,1.4605,1.4605,1.4605,1.4605,1.4835,1.5118,1.5118,1.5118,1.5118,1.5118,1.5192,1.5189,1.5065,1.546,1.5842,1.5778,1.6202,1.6621,1.6726,1.6751,1.6751,1.6751,1.6656,1.656,1.6482,1.6377,1.6377,1.6447,1.6272,1.6272,1.6551,1.6421,1.6421,1.6726,1.6751,1.6833,1.7015,1.734,1.7856,1.862,1.9353,2.0165,2.1056,2.1843,2.2336,2.2641,2.2881,2.3001,0.1277,0.1353,0.1461,0.1581,0.0,0.1771,0.1922,0.2115,0.2499,0.3322,0.3959,0.4646,0.5525,0.6315,0.7062,0.7834,0.8193,0.842,0.8463,0.8604,0.8703,0.8703,0.8703,0.8703,0.8703,0.8703,0.8703,0.8703,0.8703,0.8703,0.8703,0.8703,0.8894,0.9359,0.9175,0.9175,0.9359,0.9175,0.8941,0.8703,0.8703,0.9008,0.9539,0.9539,0.9911,1.0582,1.1403,1.1781,1.1966,1.29,1.3309,1.3309,1.3455,1.3535,1.3601,1.3956,1.4245,1.4425,1.4569,1.4605,1.4605,1.4605,1.4605,1.4605,1.4605,1.4605,1.4605,1.4605,1.4605,1.4605,1.4605,1.4605,1.4605,1.4605,1.4605,1.4605,1.4605,1.4919,1.524,1.539,1.5885,1.6307,1.6473,1.6508,1.6508,1.6508,1.6342,1.6202,1.6061,1.5991,1.5991,1.6096,1.5938,1.5938,1.6237,1.5964,1.5964,1.6324,1.6647,1.676,1.6603,1.7087,1.7562,1.7967,1.8948,1.9737,2.0361,2.1425,2.2049,2.2324,2.2684,2.2892,0.1305,0.1396,0.1522,0.1669,0.1596,0.1564,0.1758,0.1839,0.2041,0.2728,0.3491,0.4305,0.5187,0.6499,0.7651,0.8251,0.8382,0.8467,0.8656,0.8689,0.8703,0.8703,0.8703,0.8703,0.8703,0.8703,0.8703,0.8703,0.8703,0.8703,0.8703,0.8703,0.897,0.9544,0.9397,0.9359,0.9587,0.9397,0.9089,0.8703,0.8703,0.8627,0.8518,0.8518,0.8627,0.8927,0.9712,1.0276,1.0738,1.2114,1.2673,1.2709,1.3273,1.3608,1.379,1.4029,1.4245,1.4425,1.4569,1.4605,1.4605,1.4605,1.4605,1.4605,1.4605,1.4605,1.4605,1.4605,1.4605,1.4605,1.4605,1.4605,1.4605,1.4605,1.4605,1.4605,1.4605,1.4919,1.5204,1.524,1.57,1.6132,1.6132,1.6237,1.6272,1.6167,1.6132,1.6026,1.5833,1.5665,1.5682,1.6061,1.5938,1.5903,1.6096,1.5912,1.5736,1.5603,1.6228,1.6603,1.6603,1.6822,1.6945,1.7014,1.7922,1.8688,1.9293,2.0315,2.1321,2.2313,2.231,2.2597,0.1173,0.1305,0.1435,0.164,0.17,0.0,0.0,0.1901,0.2146,0.2955,0.369,0.4483,0.5495,0.6332,0.6996,0.728,0.7938,0.8429,0.8505,0.8623,0.8703,0.8703,0.8703,0.8703,0.8703,0.8703,0.8703,0.8703,0.8703,0.8703,0.8703,0.8703,0.8932,0.9397,0.9213,0.9213,0.9397,0.9213,0.898,0.8703,0.8703,0.8665,0.8589,0.8589,0.8627,0.8742,0.9533,0.9986,1.0218,1.1372,1.1855,1.1892,1.2224,1.2673,1.3046,1.2856,1.3397,1.4165,1.3977,1.4238,1.4605,1.4605,1.4605,1.4605,1.4605,1.4605,1.4605,1.4605,1.4605,1.4605,1.4605,1.4605,1.4605,1.4605,1.4605,1.4605,1.4605,1.482,1.4999,1.4999,1.539,1.5718,1.5718,1.5788,1.5788,1.5744,1.5638,1.5524,1.5444,1.5346,1.5426,1.5709,1.5647,1.5576,1.5524,1.5488,1.5382,1.5311,1.5912,1.6237,1.6105,1.6386,1.6726,1.721,1.7559,1.8247,1.9269,1.9941,2.0682,2.1428,2.2029,2.2473,0.1064,0.1205,0.1337,0.1607,0.0,0.0,0.1918,0.1972,0.2207,0.2892,0.3601,0.45,0.5621,0.6011,0.6253,0.6572,0.7385,0.7974,0.8038,0.8309,0.8505,0.8505,0.8505,0.8505,0.8505,0.8505,0.8505,0.8505,0.8505,0.8505,0.8505,0.8505,0.8659,0.9003,0.8896,0.8896,0.9003,0.8896,0.8701,0.8505,0.8576,0.8637,0.8703,0.8703,0.8703,0.8737,0.9349,0.962,0.9695,1.0625,1.1149,1.1335,1.1446,1.1781,1.2187,1.1966,1.2703,1.3804,1.3571,1.3977,1.4605,1.4605,1.4605,1.4605,1.4605,1.4605,1.4605,1.4605,1.4605,1.4605,1.4605,1.4605,1.4605,1.4605,1.4605,1.4605,1.4605,1.4713,1.4792,1.4792,1.5078,1.5328,1.5328,1.5355,1.539,1.5328,1.5177,1.5062,1.5026,1.5026,1.5106,1.5292,1.5328,1.5248,1.5106,1.5062,1.5026,1.5026,1.5461,1.5718,1.5726,1.5991,1.6403,1.6968,1.7373,1.8037,1.8934,1.9668,2.0327,2.0905,2.1549,2.2002,0.0978,0.1097,0.1263,0.1523,0.1664,0.1756,0.1963,0.2004,0.2069,0.2362,0.3159,0.4193,0.5442,0.5525,0.5626,0.636,0.6767,0.706,0.7274,0.7761,0.808,0.808,0.808,0.8115,0.8115,0.8115,0.8115,0.8115,0.8115,0.8115,0.8115,0.8115,0.8191,0.8382,0.8382,0.8382,0.8382,0.8382,0.8301,0.8115,0.8297,0.8505,0.8699,0.8703,0.8703,0.8703,0.8903,0.8984,0.9061,0.9846,1.0556,1.1074,1.1074,1.1223,1.1409,1.1595,1.2335,1.3229,1.339,1.3977,1.4569,1.4605,1.4605,1.4605,1.4605,1.4605,1.4605,1.4605,1.4605,1.4605,1.4605,1.4605,1.4605,1.4605,1.4605,1.4605,1.4605,1.4605,1.4605,1.4605,1.4756,1.4908,1.4908,1.507,1.5133,1.4935,1.4908,1.4828,1.4641,1.4605,1.4677,1.4872,1.4908,1.4908,1.4908,1.4713,1.4605,1.4605,1.4792,1.5078,1.547,1.57,1.5877,1.6096,1.7354,1.807,1.8216,1.9462,2.0358,2.0883,2.0894,2.1157,0.0895,0.1103,0.1315,0.1473,0.1762,0.2002,0.2055,0.2067,0.225,0.2832,0.2935,0.3206,0.4321,0.4582,0.4779,0.523,0.5945,0.6455,0.6506,0.7109,0.7548,0.7548,0.7868,0.8115,0.8115,0.8115,0.8115,0.8115,0.8115,0.8115,0.8115,0.8115,0.8115,0.8191,0.8191,0.8191,0.8191,0.8191,0.8155,0.8115,0.8146,0.8288,0.8496,0.8637,0.8703,0.8703,0.878,0.8784,0.8822,0.9203,0.9549,0.9846,0.9846,1.0143,1.0519,1.0143,1.0999,1.2305,1.1922,1.2512,1.3477,1.3905,1.4049,1.4122,1.4489,1.4605,1.4605,1.4605,1.4605,1.4605,1.4605,1.4605,1.4605,1.4605,1.4605,1.4605,1.4605,1.4605,1.4605,1.4605,1.4641,1.4677,1.4677,1.4748,1.474,1.4713,1.4677,1.4677,1.4605,1.4605,1.4605,1.4677,1.4677,1.4677,1.4677,1.4641,1.4605,1.4605,1.4641,1.4828,1.5078,1.5275,1.5453,1.5674,1.6568,1.7285,1.7842,1.8898,1.9679,2.0226,2.0663,2.1038,0.0851,0.1029,0.1256,0.1504,0.1755,0.1975,0.2121,0.2132,0.2274,0.2778,0.2657,0.2712,0.3538,0.3861,0.4092,0.442,0.5191,0.5755,0.5755,0.6321,0.684,0.7043,0.7353,0.7628,0.7834,0.7868,0.7868,0.7868,0.7868,0.7868,0.7868,0.7868,0.7868,0.7868,0.7868,0.7868,0.7868,0.7868,0.7868,0.7868,0.7954,0.8028,0.816,0.8363,0.8453,0.8453,0.8453,0.85,0.8581,0.8703,0.8864,0.9051,0.9051,0.9316,0.9695,0.9511,1.0368,1.1595,1.1409,1.2003,1.2966,1.3331,1.3433,1.355,1.4129,1.4274,1.4346,1.4533,1.4605,1.4605,1.4605,1.4605,1.4605,1.4605,1.4605,1.4605,1.4605,1.4605,1.4605,1.4605,1.4605,1.4605,1.4605,1.4605,1.4605,1.4605,1.4605,1.4605,1.4605,1.4605,1.4605,1.4605,1.4605,1.4605,1.4605,1.4605,1.4605,1.4605,1.4605,1.4641,1.4792,1.4892,1.507,1.5256,1.628,1.7104,1.7687,1.8854,1.9605,1.9976,2.0401,2.0643,0.0836,0.0929,0.1114,0.1553,0.1696,0.1796,0.2128,0.2188,0.2221,0.2357,0.2391,0.2523,0.3058,0.3328,0.3563,0.3928,0.4558,0.502,0.5024,0.5491,0.602,0.6511,0.6609,0.6839,0.7358,0.7423,0.7456,0.7489,0.7489,0.7489,0.7489,0.7489,0.7489,0.7489,0.7489,0.7489,0.7489,0.7489,0.7489,0.7493,0.7688,0.7783,0.7792,0.8015,0.8115,0.8115,0.8115,0.8193,0.8373,0.8373,0.8481,0.8642,0.8642,0.8765,0.8969,0.9357,1.0147,1.1001,1.1434,1.2063,1.2712,1.2776,1.2806,1.2894,1.3535,1.376,1.3905,1.4382,1.4569,1.4605,1.4605,1.4605,1.4605,1.4605,1.4605,1.4605,1.4605,1.4605,1.4605,1.4605,1.4605,1.4605,1.4605,1.4605,1.4605,1.4605,1.4605,1.4605,1.4605,1.4605,1.4605,1.4605,1.4605,1.4605,1.4605,1.4605,1.4605,1.4605,1.4605,1.4605,1.4605,1.4605,1.4677,1.4864,1.6332,1.7282,1.7668,1.9144,1.9933,2.0074,2.0074,2.0118,0.0732,0.0857,0.1062,0.1266,0.1594,0.1923,0.2147,0.2188,0.2221,0.2221,0.2255,0.2356,0.2755,0.2956,0.3259,0.3758,0.4059,0.4295,0.4464,0.4924,0.5322,0.5418,0.5818,0.628,0.6806,0.6872,0.7031,0.7456,0.7489,0.7489,0.7489,0.7489,0.7489,0.7489,0.7489,0.7489,0.7489,0.7489,0.7489,0.7489,0.7536,0.756,0.7574,0.7944,0.8115,0.8115,0.8115,0.8144,0.8151,0.8151,0.8174,0.8212,0.8212,0.8253,0.8344,0.8731,0.9343,0.9988,1.037,1.0794,1.1275,1.1968,1.2035,1.204,1.2859,1.3441,1.3833,1.3941,1.4274,1.4605,1.4605,1.4605,1.4605,1.4605,1.4605,1.4605,1.4605,1.4605,1.4605,1.4605,1.4605,1.4605,1.4605,1.4605,1.4605,1.4605,1.4605,1.4605,1.4605,1.4605,1.4605,1.4605,1.4605,1.4605,1.4605,1.4605,1.4605,1.4605,1.4605,1.4605,1.4605,1.4605,1.4605,1.4641,1.6167,1.7051,1.7239,1.8867,1.978,1.9944,2.0042,2.0118,0.0725,0.0857,0.0987,0.1199,0.1562,0.1886,0.2012,0.212,0.2188,0.2188,0.2188,0.2288,0.2522,0.2721,0.2989,0.3424,0.3725,0.3961,0.4131,0.4495,0.4824,0.5054,0.5355,0.5719,0.6251,0.6544,0.6806,0.7097,0.7363,0.7489,0.7489,0.7489,0.7489,0.7489,0.7489,0.7489,0.7489,0.7489,0.7489,0.7489,0.7489,0.7489,0.7498,0.7717,0.7816,0.7816,0.7816,0.7873,0.7973,0.7973,0.8025,0.8115,0.8115,0.8115,0.8165,0.8566,0.9,0.9477,0.9866,1.0223,1.0591,1.1047,1.1288,1.1535,1.2442,1.3107,1.3602,1.4047,1.4382,1.4605,1.4605,1.4605,1.4605,1.4605,1.4605,1.4605,1.4605,1.4605,1.4605,1.4605,1.4605,1.4605,1.4605,1.4605,1.4605,1.4605,1.4605,1.4605,1.4605,1.4605,1.4605,1.4605,1.4605,1.4605,1.4605,1.4605,1.4605,1.4605,1.4605,1.4605,1.4605,1.4605,1.4605,1.4605,1.6097,1.6957,1.7101,1.8777,1.9704,1.99,2.0042,2.0118,0.0749,0.085,0.0959,0.1227,0.1496,0.1751,0.1827,0.2004,0.2138,0.2138,0.2181,0.2221,0.2357,0.2522,0.2755,0.3058,0.3458,0.3792,0.3961,0.4164,0.4464,0.4924,0.4957,0.519,0.5723,0.6148,0.6478,0.6544,0.7064,0.7358,0.7358,0.7456,0.7489,0.7489,0.7489,0.7489,0.7489,0.7489,0.7489,0.7489,0.7489,0.7489,0.7489,0.7489,0.7489,0.7489,0.7489,0.7593,0.7759,0.7759,0.7859,0.8006,0.8006,0.8006,0.8046,0.8444,0.8838,0.9222,0.9625,0.9956,1.0238,1.028,1.0573,1.106,1.1879,1.2466,1.3042,1.3919,1.421,1.4316,1.4387,1.4423,1.4423,1.4423,1.4423,1.4454,1.4581,1.4605,1.4605,1.4605,1.4605,1.4605,1.4605,1.4605,1.4605,1.4605,1.4605,1.4605,1.4605,1.4605,1.4605,1.4605,1.4605,1.4605,1.4605,1.4605,1.4605,1.4605,1.4605,1.4605,1.4605,1.4605,1.4605,1.4641,1.6167,1.706,1.7351,1.8911,1.9736,1.9933,2.0042,2.0118,0.069,0.0815,0.0943,0.1159,0.1277,0.1419,0.1586,0.175,0.1847,0.1847,0.205,0.2221,0.2221,0.2356,0.2523,0.2721,0.3192,0.3596,0.3792,0.4097,0.4334,0.44,0.4398,0.4628,0.5156,0.5286,0.5521,0.5987,0.6511,0.6806,0.6806,0.726,0.7489,0.7489,0.7489,0.7489,0.7489,0.7489,0.7489,0.7489,0.7489,0.7489,0.7489,0.7489,0.7489,0.7489,0.7489,0.7508,0.7531,0.7531,0.755,0.7574,0.7574,0.7574,0.7631,0.802,0.8502,0.9005,0.9414,0.9731,0.9997,1.022,1.0176,1.0138,1.0475,1.1006,1.16,1.2191,1.267,1.3138,1.3618,1.3719,1.3719,1.3719,1.3719,1.3894,1.447,1.4605,1.4605,1.4605,1.4605,1.4605,1.4605,1.4605,1.4605,1.4605,1.4605,1.4605,1.4605,1.4605,1.4605,1.4605,1.4605,1.4605,1.4605,1.4605,1.4605,1.4605,1.4605,1.4605,1.4605,1.4605,1.4677,1.4864,1.6332,1.7487,1.8331,1.9353,1.9944,2.0074,2.0074,2.0118,0.0652,0.0738,0.0822,0.0988,0.113,0.1272,0.1401,0.1579,0.1707,0.1772,0.1888,0.1993,0.2059,0.2148,0.2244,0.2402,0.2826,0.3197,0.3334,0.3669,0.3913,0.3943,0.3967,0.4094,0.4408,0.4693,0.4981,0.5206,0.5735,0.6143,0.6398,0.6644,0.6948,0.7318,0.7323,0.7375,0.7489,0.7489,0.7489,0.7489,0.7489,0.7489,0.7489,0.7489,0.7489,0.7489,0.7489,0.7489,0.7489,0.7489,0.7489,0.7489,0.7489,0.7489,0.7536,0.7697,0.8095,0.8536,0.8847,0.9213,0.9598,0.9784,0.9972,1.0184,1.0489,1.0981,1.1525,1.1954,1.2233,1.253,1.3001,1.3143,1.3243,1.3518,1.3618,1.3664,1.3982,1.4204,1.4367,1.4565,1.4605,1.4605,1.4605,1.4605,1.4605,1.4605,1.4605,1.4605,1.4605,1.4431,1.4383,1.4581,1.4431,1.4391,1.4589,1.4605,1.4605,1.4605,1.4605,1.4605,1.4605,1.4605,1.4856,1.5382,1.6532,1.7351,1.7881,1.9253,1.9933,1.9976,2.0085,2.0118,0.0525,0.0604,0.0641,0.0838,0.0991,0.1147,0.1177,0.1354,0.1513,0.1639,0.1702,0.1817,0.1897,0.1962,0.2039,0.2149,0.2524,0.2819,0.2904,0.324,0.3523,0.3624,0.365,0.37,0.3799,0.4198,0.4433,0.4458,0.4938,0.5423,0.5789,0.6061,0.6428,0.6919,0.7047,0.7185,0.7332,0.7389,0.7441,0.7489,0.7489,0.7489,0.7489,0.7489,0.7456,0.7423,0.7493,0.7489,0.7489,0.7489,0.7489,0.7489,0.7489,0.7489,0.7489,0.7489,0.7782,0.8172,0.8344,0.8765,0.9242,0.9414,0.9734,1.0149,1.038,1.0745,1.1158,1.1535,1.1631,1.1764,1.2222,1.2354,1.2486,1.302,1.3151,1.3239,1.3545,1.3791,1.4053,1.4288,1.4383,1.4423,1.4423,1.4526,1.4542,1.4359,1.4391,1.4399,1.4344,1.414,1.4061,1.4233,1.4101,1.4117,1.4439,1.4391,1.4415,1.4589,1.4518,1.451,1.4597,1.4605,1.4991,1.5833,1.6662,1.7282,1.7677,1.922,1.9933,1.9933,2.0042,2.0118,0.0219,0.0324,0.0389,0.0732,0.0861,0.0906,0.0911,0.1066,0.1214,0.1243,0.1481,0.1718,0.1715,0.1876,0.2022,0.2081,0.2328,0.2559,0.2597,0.2896,0.3219,0.3471,0.3516,0.3544,0.3611,0.3633,0.3682,0.3755,0.4235,0.4604,0.4759,0.5669,0.622,0.6259,0.6625,0.6815,0.6824,0.7078,0.7304,0.7489,0.7489,0.7489,0.7489,0.7489,0.7396,0.7232,0.7428,0.7489,0.7489,0.7489,0.7489,0.7489,0.7489,0.7489,0.7489,0.7489,0.7722,0.8019,0.8172,0.856,0.9049,0.9242,0.9408,0.9548,0.956,0.9598,0.9727,1.0251,1.0379,1.0506,1.0975,1.1094,1.122,1.176,1.1885,1.2216,1.3342,1.3592,1.3616,1.3632,1.3815,1.3931,1.3931,1.4312,1.4375,1.3735,1.3823,1.3852,1.3664,1.3657,1.3578,1.3395,1.3538,1.3751,1.4109,1.3831,1.3926,1.4557,1.4288,1.4256,1.4589,1.4605,1.5026,1.5974,1.6706,1.7522,1.8442,1.9561,2.0085,2.0085,2.0118,2.0118,0.0081,0.0175,0.021,0.0622,0.0774,0.0856,0.0898,0.0958,0.1031,0.1179,0.1297,0.1415,0.1504,0.1782,0.201,0.2033,0.2241,0.2373,0.2353,0.258,0.2829,0.29,0.2929,0.2981,0.3132,0.3161,0.3208,0.3293,0.3505,0.3811,0.4275,0.4668,0.5044,0.5421,0.5902,0.6357,0.6791,0.6801,0.6909,0.7108,0.7108,0.7177,0.7297,0.7428,0.7396,0.7204,0.7265,0.7297,0.7297,0.7297,0.7396,0.7489,0.7489,0.7489,0.7489,0.7489,0.7624,0.7824,0.8014,0.8409,0.8894,0.9049,0.9285,0.9516,0.9516,0.9516,0.9548,0.9734,0.9798,0.9894,1.0428,1.0555,1.0674,1.1178,1.1553,1.1932,1.2355,1.3039,1.3618,1.3618,1.3767,1.3988,1.4313,1.4479,1.4217,1.3132,1.3028,1.3052,1.2973,1.3156,1.3322,1.349,1.3346,1.3402,1.3743,1.3656,1.3696,1.3942,1.3846,1.3831,1.3958,1.3966,1.4275,1.4962,1.5934,1.7139,1.8509,1.9495,1.9966,1.9966,2.0042,2.0118,-0.0314,-0.0235,-0.0199,0.0216,0.0476,0.0641,0.0672,0.0779,0.09,0.1053,0.1161,0.1238,0.1326,0.1601,0.1842,0.1886,0.2022,0.2121,0.2097,0.2256,0.2401,0.247,0.2467,0.2548,0.2702,0.2728,0.2777,0.2898,0.2896,0.3118,0.3633,0.3783,0.4172,0.4797,0.5166,0.5718,0.6459,0.6332,0.6459,0.6845,0.6808,0.6876,0.6999,0.7189,0.7158,0.6999,0.694,0.7049,0.7204,0.7204,0.733,0.7489,0.7489,0.7489,0.7489,0.7489,0.7559,0.7661,0.7824,0.8214,0.8635,0.8861,0.9151,0.9446,0.9484,0.9516,0.9516,0.9516,0.9516,0.958,0.9926,1.018,1.0364,1.0674,1.1146,1.1584,1.1771,1.256,1.3275,1.3275,1.3427,1.3745,1.4243,1.4462,1.4189,1.3059,1.3337,1.3412,1.2685,1.2797,1.3028,1.3251,1.3076,1.3084,1.3394,1.3339,1.3371,1.3602,1.3481,1.3465,1.361,1.3618,1.3863,1.4486,1.5408,1.6572,1.7955,1.8949,1.9429,1.9419,1.9704,1.9835,0.0,0.0,0.0,-0.0496,-0.0065,0.0264,0.0205,0.0515,0.0812,0.087,0.1065,0.1202,0.1204,0.1355,0.1522,0.1657,0.1752,0.1822,0.1876,0.1914,0.1965,0.2181,0.2188,0.2255,0.2364,0.2387,0.2414,0.2479,0.2501,0.2592,0.2788,0.3173,0.3722,0.4445,0.4455,0.4883,0.5742,0.562,0.5935,0.6683,0.6607,0.6577,0.6611,0.6731,0.6727,0.6572,0.6461,0.6675,0.7153,0.719,0.7293,0.7489,0.7489,0.7489,0.7489,0.7489,0.7489,0.7526,0.7661,0.7917,0.8269,0.8668,0.9022,0.9306,0.9446,0.9484,0.9516,0.9516,0.9516,0.9516,0.9516,0.9894,1.0276,1.0276,1.0649,1.1108,1.1646,1.2182,1.256,1.259,1.2767,1.3094,1.3679,1.4169,1.4258,1.3601,1.4778,1.4959,1.2859,1.2621,1.2621,1.2621,1.2621,1.2734,1.3044,1.2789,1.2877,1.3546,1.3283,1.3219,1.357,1.3586,1.3925,1.4656,1.5184,1.5914,1.6864,1.7955,1.8509,1.8533,1.9077,1.9299,-0.1179,0.0,0.0,0.0,0.0,0.0,0.0138,0.032,0.0502,0.0779,0.0868,0.093,0.0978,0.1099,0.1235,0.1254,0.1526,0.1747,0.1762,0.1886,0.1984,0.2062,0.2065,0.2058,0.2102,0.2099,0.2153,0.2285,0.2284,0.2382,0.2584,0.2733,0.3057,0.3623,0.3667,0.4062,0.4842,0.4677,0.5037,0.5888,0.5739,0.5941,0.6448,0.6497,0.6396,0.6237,0.6211,0.6272,0.6436,0.6705,0.7007,0.7297,0.7461,0.7489,0.7489,0.7489,0.7489,0.7489,0.7559,0.7787,0.8079,0.8301,0.8694,0.9113,0.9306,0.9414,0.9516,0.9516,0.9516,0.9516,0.9516,0.9612,0.9708,0.9708,1.011,1.0555,1.08,1.1365,1.1957,1.2498,1.2652,1.2797,1.3164,1.3929,1.4258,1.3601,1.387,1.3748,1.2731,1.2867,1.2981,1.282,1.2858,1.2876,1.2881,1.2708,1.267,1.2861,1.2789,1.2781,1.2869,1.2877,1.3147,1.3751,1.4245,1.4974,1.5965,1.7441,1.8408,1.8965,1.9561,1.9868,0.0,0.0,-0.1592,-0.1225,0.0,0.0,-0.0201,0.0043,0.0319,0.0723,0.0801,0.0803,0.0851,0.0927,0.0972,0.1013,0.1248,0.1489,0.1629,0.181,0.1929,0.1929,0.1929,0.1929,0.1929,0.1929,0.1958,0.2018,0.2018,0.2089,0.2236,0.2304,0.2524,0.2882,0.2931,0.3302,0.408,0.3872,0.4227,0.5061,0.491,0.5224,0.5945,0.5994,0.6095,0.6181,0.6117,0.6087,0.6125,0.6362,0.6706,0.7081,0.7209,0.7353,0.7489,0.7489,0.7489,0.7489,0.7489,0.7657,0.7889,0.8079,0.8468,0.8958,0.9113,0.9312,0.9516,0.9516,0.9516,0.9516,0.9516,0.9516,0.9516,0.9516,0.9894,1.0364,1.0643,1.1178,1.1833,1.2467,1.259,1.2744,1.3125,1.3679,1.404,1.392,1.3911,1.37,1.3072,1.3186,1.3307,1.3277,1.3103,1.2958,1.2897,1.2775,1.2652,1.259,1.259,1.259,1.259,1.259,1.2748,1.3074,1.3599,1.4597,1.6016,1.7097,1.8171,1.9187,1.9594,1.99,0.0,0.0,0.0,-0.2043,-0.1599,0.0,-0.0744,-0.034,0.0121,0.064,0.0724,0.0755,0.0791,0.08,0.0812,0.0869,0.1009,0.1213,0.1509,0.1657,0.1741,0.1741,0.1769,0.1769,0.1769,0.1797,0.1797,0.1797,0.1797,0.1819,0.1898,0.1959,0.2079,0.2265,0.2282,0.264,0.3372,0.3205,0.3489,0.4222,0.4128,0.447,0.5182,0.5291,0.5607,0.6062,0.5977,0.5938,0.5938,0.5998,0.6337,0.6818,0.6849,0.7094,0.7428,0.7455,0.747,0.7489,0.7489,0.7591,0.7694,0.7889,0.8344,0.8802,0.8926,0.9221,0.9516,0.9516,0.9516,0.9516,0.9516,0.9516,0.9516,0.9516,0.9862,1.0333,1.0737,1.1365,1.205,1.2683,1.2713,1.2828,1.3359,1.3541,1.3791,1.4357,1.4485,1.4258,1.3601,1.3571,1.367,1.3799,1.3376,1.3072,1.305,1.2897,1.2744,1.2598,1.259,1.259,1.259,1.259,1.2621,1.2652,1.3324,1.4615,1.6492,1.6967,1.7889,1.9299,1.9375,1.9649,-0.2405,-0.2434,-0.2452,-0.2228,-0.1956,0.0,-0.1193,-0.0921,-0.0575,0.016,0.0318,0.0402,0.0677,0.0757,0.0807,0.0811,0.0967,0.1132,0.1201,0.1319,0.1403,0.1403,0.1543,0.1629,0.1629,0.1741,0.1797,0.1797,0.1797,0.1802,0.1813,0.1897,0.1934,0.1977,0.2075,0.2262,0.2535,0.2546,0.2933,0.3657,0.3492,0.379,0.4476,0.4297,0.435,0.4611,0.4862,0.4977,0.5005,0.5314,0.576,0.6298,0.654,0.682,0.703,0.7184,0.7351,0.7489,0.7489,0.7526,0.7559,0.7727,0.8122,0.8582,0.877,0.9157,0.9516,0.9516,0.9516,0.9516,0.9516,0.9516,0.9516,0.9516,0.958,0.967,0.9766,1.1014,1.2505,1.3868,1.3567,1.3103,1.3255,1.383,1.4258,1.413,1.4327,1.4258,1.3601,1.398,1.4228,1.398,1.3769,1.3519,1.3268,1.2981,1.2744,1.2598,1.259,1.259,1.259,1.259,1.2713,1.2928,1.3861,1.4857,1.5866,1.7024,1.8175,1.9299,1.9726,2.0009,-0.2694,-0.2644,-0.2609,-0.2492,-0.2252,0.0,0.0,-0.1245,-0.0925,-0.0287,-0.002,0.017,0.0363,0.0598,0.0752,0.0759,0.0863,0.0941,0.0958,0.1151,0.1304,0.1308,0.138,0.145,0.145,0.1501,0.16,0.1685,0.1769,0.1797,0.1797,0.1824,0.1853,0.1909,0.197,0.2064,0.2191,0.2225,0.2488,0.2956,0.285,0.3189,0.3898,0.3758,0.3895,0.427,0.4544,0.4596,0.4522,0.4747,0.5078,0.5502,0.6045,0.646,0.6771,0.6965,0.7193,0.7356,0.7455,0.7489,0.7521,0.7591,0.8019,0.8511,0.8608,0.906,0.9516,0.9516,0.9516,0.9516,0.9516,0.9516,0.9516,0.9516,0.9766,0.9894,0.958,1.0586,1.1926,1.3155,1.3186,1.3186,1.3748,1.392,1.401,1.41,1.4318,1.4387,1.404,1.4198,1.4258,1.404,1.389,1.3739,1.3549,1.3224,1.2997,1.2805,1.2744,1.2652,1.259,1.259,1.2713,1.2981,1.367,1.4421,1.5312,1.6121,1.7226,1.8506,1.8854,1.911,-0.296,-0.2887,-0.2791,-0.277,-0.2541,-0.2231,0.0,0.0,0.0,-0.0727,-0.0401,-0.0133,0.0041,0.0355,0.0612,0.0683,0.0736,0.0775,0.0763,0.1011,0.1178,0.1201,0.1238,0.1239,0.1239,0.1256,0.1364,0.1541,0.1625,0.1705,0.1766,0.1769,0.1789,0.1864,0.1905,0.1959,0.2059,0.2082,0.2185,0.2338,0.235,0.269,0.3286,0.327,0.3526,0.399,0.4199,0.4232,0.4066,0.4215,0.4504,0.486,0.5473,0.6026,0.6481,0.6749,0.6969,0.7187,0.7422,0.7489,0.7489,0.7489,0.7954,0.8511,0.8608,0.906,0.9516,0.9516,0.9516,0.9516,0.9516,0.9516,0.9516,0.9574,0.9951,1.0174,0.9702,1.0301,1.1178,1.205,1.2597,1.3199,1.4198,1.398,1.3821,1.416,1.4318,1.4417,1.4476,1.4318,1.416,1.41,1.398,1.386,1.3799,1.3506,1.3233,1.2989,1.2867,1.2744,1.2598,1.2713,1.2858,1.3042,1.3398,1.39,1.463,1.4897,1.592,1.7641,1.7732,1.8049,-0.3156,-0.3153,-0.3104,-0.3005,-0.29,-0.2702,-0.224,0.0,-0.1829,-0.1239,0.0,-0.0693,-0.0104,0.0,0.0,0.0632,0.0705,0.0683,0.0631,0.0697,0.0789,0.086,0.0967,0.1041,0.1041,0.115,0.1246,0.1335,0.1286,0.1371,0.162,0.1628,0.1687,0.1807,0.1856,0.1918,0.1932,0.2041,0.2099,0.214,0.2195,0.2322,0.2522,0.2458,0.2559,0.2815,0.3147,0.3259,0.3276,0.3694,0.4227,0.4817,0.4954,0.5402,0.6026,0.6476,0.6753,0.6971,0.7358,0.7489,0.7489,0.7489,0.7954,0.8576,0.9055,0.9344,0.9516,0.9516,0.9516,0.9516,0.9516,0.9516,0.9542,0.9786,0.9728,0.967,0.9888,1.0503,1.118,1.181,1.2612,1.3321,1.3799,1.4169,1.4357,1.4219,1.413,1.4169,1.4455,1.4318,1.4258,1.4417,1.4327,1.4109,1.383,1.361,1.3277,1.2867,1.2805,1.2744,1.2598,1.3125,1.3359,1.3268,1.361,1.3726,1.3662,1.3692,1.4987,1.7425,1.7389,1.7757,-0.3212,-0.3193,-0.3166,-0.3029,-0.2952,-0.2838,-0.2544,-0.2312,-0.2086,-0.1824,0.0,0.0,0.0,0.0,0.0,0.0,0.0514,0.0631,0.0608,0.0619,0.0678,0.0729,0.0784,0.0842,0.0879,0.0965,0.106,0.1127,0.1165,0.1265,0.141,0.1527,0.1628,0.1685,0.1792,0.1849,0.1911,0.1962,0.2024,0.2095,0.2121,0.2186,0.2288,0.2261,0.2281,0.238,0.2611,0.2693,0.2754,0.3403,0.4003,0.4538,0.485,0.5319,0.5888,0.6193,0.6497,0.6792,0.7179,0.7394,0.7521,0.7722,0.8117,0.8576,0.899,0.9312,0.9516,0.9516,0.9516,0.9516,0.9516,0.9516,0.9516,0.9638,0.9696,0.976,0.9913,1.0161,1.0598,1.1389,1.1849,1.2405,1.329,1.404,1.4417,1.4219,1.4258,1.4258,1.4228,1.4198,1.4219,1.4318,1.4198,1.4079,1.392,1.367,1.339,1.3094,1.2828,1.2713,1.2836,1.3246,1.3472,1.342,1.367,1.3619,1.3216,1.3338,1.4017,1.5199,1.5688,1.6208,-0.3341,-0.3319,-0.3258,-0.3107,-0.3021,-0.2934,-0.2695,-0.2471,-0.228,-0.2215,-0.183,0.0,0.0,0.0,-0.0179,0.002,0.0,0.0596,0.0576,0.0597,0.0628,0.0658,0.0696,0.0716,0.079,0.0817,0.0851,0.095,0.0993,0.1096,0.1245,0.142,0.1556,0.16,0.1741,0.1816,0.1858,0.1903,0.1957,0.2045,0.2078,0.2118,0.2163,0.2179,0.2188,0.2221,0.2288,0.2357,0.2386,0.3021,0.3655,0.4244,0.4603,0.5129,0.576,0.5961,0.6222,0.6522,0.6906,0.7206,0.7473,0.773,0.8098,0.8474,0.8829,0.9183,0.9446,0.9484,0.9516,0.9516,0.9516,0.9516,0.9516,0.958,0.9702,0.9817,0.9977,0.9977,1.0168,1.0958,1.1122,1.1452,1.2551,1.3731,1.4446,1.4288,1.4417,1.4417,1.4169,1.4228,1.4288,1.4288,1.4169,1.407,1.401,1.3692,1.339,1.3177,1.2797,1.2713,1.2928,1.3277,1.345,1.3459,1.358,1.3437,1.2989,1.3094,1.3235,1.3398,1.4219,1.489,-0.3599,-0.3599,-0.3515,-0.3247,-0.3188,-0.3077,-0.262,-0.256,-0.2511,-0.2262,-0.2127,-0.1946,-0.1464,-0.0948,-0.0474,-0.0138,0.0295,0.0,0.0,0.0565,0.0596,0.0607,0.0662,0.0731,0.0787,0.0678,0.0668,0.0795,0.0699,0.0763,0.1082,0.1226,0.141,0.1598,0.1741,0.1798,0.18,0.1854,0.1912,0.1918,0.2038,0.2096,0.21,0.216,0.2188,0.2188,0.2221,0.2221,0.2221,0.2388,0.3068,0.3996,0.4038,0.4664,0.5641,0.5822,0.5999,0.6169,0.6513,0.6871,0.7231,0.7377,0.7768,0.8269,0.8668,0.9055,0.9338,0.9446,0.9516,0.9516,0.9516,0.9516,0.9548,0.974,0.9644,0.9638,1.018,1.0142,1.011,1.053,1.0624,1.0807,1.1452,1.3186,1.4515,1.4476,1.4515,1.4515,1.4485,1.4476,1.4476,1.4476,1.4357,1.4207,1.401,1.3692,1.3299,1.2867,1.2683,1.2652,1.2805,1.3125,1.3307,1.3302,1.3307,1.3216,1.2989,1.2867,1.2805,1.2852,1.3515,1.432,-0.3613,-0.3668,-0.3668,-0.3398,-0.3338,-0.3225,-0.285,-0.2687,-0.2539,-0.2303,-0.2244,-0.2139,-0.1853,-0.121,-0.0667,-0.0473,0.0156,0.0591,0.0,0.0595,0.0605,0.0597,0.0652,0.0686,0.0675,0.0617,0.0643,0.0736,0.0682,0.0742,0.0889,0.1065,0.1232,0.141,0.1581,0.1713,0.1797,0.1816,0.1843,0.1911,0.1994,0.2055,0.2098,0.2159,0.2188,0.2188,0.2188,0.2188,0.2218,0.267,0.3148,0.3641,0.3947,0.452,0.5251,0.5566,0.583,0.602,0.6445,0.6743,0.6955,0.6986,0.7402,0.7896,0.8148,0.8631,0.9145,0.9312,0.9446,0.9516,0.9516,0.9516,0.9516,0.958,0.9548,0.958,0.99,0.9989,1.0079,1.0333,1.0498,1.0649,1.087,1.1459,1.2505,1.4228,1.4515,1.4515,1.4515,1.4387,1.4348,1.4476,1.4396,1.4207,1.401,1.3489,1.3042,1.2683,1.2629,1.2713,1.2928,1.3042,1.3155,1.3316,1.3164,1.3011,1.2867,1.2744,1.2652,1.2683,1.2981,1.3473,-0.3708,-0.3762,-0.3791,-0.3526,-0.3466,-0.3366,-0.2989,-0.2817,-0.2692,-0.2491,-0.2404,-0.2371,-0.2324,-0.1587,-0.094,-0.0841,-0.0118,0.0462,0.0,0.0567,0.0567,0.0567,0.0621,0.0654,0.0646,0.0596,0.0603,0.0686,0.068,0.0699,0.0784,0.0962,0.113,0.1305,0.1489,0.1657,0.1797,0.1797,0.1815,0.1853,0.1963,0.2023,0.2066,0.2149,0.2188,0.2188,0.2188,0.2188,0.2217,0.264,0.2973,0.3241,0.3587,0.407,0.4621,0.5108,0.5536,0.5912,0.626,0.6526,0.6679,0.6679,0.706,0.7527,0.7757,0.8258,0.8775,0.9116,0.9312,0.9446,0.9484,0.9516,0.9516,0.9516,0.9516,0.9548,0.9772,0.9868,0.9989,1.0149,1.0371,1.0498,1.0498,1.0713,1.1732,1.4139,1.4228,1.416,1.4455,1.4387,1.4357,1.4476,1.4396,1.4207,1.395,1.3415,1.2989,1.2775,1.2713,1.2744,1.2928,1.2928,1.3011,1.3186,1.3011,1.2897,1.2805,1.2652,1.259,1.259,1.2683,1.292]},{"header":{"parameterUnit":"m.s-1","parameterCategory":1,"la1":30.6,"la2":29.2853,"lo1":-89.7004,"lo2":-87.6739,"dy":0.0162,"dx":0.0183,"nx":112,"ny":82,"refTime":"2025-11-22T12:00:00:Z","depth":0,"parameterNumber":3,"parameterNumberName":"V-component_of_WINDS"},"data":[0.0,0.0,0.0,0.0,0.0,0.0,0.0,0.0,0.0,0.0,0.0,0.0,0.0,0.0,0.0,0.0,0.0,0.0,0.0,0.0,0.0,0.0,0.0,0.0,0.0,0.0,0.0,0.0,0.0,0.0,0.0,0.0,0.0,0.0,0.0,0.0,0.0,0.0,0.0,0.0,0.0,0.0,0.0,0.0,0.0,0.0,0.0,0.0,0.0,0.0,0.0,0.0,0.0,0.0,0.0,0.0,0.0,0.0,0.0,0.0,0.0,0.0,0.0,0.0,0.0,0.0,0.0,0.0,0.0,0.0,0.0,0.0,0.0,0.0,0.0,0.0,0.0,0.0,0.0,0.0,0.0,0.0,0.0,0.0,0.0,0.0,0.0,0.0,0.0,0.0,1.6619,1.7505,1.8639,1.9328,1.9369,1.8849,1.774,1.5958,0.0,0.0,0.0,0.0,0.0,0.0,0.0,0.0,0.0,0.0,0.0,0.0,0.0,0.0,0.0,0.0,0.0,0.0,0.0,0.0,0.0,0.0,0.0,0.0,0.0,0.0,0.0,0.0,0.0,0.0,0.0,0.0,0.0,0.0,0.0,0.0,0.0,0.0,0.0,0.0,0.0,0.0,0.0,0.0,0.0,0.0,0.0,0.0,0.0,0.0,0.0,0.0,0.0,0.0,0.0,0.0,0.0,0.0,0.0,0.0,0.0,0.0,0.0,0.0,0.0,0.0,0.0,0.0,0.0,0.0,0.0,0.0,0.0,0.0,0.0,0.0,0.0,0.0,0.0,0.0,0.0,0.0,0.0,0.0,0.0,0.0,0.0,0.0,0.0,0.0,0.0,0.0,0.0,0.0,0.0,0.0,0.0,0.0,0.0,0.0,0.0,0.0,0.0,0.0,1.5941,1.8695,1.9237,1.9369,1.9328,1.8809,1.7922,1.6544,0.0,0.0,0.0,0.0,0.0,0.0,0.0,0.0,0.0,0.0,0.0,0.0,0.0,0.0,0.0,0.0,0.0,0.0,0.0,0.0,0.0,0.0,0.0,0.0,0.0,0.0,0.0,0.0,0.0,0.0,0.0,0.0,0.0,0.0,0.0,0.0,0.0,0.0,0.0,0.0,0.0,0.0,0.0,0.0,0.0,0.0,0.0,0.0,0.0,0.0,0.0,0.0,0.0,0.0,0.0,0.0,0.0,0.0,0.0,0.0,0.0,0.0,0.0,0.0,0.0,0.0,0.0,0.0,0.0,0.0,0.0,0.0,0.0,0.0,0.0,0.0,0.0,0.0,0.0,0.0,0.0,0.0,0.0,0.0,0.0,0.0,0.0,0.0,0.0,0.0,0.0,0.0,0.0,0.0,0.0,0.0,0.0,0.0,0.0,0.0,0.0,0.0,0.0,1.6191,1.7831,1.9594,1.9887,1.9929,1.9887,1.9025,1.7964,1.6729,1.5175,0.0,0.0,0.0,0.0,0.0,0.0,0.0,0.0,0.0,0.0,0.0,0.0,0.0,0.0,0.0,0.0,0.0,0.0,0.0,0.0,0.0,0.0,0.0,0.0,0.0,0.0,0.0,0.0,0.0,0.0,0.0,0.0,0.0,0.0,0.0,0.0,0.0,0.0,0.0,0.0,0.0,0.0,0.0,0.0,0.0,0.0,0.0,0.0,0.0,0.0,0.0,0.0,0.0,0.0,0.0,0.0,0.0,0.0,0.0,0.0,0.0,0.0,0.0,0.0,0.0,0.0,0.0,0.0,0.0,0.0,0.0,0.0,0.0,0.0,0.0,0.0,0.0,0.0,0.0,0.0,0.0,0.0,0.0,0.0,0.0,0.0,0.0,0.0,0.0,0.0,0.0,0.0,0.0,0.0,0.0,0.0,0.0,0.0,0.0,0.0,0.0,0.0,1.8399,1.9656,2.0151,2.0307,2.04,2.04,1.8981,1.7688,1.6786,1.4546,0.0,0.0,0.0,0.0,0.0,0.0,0.0,0.0,0.0,0.0,0.0,0.0,0.0,0.0,0.0,0.0,0.0,0.0,0.0,0.0,0.0,0.0,0.0,0.0,0.0,0.0,0.0,0.0,0.0,0.0,0.0,0.0,0.0,0.0,0.0,0.0,0.0,0.0,0.0,0.0,0.0,0.0,0.0,0.0,0.0,0.0,0.0,0.0,0.0,0.0,0.0,0.0,0.0,0.0,0.0,0.0,0.0,0.0,0.0,0.0,0.0,0.0,0.0,0.0,0.0,0.0,0.0,0.0,0.0,0.0,0.0,0.0,0.0,0.0,0.0,0.0,0.0,0.0,0.0,0.0,0.0,0.0,0.0,0.0,0.0,0.0,0.0,0.0,0.0,0.0,0.0,0.0,0.0,0.0,0.0,0.0,0.0,0.0,0.0,0.0,0.0,0.0,1.8212,2.0022,2.0172,2.0307,2.04,2.04,1.8194,1.6828,1.6788,1.3389,0.0,0.0,0.0,0.0,0.0,0.0,0.0,0.0,0.0,0.0,0.0,0.0,0.0,0.0,0.0,0.0,0.0,0.0,0.0,0.0,0.0,0.0,0.0,0.0,0.0,0.0,0.0,0.0,0.0,0.0,0.0,0.0,0.0,0.0,0.0,0.0,0.0,0.0,0.0,0.0,0.0,0.0,0.0,0.0,0.0,0.0,0.0,0.0,0.0,0.0,0.0,0.0,0.0,0.0,0.0,0.0,0.0,0.0,0.0,0.0,0.0,0.0,0.0,0.0,0.0,0.0,0.0,0.0,0.0,0.0,0.0,0.0,0.0,0.0,0.0,0.0,0.0,0.0,0.0,0.0,0.0,0.0,0.0,0.0,0.0,0.0,0.0,0.0,0.0,0.0,0.0,0.0,0.0,0.0,0.0,0.0,0.0,0.0,0.0,0.0,0.0,0.0,1.8371,1.9732,2.0151,2.0307,2.0231,1.9803,1.8588,1.7323,1.6194,0.0,0.0,0.0,0.0,0.0,0.0,0.0,0.0,0.0,0.0,0.0,0.0,0.0,0.0,0.0,0.0,0.0,0.0,0.0,0.0,0.0,0.0,0.0,0.0,0.0,0.0,0.0,0.0,0.0,0.0,0.0,0.0,0.0,0.0,0.0,0.0,0.0,0.0,0.0,0.0,0.0,0.0,0.0,0.0,0.0,0.0,0.0,0.0,0.0,0.0,0.0,0.0,0.0,0.0,0.0,0.0,0.0,0.0,0.0,0.0,0.0,0.0,0.0,0.0,0.0,0.0,0.0,0.0,0.0,0.0,0.0,0.0,0.0,0.0,0.0,0.0,0.0,0.0,0.0,0.0,0.0,0.0,0.0,0.0,0.0,0.0,0.0,0.0,0.0,0.0,0.0,0.0,0.0,0.0,0.0,0.0,0.0,0.0,0.0,0.0,0.0,0.0,1.7056,1.8661,1.9817,2.0416,2.0419,2.0217,1.9761,1.8428,1.7066,1.5822,0.0,0.0,0.0,0.0,0.0,0.0,0.0,0.0,0.0,0.0,0.0,0.0,0.0,0.0,0.0,0.0,0.0,0.0,0.0,0.0,0.0,0.0,0.0,0.0,0.0,0.0,0.0,0.0,0.0,0.0,0.0,0.0,0.0,0.0,0.0,0.0,0.0,0.0,0.0,0.0,0.0,0.0,0.0,0.0,0.0,0.0,0.0,0.0,0.0,0.0,0.0,0.0,0.0,0.0,0.0,0.0,0.0,0.0,0.0,0.0,0.0,0.0,0.0,0.0,0.0,0.0,0.0,0.0,0.0,0.0,0.0,0.0,0.0,0.0,0.0,0.0,0.0,0.0,0.0,0.0,0.0,0.0,0.0,0.0,0.0,0.0,0.0,0.0,0.0,0.0,0.0,0.0,0.0,0.0,0.0,0.0,0.0,0.0,0.0,0.0,0.0,0.0,1.7176,1.905,2.043,2.1044,2.0686,2.04,2.0386,1.7515,1.5752,0.0,0.0,0.0,0.0,0.0,0.0,0.0,0.0,0.0,0.0,0.0,0.0,0.0,0.0,0.0,0.0,0.0,0.0,0.0,0.0,0.0,0.0,0.0,0.0,0.0,0.0,0.0,0.0,0.0,0.0,0.0,0.0,0.0,0.0,0.0,0.0,0.0,0.0,0.0,0.0,0.0,0.0,0.0,0.0,0.0,0.0,0.0,0.0,0.0,0.0,0.0,0.0,0.0,0.0,0.0,0.0,0.0,0.0,0.0,0.0,0.0,0.0,0.0,0.0,0.0,0.0,0.0,0.0,0.0,0.0,0.0,0.0,0.0,0.0,0.0,0.0,0.0,0.0,0.0,0.0,0.0,0.0,0.0,0.0,0.0,0.0,0.0,0.0,0.0,0.0,0.0,0.0,0.0,0.0,0.0,0.0,0.0,0.0,0.0,0.0,0.0,0.0,0.0,1.7772,1.9404,2.0567,2.1178,2.0751,2.0217,1.9733,1.8063,1.648,1.5175,0.0,0.0,0.0,0.0,0.0,0.0,0.0,0.0,0.0,0.0,0.0,0.0,0.0,0.0,0.0,0.0,0.0,0.0,0.0,0.0,0.0,0.0,0.0,0.0,0.0,0.0,0.0,0.0,0.0,0.0,0.0,0.0,0.0,0.0,0.0,0.0,0.0,0.0,0.0,0.0,0.0,0.0,0.0,0.0,0.0,0.0,0.0,0.0,0.0,0.0,0.0,0.0,0.0,0.0,0.0,0.0,0.0,0.0,0.0,0.0,0.0,0.0,0.0,0.0,0.0,0.0,0.0,0.0,0.0,0.0,0.0,0.0,0.0,0.0,0.0,0.0,0.0,0.0,0.0,0.0,0.0,0.0,0.0,0.0,0.0,0.0,0.0,0.0,0.0,0.0,0.0,0.0,0.0,0.0,0.0,0.0,0.0,0.0,0.0,0.0,0.0,0.0,1.8075,1.9586,2.0709,2.1575,2.0914,2.0245,1.9831,1.8299,1.6661,1.5063,0.0,0.0,0.0,0.0,0.0,0.0,0.0,0.0,0.0,0.0,0.0,0.0,0.0,0.0,0.0,0.0,0.0,0.0,0.0,0.0,0.0,0.0,0.0,0.0,0.0,0.0,0.0,0.0,0.0,0.0,0.0,0.0,0.0,0.0,0.0,0.0,0.0,0.0,0.0,0.0,0.0,0.0,0.0,0.0,0.0,0.0,0.0,0.0,0.0,0.0,0.0,0.0,0.0,0.0,0.0,0.0,0.0,0.0,0.0,0.0,0.0,0.0,0.0,0.0,0.0,0.0,0.0,0.0,0.0,0.0,0.0,0.0,0.0,0.0,0.0,0.0,0.0,0.0,0.0,0.0,0.0,0.0,0.0,0.0,0.0,0.0,0.0,0.0,0.0,0.0,0.0,0.0,0.0,0.0,0.0,0.0,0.0,0.0,0.0,0.0,0.0,0.0,1.8175,1.9607,2.0864,2.2081,2.1203,2.0499,2.0443,1.8479,1.6692,1.5412,0.0,0.0,0.0,0.0,0.0,0.0,0.0,0.0,0.0,0.0,0.0,0.0,0.0,0.0,0.0,0.0,0.0,0.0,0.0,0.0,0.0,0.0,0.0,0.0,0.0,0.0,0.0,0.0,0.0,0.0,0.0,0.0,0.0,0.0,0.0,0.0,0.0,0.0,0.0,0.0,0.0,0.0,0.0,0.0,0.0,0.0,0.0,0.0,0.0,0.0,0.0,0.0,0.0,0.0,0.0,0.0,0.0,0.0,0.0,0.0,1.6765,1.5681,0.0,0.0,0.0,0.0,0.0,0.0,0.0,0.0,0.0,0.0,0.0,0.0,0.0,0.0,0.0,0.0,0.0,0.0,0.0,0.0,0.0,0.0,0.0,0.0,0.0,0.0,0.0,0.0,0.0,0.0,0.0,0.0,0.0,0.0,0.0,0.0,0.0,0.0,0.0,0.0,1.8061,1.9586,2.0864,2.2081,2.1766,2.1298,2.0754,1.9633,1.8202,1.6408,1.4473,0.0,0.0,0.0,0.0,0.0,0.0,0.0,0.0,0.0,0.0,0.0,0.0,0.0,0.0,0.0,0.0,0.0,0.0,0.0,0.0,0.0,0.0,0.0,0.0,0.0,0.0,0.0,0.0,0.0,0.0,0.0,0.0,0.0,0.0,0.0,0.0,0.0,0.0,0.0,0.0,0.0,0.0,0.0,0.0,0.0,0.0,0.0,0.0,0.0,0.0,0.0,0.0,0.0,0.0,0.0,0.0,0.0,0.0,0.0,1.942,1.8224,0.0,0.0,0.0,0.0,0.0,0.0,0.0,0.0,0.0,0.0,0.0,0.0,0.0,0.0,0.0,0.0,0.0,0.0,0.0,0.0,0.0,0.0,0.0,0.0,0.0,0.0,0.0,0.0,0.0,0.0,0.0,0.0,0.0,0.0,0.0,0.0,0.0,0.0,0.0,0.0,1.8079,1.9824,2.1181,2.2109,2.1826,2.1311,2.0656,1.9875,1.8706,1.7103,1.5378,0.0,0.0,0.0,0.0,0.0,0.0,0.0,0.0,0.0,0.0,0.0,0.0,0.0,0.0,0.0,0.0,0.0,0.0,0.0,0.0,0.0,0.0,0.0,0.0,0.0,0.0,0.0,0.0,0.0,0.0,0.0,0.0,0.0,0.0,0.0,0.0,0.0,0.0,0.0,0.0,0.0,0.0,0.0,0.0,0.0,0.0,0.0,0.0,0.0,0.0,0.0,0.0,0.0,2.3105,2.3918,2.4614,2.4614,2.4922,2.5311,2.2977,2.1859,2.1536,1.9627,0.0,0.0,0.0,0.0,0.0,0.0,0.0,0.0,0.0,0.0,0.0,0.0,0.0,0.0,0.0,0.0,0.0,0.0,0.0,0.0,0.0,0.0,1.8182,1.9269,1.9918,1.9375,1.5984,0.0,0.0,0.0,0.0,0.0,0.0,0.0,0.0,0.0,0.0,0.0,1.8496,2.0344,2.1707,2.2323,2.1993,2.1497,2.0877,2.0196,1.9283,1.7996,1.6457,1.5274,0.0,0.0,0.0,0.0,0.0,0.0,0.0,0.0,0.0,0.0,0.0,0.0,0.0,0.0,0.0,0.0,0.0,0.0,0.0,0.0,0.0,0.0,0.0,0.0,0.0,0.0,0.0,0.0,0.0,0.0,0.0,0.0,1.6621,1.7614,0.0,0.0,0.0,0.0,0.0,0.0,0.0,0.0,0.0,0.0,0.0,0.0,0.0,2.1718,2.285,2.4405,2.5446,2.5985,2.7449,2.8456,2.9075,2.9075,2.9102,2.9167,2.8795,0.0,2.3139,2.215,0.0,0.0,0.0,0.0,0.0,0.0,0.0,0.0,0.0,0.0,0.0,0.0,0.0,0.0,0.0,0.0,0.0,0.0,0.0,0.0,0.0,0.0,2.2849,2.1845,2.237,2.2631,2.1023,1.8918,1.6911,1.546,1.4332,1.3279,0.0,0.0,0.0,0.0,0.0,0.0,1.9864,2.1336,2.2416,2.3076,2.334,2.3199,2.2542,2.2126,2.1348,2.0083,1.8655,1.7559,1.6894,1.4942,0.0,0.0,0.0,0.0,0.0,0.0,0.0,0.0,0.0,0.0,0.0,0.0,0.0,0.0,0.0,0.0,0.0,0.0,0.0,0.0,0.0,0.0,0.0,0.0,0.0,0.0,0.0,0.0,0.0,1.6581,1.8414,1.8523,1.8444,1.7997,0.0,0.0,0.0,0.0,0.0,0.0,0.0,0.0,0.0,2.4394,2.4862,2.5679,2.6908,2.8273,2.912,2.9515,3.0451,3.105,3.1283,3.0809,3.0569,3.0569,3.048,2.9162,2.698,2.5419,2.3753,2.2118,0.0,0.0,0.0,0.0,2.1391,2.1278,2.2796,2.2844,2.2183,2.173,0.0,0.0,0.0,0.0,0.0,0.0,0.0,2.0609,2.1533,2.2978,2.4223,2.4234,2.4743,2.504,2.4273,2.3082,2.1201,1.8003,1.7455,1.6796,1.4468,1.4438,0.0,0.0,0.0,1.8994,2.0696,2.2043,2.2958,2.3268,2.3429,2.3255,2.2584,2.2571,2.2006,2.0721,1.9866,1.9119,1.8455,1.6761,1.5381,0.0,0.0,0.0,0.0,0.0,0.0,0.0,0.0,0.0,0.0,0.0,0.0,0.0,0.0,0.0,0.0,0.0,0.0,0.0,0.0,0.0,0.0,0.0,0.0,0.0,0.0,0.0,0.0,1.8618,2.0206,1.9743,2.0483,2.0311,0.0,0.0,0.0,0.0,0.0,0.0,2.4453,2.5922,2.7168,2.8096,2.8654,2.9475,3.0543,3.147,3.1971,3.2002,3.2453,3.2623,3.2471,3.189,3.1577,3.1481,3.1391,3.0894,3.0026,2.826,2.6749,2.5519,2.4841,2.4565,2.4644,2.5285,2.5217,2.5008,2.6554,2.6634,2.5931,2.5114,2.4614,2.3885,2.1488,0.0,0.0,0.0,0.0,2.2324,2.4444,2.5098,2.5398,2.6273,2.6794,2.7,2.6618,2.6401,2.5077,2.1129,2.0877,2.0392,1.7489,1.7407,0.0,1.7592,1.9128,2.0786,2.2166,2.3202,2.3798,2.3798,2.3649,2.3336,2.285,2.2877,2.252,2.1561,2.1057,2.052,1.986,1.8622,1.7318,1.6014,0.0,0.0,0.0,0.0,0.0,0.0,0.0,0.0,0.0,0.0,0.0,0.0,0.0,0.0,0.0,0.0,0.0,0.0,0.0,0.0,0.0,0.0,0.0,0.0,0.0,0.0,0.0,0.0,0.0,2.1908,2.3827,0.0,0.0,0.0,0.0,2.4181,2.6362,2.8018,2.8759,3.0307,3.1683,3.2727,3.2853,3.3064,3.3397,3.3577,3.3401,3.2828,3.3254,3.3207,3.2774,3.3012,3.2887,3.2524,3.2524,3.1882,3.0791,3.0058,2.9281,2.8498,2.7786,2.7494,2.7575,2.8304,2.8547,2.853,2.8644,2.8207,2.7684,2.832,2.7624,2.6358,2.5381,2.4641,0.0,0.0,2.4736,2.5731,2.5816,2.6688,2.7578,2.776,2.8256,2.8561,2.8099,2.7888,2.7274,2.5501,2.4289,2.3126,2.1801,0.0,2.098,2.1527,2.2199,2.3228,2.4894,2.5161,2.5192,2.5192,2.4624,2.4224,2.4194,2.3615,2.3291,2.3363,2.2636,2.1926,2.1321,2.0622,1.9759,1.8723,1.6267,0.0,0.0,0.0,0.0,0.0,0.0,0.0,0.0,0.0,0.0,0.0,0.0,0.0,0.0,0.0,0.0,0.0,0.0,0.0,0.0,0.0,0.0,0.0,0.0,0.0,0.0,0.0,0.0,2.4237,2.5946,0.0,2.4687,2.5951,2.709,2.7602,2.9843,3.1453,3.2157,3.2741,3.3317,3.3923,3.3504,3.3534,3.4108,3.3968,3.3848,3.3805,3.3744,3.3605,3.3422,3.2954,3.2553,3.2197,3.2167,3.1726,3.1056,3.1268,3.0644,2.9475,2.9216,2.9119,2.9151,2.941,2.9507,2.9507,2.9507,2.9345,2.9167,2.9426,2.9167,2.8692,2.8286,2.7669,2.717,2.7454,2.7503,2.7598,2.8081,2.8002,2.787,2.7989,2.7825,2.7724,2.8025,2.8151,2.818,2.7977,2.6755,2.5264,2.3712,2.3758,2.3891,2.3443,2.4045,2.4748,2.5358,2.5777,2.5863,2.5466,2.5139,2.4927,2.4927,2.4333,2.3603,2.284,2.2466,2.1849,2.0793,2.0529,2.0013,1.917,1.7884,1.612,0.0,0.0,0.0,0.0,0.0,0.0,0.0,0.0,0.0,0.0,0.0,0.0,0.0,0.0,0.0,0.0,0.0,0.0,0.0,0.0,0.0,0.0,0.0,0.0,0.0,2.4408,2.6455,2.6325,2.8312,2.9069,2.7536,2.9087,3.0315,3.0564,3.2491,3.3761,3.3962,3.446,3.4836,3.5024,3.4812,3.4917,3.537,3.5161,3.4822,3.4373,3.4501,3.4265,3.3647,3.317,3.272,3.2315,3.2032,3.1603,3.1143,3.1594,3.1123,3.013,3.0482,3.0609,3.0609,3.0609,3.0609,3.0577,3.0334,3.0091,2.9896,2.9896,2.9896,2.988,2.9786,2.9431,2.9119,2.9536,2.9217,2.8888,2.9435,2.8971,2.8397,2.8532,2.8145,2.7939,2.8504,2.8738,2.897,2.9361,2.8535,2.7302,2.5846,2.6135,2.6312,2.5561,2.5734,2.6031,2.6193,2.6174,2.5988,2.5546,2.5224,2.5064,2.5022,2.4426,2.3659,2.2824,2.2466,2.1741,2.0486,2.0388,1.9938,1.901,1.8346,1.69,1.466,0.0,0.0,0.0,0.0,0.0,0.0,0.0,0.0,0.0,0.0,0.0,0.0,0.0,0.0,0.0,0.0,0.0,0.0,0.0,0.0,0.0,0.0,0.0,2.3431,2.6171,2.8219,2.8255,3.0993,3.2287,3.0799,3.2779,3.3847,3.3078,3.4418,3.4955,3.4258,3.5596,3.6364,3.631,3.6967,3.7302,3.7226,3.7226,3.6335,3.4525,3.5576,3.5152,3.3457,3.3723,3.3547,3.3006,3.2294,3.167,3.1157,3.1095,3.0841,3.0626,3.157,3.1931,3.1931,3.1931,3.1931,3.1834,3.1114,3.0457,2.9913,2.9913,2.9967,2.9961,2.9961,2.9945,2.9913,2.9913,2.9824,2.972,2.972,2.9493,2.9319,2.9441,2.9364,2.9309,2.9605,2.9665,2.9687,2.9697,2.9608,2.9227,2.8304,2.8227,2.8211,2.7951,2.7341,0.0,2.748,2.6483,2.5695,2.5573,2.5015,2.4647,2.458,2.3945,2.351,2.3479,2.2717,2.1747,2.0556,2.039,1.9721,1.847,1.7652,1.6843,1.6026,0.0,0.0,0.0,0.0,0.0,0.0,0.0,0.0,0.0,0.0,0.0,0.0,0.0,0.0,0.0,0.0,0.0,0.0,0.0,0.0,0.0,2.4123,2.602,2.5977,2.8717,3.0942,3.1513,3.3333,3.4367,3.3938,3.5043,3.5685,3.5453,3.6363,3.6863,3.6649,3.6488,3.6381,3.6364,3.5989,3.5794,3.5776,3.5776,3.5492,3.4942,3.5226,3.512,3.4641,3.4712,3.4571,3.4228,3.4018,3.3286,3.2256,3.2195,3.1698,3.1004,3.0823,3.0647,3.048,3.048,3.048,3.0447,3.0253,3.036,3.0635,3.0635,3.0992,3.1413,3.1413,3.1056,3.0635,3.0635,3.0241,2.9852,2.9852,2.9323,2.8811,2.8833,2.8442,2.8217,2.878,2.8979,2.92,2.9739,2.983,2.9655,2.9195,2.87,2.8305,2.8151,2.7537,2.6957,2.6498,2.6459,2.6522,2.6571,2.6402,2.6265,2.6244,2.5153,2.4006,2.297,2.2207,2.1444,2.0674,2.0458,2.0186,1.9798,1.8561,1.7562,0.0,0.0,0.0,0.0,0.0,0.0,0.0,0.0,0.0,0.0,0.0,0.0,0.0,0.0,0.0,0.0,0.0,0.0,0.0,0.0,0.0,0.0,2.6853,2.8691,2.9383,3.1043,3.2739,3.4203,3.515,3.5846,3.6167,3.6631,3.6756,3.6435,3.6827,3.6934,3.6613,3.647,3.6399,3.6399,3.6274,3.6203,3.6203,3.6203,3.6007,3.5651,3.599,3.5972,3.5634,3.5634,3.5545,3.5348,3.5012,3.4426,3.3658,3.3565,3.3118,3.2421,0.0,0.0,0.0,0.0,2.9995,2.9896,2.9896,3.0156,3.0474,3.0474,3.0765,3.1105,3.1105,3.0814,3.0474,3.0474,3.0204,2.9896,2.9896,2.9513,2.9146,2.9146,2.8855,2.8677,2.9065,2.9205,2.9394,2.9815,2.9896,0.0,2.9697,2.9064,2.8426,2.7966,2.7343,2.6712,2.6154,2.6145,2.6171,2.6197,2.6229,2.633,2.6593,2.5329,0.0,0.0,0.0,2.1698,2.0742,2.0295,0.0,0.0,0.0,0.0,0.0,0.0,0.0,0.0,1.7988,1.78,0.0,0.0,0.0,0.0,0.0,0.0,0.0,0.0,0.0,0.0,0.0,0.0,0.0,0.0,0.0,0.0,2.9711,3.1332,3.2936,3.3239,3.4078,3.6149,3.647,3.6809,3.7541,3.7595,3.7309,3.6577,3.6542,3.6221,3.5525,3.6149,0.0,0.0,0.0,3.7595,3.7595,3.7595,3.7238,3.6542,3.7274,3.7238,3.6542,3.6542,3.6506,3.6417,3.5687,3.5297,3.5155,3.503,3.4761,3.4251,3.2122,3.1227,3.1079,3.0597,3.0222,2.9946,2.9902,0.0,0.0,2.9896,2.9896,2.9896,2.9896,2.9896,2.9896,2.9896,2.9896,2.9896,2.9896,2.9896,2.9896,2.9896,2.9896,2.9896,2.9896,2.9896,2.9896,2.9896,2.9896,2.9864,2.9783,2.9232,2.8505,2.7653,2.6945,2.6419,2.6154,2.5639,2.5291,2.5258,2.5352,0.0,2.6302,2.5137,2.4605,2.5124,2.3843,2.2427,2.1028,2.0412,2.0313,2.0765,2.1376,2.2266,2.3445,2.3445,2.3717,2.422,2.1485,2.082,0.0,0.0,0.0,0.0,0.0,0.0,0.0,0.0,0.0,0.0,0.0,0.0,0.0,0.0,0.0,2.8962,3.1011,3.2989,3.4543,3.5311,3.5882,3.6345,3.697,3.7434,3.7577,3.7595,3.7541,3.7381,3.7381,3.7309,3.7149,3.7291,3.7381,3.7381,3.7523,3.7595,3.7595,3.7595,3.7523,3.7381,3.7541,0.0,3.7381,3.7381,3.7362,3.7326,3.7184,3.6738,3.6114,3.6043,3.5509,3.4619,3.3525,3.2605,3.184,3.147,3.0872,3.0199,2.9989,2.9896,2.9896,2.9896,2.9896,2.9896,2.9896,2.9896,0.0,2.9896,2.9896,2.9896,2.9896,2.9896,2.9896,2.9896,2.9896,2.9896,2.9896,2.9896,2.9896,2.9896,2.9896,2.9702,2.9119,2.8892,2.8547,2.7777,2.7082,2.638,2.5648,2.5455,2.5603,2.6162,2.6246,2.6555,2.7279,2.6535,2.6062,2.6122,2.4814,2.3608,2.2657,2.2984,2.3143,2.3139,2.3733,2.4118,2.4276,2.4276,2.4277,2.4302,2.3682,2.3825,0.0,0.0,0.0,0.0,0.0,0.0,0.0,0.0,0.0,0.0,0.0,2.5641,2.6966,0.0,2.9872,3.1492,3.2741,3.4044,3.5578,3.6149,3.6542,3.6934,3.7363,3.7595,3.7595,3.7595,3.7595,3.7595,3.7595,3.7595,3.7595,3.7595,3.7595,3.7595,3.7595,3.7595,3.7595,3.7595,3.7595,3.7595,3.7595,3.7595,3.7595,3.7595,3.7595,3.7595,3.7595,3.7381,3.6988,3.697,3.6612,3.6075,3.5663,3.4481,3.2985,3.2805,3.2316,3.1656,3.132,3.1203,3.1181,3.0995,3.0684,3.0393,3.0393,3.0172,2.9896,2.9896,2.9896,2.9896,2.9896,2.9896,2.9896,2.9896,2.9896,2.9896,2.9896,2.9896,2.9896,2.9896,2.9896,2.9783,2.941,2.9345,2.8973,2.7883,2.7413,2.6924,2.6154,2.6057,2.6057,2.6057,2.6057,2.6347,2.7094,2.6819,2.6425,2.6031,2.4984,2.437,2.4294,2.4534,2.4757,2.4993,2.5217,2.5435,2.559,2.5606,2.5685,2.5857,2.6211,2.618,0.0,0.0,0.0,0.0,0.0,0.0,0.0,2.3065,2.4327,2.5902,2.7186,2.8443,2.99,3.0726,3.1849,3.3794,3.4365,3.4989,3.6221,3.6524,3.6863,3.7523,3.7595,3.7595,3.7595,3.7595,3.7595,3.7595,3.7595,3.7595,3.7595,3.7595,3.7595,3.7595,3.7595,3.7595,3.7595,3.7595,3.7595,3.7595,3.7595,3.7595,3.7595,3.7595,3.7595,3.7595,3.7595,3.7595,3.7595,3.7595,3.754,3.7448,3.7448,3.6257,3.4538,3.4243,3.3745,3.3165,3.2752,3.2568,3.2455,3.219,3.1653,3.1114,3.1114,3.0733,3.0269,3.0139,3.0091,3.0058,2.9929,2.9896,2.9896,2.9896,2.9896,2.9896,2.9896,2.9896,2.9896,2.9896,2.9896,2.9896,2.9896,2.9896,2.9443,2.8109,2.7915,2.7672,2.6976,2.6895,2.6668,2.6066,2.5888,2.6053,2.6652,2.6814,2.6587,2.5856,2.526,2.5112,2.5492,2.5519,2.5758,2.6258,2.6386,2.663,2.698,2.6967,2.7152,2.7466,2.7882,2.7612,2.3436,2.2779,2.2507,2.2933,2.3664,2.5167,0.0,2.8889,2.8872,3.0302,3.1146,3.1663,3.1801,3.2842,3.3794,3.4062,3.5257,3.6203,3.6381,3.7006,3.7506,3.7595,3.7595,3.7595,3.7595,3.7595,3.7595,3.7595,3.7595,3.7595,3.7595,3.7595,3.7595,3.7595,3.7595,3.7595,3.7595,3.7595,3.7595,3.7595,3.7595,3.7595,3.7595,3.7595,3.7595,3.7595,3.7595,3.7595,3.7595,3.7595,3.7577,3.7577,3.7577,3.7304,3.6772,3.5526,3.4455,3.3567,3.3186,3.2796,3.25,3.2455,3.2171,3.1882,3.1882,3.1834,3.1639,3.0969,3.0791,3.0645,3.0042,2.9896,2.9896,2.9896,2.9896,2.9896,2.9896,2.9896,2.9896,2.9896,2.9896,2.9896,2.9896,2.9896,2.9621,2.8811,2.8697,2.8401,2.7688,2.7591,2.7559,2.7478,2.6927,2.6604,2.6685,2.7251,2.73,2.662,2.649,2.6199,2.5613,2.6099,2.6394,2.6474,2.7555,2.8071,2.7924,2.7924,2.7859,2.7657,2.7128,2.7356,2.7149,2.6692,2.6147,2.6443,2.7482,2.8687,2.9648,3.0299,3.0991,3.1974,3.2661,3.3223,3.3744,3.4218,3.4814,3.5736,3.6441,3.7038,3.7508,3.7319,3.7144,3.7144,3.6576,3.656,3.7506,3.7595,3.7595,3.7595,3.7595,3.7595,3.7595,3.7595,3.7595,3.7595,3.7595,3.7595,3.7595,3.7595,3.7595,3.7595,3.7595,3.7595,3.7595,3.7595,3.7595,3.7595,3.7595,3.7595,3.7595,3.7595,3.7595,3.7595,3.7595,3.7485,3.7281,3.6564,3.5936,3.539,3.49,3.4597,3.4393,3.4145,3.3703,3.328,3.328,3.2982,3.2569,3.2271,3.2172,3.2106,3.183,3.1747,3.1604,3.0975,3.0833,3.0653,3.0043,2.9896,2.9896,2.9896,2.9896,2.9896,2.9896,2.9896,2.9783,2.9491,2.9443,2.9167,2.8433,2.8336,2.8174,2.7753,2.7446,2.7284,2.7284,2.7543,2.7591,2.73,2.7284,2.7332,2.7462,2.7696,2.8031,2.8472,2.8586,2.8517,2.8331,2.8277,2.8167,2.7938,2.8048,2.834,2.8427,2.8798,2.8998,2.8763,3.0237,3.1544,3.0752,3.1626,3.2728,3.3199,3.3605,3.4063,3.4689,3.4821,3.5287,3.6663,3.7064,3.7481,3.8289,3.7528,3.6857,3.6809,3.5924,3.5736,3.6827,3.7149,3.7363,3.7577,3.7595,3.7595,3.7595,3.7595,3.7595,3.7595,3.7595,3.7595,3.7595,3.7595,3.7595,3.7595,3.7595,3.7595,3.7595,3.7595,3.7595,3.7595,3.7595,3.7595,3.7595,3.7595,3.7595,3.7595,3.7595,3.754,3.743,3.7242,3.7009,3.6708,3.6305,3.6032,3.5832,3.5504,3.5015,3.451,3.4482,3.4097,3.3649,3.347,3.3403,3.3369,3.3151,3.31,3.2902,3.2126,3.1928,3.1709,3.0805,3.0619,3.0597,3.0502,3.0318,3.0188,3.0188,3.0026,2.9896,2.9896,2.9896,2.9702,2.9167,2.9102,2.8827,2.8077,2.7996,2.7931,2.7721,2.7705,2.7705,2.7705,2.7705,2.7948,2.8466,2.8498,2.8741,2.9281,2.8973,2.8705,2.8543,2.8666,2.8652,2.8507,2.8992,2.9206,2.5799,2.7498,2.9764,2.8911,3.1069,3.344,3.3459,3.4061,3.4609,3.4545,3.439,3.4221,3.4055,3.4512,3.515,3.5914,3.6693,3.7494,3.8289,3.7637,3.7014,3.6824,3.6073,3.5508,3.5292,3.5989,3.6756,3.7541,3.7595,3.7595,3.7595,3.7595,3.7595,3.7595,3.7595,3.7595,3.7595,3.7595,3.7595,3.7595,3.7595,3.7595,3.7595,3.7595,3.7595,3.7595,3.7595,3.7595,3.7595,3.7595,3.7595,3.7595,3.7595,3.7595,3.7594,3.7448,3.7222,3.6968,3.6811,3.6468,3.6075,3.5929,3.5649,3.5357,3.5214,3.5151,3.5006,3.4348,3.4169,3.4002,3.3302,3.31,3.31,3.3062,3.3045,3.2937,3.2502,3.2412,3.2321,3.2001,3.1357,3.0872,3.0872,3.0328,2.9896,2.9896,2.9896,2.988,2.9864,2.9864,2.9572,2.8859,2.8778,2.8466,2.7769,2.7705,2.7705,2.7705,2.7705,2.7721,2.7737,2.7737,2.7753,2.7769,2.845,2.8726,2.8598,2.9311,2.9598,2.9464,2.9496,2.9496,2.9033,3.0341,3.1659,3.1951,3.3223,3.4433,3.4452,3.466,3.4798,3.4687,3.4193,3.3875,3.4265,3.4511,3.5064,3.638,3.7229,3.7831,3.8095,3.7735,3.6986,3.5817,3.5323,3.5024,3.4881,3.5481,3.6142,3.6756,3.6986,3.7219,3.7577,3.7595,3.7595,3.7595,3.7595,3.7595,3.7595,3.7595,3.7595,3.7595,3.7595,3.7595,3.7595,3.7595,3.7595,3.7595,3.7595,3.7595,3.7595,3.7595,3.7595,3.7595,3.7595,3.7595,3.7595,3.754,3.7411,3.7241,3.705,3.6873,3.6673,3.6485,3.636,3.6216,3.5985,3.5941,3.589,3.5655,3.5587,3.5536,3.5301,3.5215,3.5032,3.4325,3.4164,3.3943,3.3071,3.2884,3.2862,3.2746,3.2525,3.2271,3.2003,3.1413,3.0724,3.0005,2.9896,2.9896,2.9896,2.9896,2.9799,2.9556,2.9524,2.9426,2.9183,2.9167,2.9167,2.9167,2.9167,2.9167,2.9167,2.9167,2.9167,2.9167,2.9394,2.9502,2.9459,2.9701,2.9808,2.9764,2.9764,2.9764,3.0825,3.2008,3.307,3.3922,3.4756,3.5362,3.5362,3.5125,3.4784,3.4392,3.3902,3.3561,3.366,3.3706,3.4333,3.6194,3.6901,3.7517,3.8382,3.7851,3.7022,3.6136,3.539,3.4993,3.5152,3.5606,3.6087,3.662,3.7097,3.7494,3.7721,3.7739,3.7703,3.7595,3.7595,3.7595,3.7595,3.7595,3.7595,3.7595,3.7595,3.7595,3.7595,3.7595,3.7595,3.7595,3.7595,3.7595,3.7595,3.7595,3.7595,3.7595,3.7595,3.7595,3.7595,3.7595,3.754,3.7448,3.7261,3.7164,3.7066,3.6866,3.6766,3.6684,3.6444,3.6343,3.6301,3.6301,3.6301,3.6301,3.6301,3.6301,3.6138,3.545,3.5266,3.5045,3.423,3.4064,3.4021,3.3867,3.3666,3.3416,3.315,3.253,3.1714,3.0637,3.0473,3.0348,2.9935,2.9896,2.9896,2.9896,2.9896,2.9896,2.9896,2.9896,2.9896,2.9896,2.9896,2.9896,2.9896,2.9896,2.9896,2.9896,2.9896,2.9896,2.9896,2.9896,2.9896,2.9918,3.0156,3.0247,3.1128,3.2615,3.4074,3.4832,3.5609,3.6206,3.6206,3.5495,3.4595,3.3724,3.3469,3.3138,3.2193,3.2137,3.2995,3.5318,3.5792,3.6696,3.9021,3.8004,3.7193,3.7609,3.6292,3.5537,3.5989,3.6309,3.6654,3.7101,3.7904,3.8265,3.8035,3.8001,3.788,3.7631,3.7613,3.7595,3.7595,3.7595,3.7595,3.7595,3.7595,3.7595,3.7595,3.7595,3.7595,3.7595,3.7595,3.7595,3.7595,3.7595,3.7595,3.7595,3.7595,3.7595,3.7595,3.7595,3.7595,3.7577,3.7466,3.7373,3.7278,3.7085,3.6928,3.6771,3.6585,3.6423,3.6301,3.6301,3.6301,3.6301,3.6301,3.6301,3.6301,3.6301,3.6301,3.6216,3.5876,3.5827,3.57,3.5339,3.474,3.4259,3.4225,3.3638,3.2809,3.173,3.1588,3.1172,3.0043,2.9896,2.9896,2.9896,2.9896,2.9896,2.9896,2.9896,2.9896,2.9896,2.9896,2.9896,2.9896,2.9896,2.9896,2.9896,2.9896,2.9935,2.9945,2.9945,2.9961,3.001,3.0668,3.0969,3.3562,3.5173,3.65,3.6708,3.6491,3.6206,3.6206,3.5059,3.3771,3.29,3.1755,3.0621,2.9691,3.056,3.1996,3.3786,3.5647,3.7269,3.8479,3.877,3.8421,3.73,3.7287,3.716,3.6639,3.7158,3.7576,3.7692,3.7706,3.7897,3.8281,3.8103,3.7966,3.7897,3.7703,3.7595,3.7595,3.7595,3.7595,3.7595,3.7595,3.7595,3.7595,3.7595,3.7595,3.7595,3.7595,3.7595,3.7595,3.7595,3.7595,3.7595,3.7595,3.7595,3.7595,3.7595,3.7595,3.7613,3.7558,3.7539,3.7503,3.7297,3.7105,3.6928,3.6768,3.6527,3.6322,3.6423,3.6381,3.6301,3.6301,3.6301,3.6301,3.6301,3.6301,3.628,3.6195,3.6174,3.6135,3.6028,3.5679,3.522,3.4682,3.4211,3.3644,3.2804,3.2687,3.2016,3.013,2.9896,2.9896,2.9896,2.9896,2.9896,2.9896,2.9896,2.9896,2.9896,2.9896,2.9896,2.9896,2.9896,2.9896,2.9896,2.9896,3.0156,3.0645,3.0645,3.0943,3.1461,3.1656,3.1737,3.5116,3.6699,3.7874,3.7495,3.7059,3.6434,3.5344,3.4083,3.2577,3.0641,2.9818,2.8941,2.7316,2.869,3.0585,3.2222,3.4553,3.6691,3.8267,3.8825,3.8818,3.8134,3.8128,3.8103,3.7882,3.8221,3.8473,3.8473,3.8299,3.8317,3.8554,3.8318,3.8119,3.8001,3.7739,3.7595,3.7595,3.7595,3.7595,3.7595,3.7595,3.7595,3.7595,3.7595,3.7595,3.7595,3.7595,3.7595,3.7595,3.7595,3.7595,3.7595,3.7595,3.7595,3.7595,3.7595,3.7595,3.7595,3.7595,3.7595,3.7558,3.7392,3.7203,3.7029,3.6911,3.665,3.6423,3.6544,3.6444,3.6322,3.6364,3.6343,3.6301,3.6301,3.6301,3.6301,3.6301,3.6301,3.6301,3.6301,3.6152,3.5887,3.5463,3.5245,3.4817,3.3943,3.3803,3.3189,3.1533,3.0904,3.0468,3.0098,2.9968,2.9896,2.9896,2.9896,2.9896,2.9896,2.9896,2.9896,2.9896,2.9896,2.9896,2.9896,3.0204,3.0522,3.0904,3.1228,3.1584,3.2012,3.2336,3.2481,3.613,3.76,3.8662,3.7799,3.7411,3.6624,3.4244,3.2793,3.1059,2.796,2.771,2.7377,2.5231,2.6854,2.912,3.0901,3.3223,3.569,3.8245,3.8561,3.8742,3.9358,3.8877,3.8671,3.9189,3.9224,3.9242,3.9224,3.917,3.9045,3.8848,3.8588,3.8334,3.8018,3.7739,3.7613,3.7595,3.7595,3.7595,3.7595,3.7595,3.7595,3.7595,3.7595,3.7595,3.7595,3.7595,3.7595,3.7595,3.7595,3.7595,3.7595,3.7595,3.7595,3.7595,3.7595,3.7595,3.7595,3.7595,3.7595,3.7577,3.7466,3.728,3.7108,3.7068,3.6811,3.6564,3.6705,3.6544,3.6343,3.6482,3.6402,3.6301,3.6301,3.6301,3.6301,3.6301,3.6301,3.6301,3.6301,3.6301,3.6301,3.6301,3.6301,3.5975,3.5049,3.4925,3.4512,3.3389,3.2267,3.1274,3.0545,3.0174,2.9946,2.9902,2.9896,2.9896,2.9896,2.9896,2.9896,2.9896,2.9896,2.9929,3.0026,3.0603,3.1001,3.1195,3.1834,3.219,3.2303,3.2919,3.3226,3.7052,3.8505,3.9577,3.8681,3.7479,3.5998,3.414,3.1474,2.8852,2.6837,2.542,2.4447,2.3992,2.6008,2.8472,3.0814,3.3269,3.577,3.8309,3.8669,3.8907,3.9571,3.9486,3.94,3.9446,3.9388,3.9367,3.9369,3.9335,3.9261,3.9059,3.8906,3.8588,3.8101,3.7827,3.7667,3.7595,3.7595,3.7595,3.7595,3.7595,3.7595,3.7595,3.7595,3.7595,3.7595,3.7595,3.7595,3.7595,3.7595,3.7595,3.7595,3.7595,3.7595,3.7595,3.7595,3.7595,3.7595,3.7595,3.7595,3.7613,3.7577,3.7447,3.7278,3.7317,3.7068,3.6788,3.6908,3.671,3.6464,3.6502,3.6402,3.6301,3.6301,3.6301,3.6301,3.6301,3.6301,3.6301,3.6301,3.6301,3.6301,3.6301,3.6301,3.6228,3.6048,3.601,3.5511,3.4109,3.275,3.1766,3.1335,3.0667,3.0135,2.9924,2.9896,2.9896,2.9896,2.9896,2.9896,2.9896,2.9896,3.0172,3.071,3.0839,3.1487,3.2708,3.2838,3.3194,3.3744,3.3874,3.3922,3.7385,3.8381,3.913,3.8325,3.6863,3.4848,3.1884,2.9631,2.7312,2.4278,2.3347,2.2817,2.1951,2.4207,2.6728,2.8332,3.072,3.3373,3.632,3.7116,3.7823,3.895,3.9448,3.9658,3.9563,3.9521,3.9514,3.9502,3.9471,3.9388,3.9261,3.9064,3.8707,3.8185,3.8034,3.7862,3.7649,3.7649,3.7631,3.7595,3.7595,3.7595,3.7595,3.7595,3.7595,3.7595,3.7595,3.7595,3.7595,3.7595,3.7595,3.7595,3.7595,3.7595,3.7595,3.7595,3.7595,3.7595,3.7595,3.7595,3.7595,3.7595,3.7503,3.7354,3.7392,3.7185,3.6989,3.7124,3.6911,3.6667,3.6667,3.6527,3.6402,3.6322,3.6301,3.6301,3.6301,3.6301,3.6301,3.6301,3.6301,3.6301,3.6301,3.6301,3.6301,3.6301,3.6301,3.5904,3.48,3.375,3.2662,3.1523,3.0883,3.0435,3.0113,3.0108,3.006,2.9902,2.9896,2.9896,2.9896,2.9896,3.022,3.0888,3.1276,3.2012,3.308,3.3437,3.3777,3.4101,3.4101,3.4101,3.7205,3.785,3.8258,3.73,3.5912,3.3705,2.9558,2.7806,2.5964,2.2089,2.1648,2.1601,2.0473,2.2552,2.4852,2.6008,2.818,3.0863,3.4188,3.5533,3.6773,3.835,3.929,3.977,3.9647,3.9623,3.9642,3.9635,3.9575,3.9521,3.9451,3.9197,3.8836,3.8344,3.8281,3.8101,3.7757,3.7703,3.7667,3.7613,3.7613,3.7595,3.7595,3.7595,3.7595,3.7595,3.7595,3.7595,3.7595,3.7595,3.7595,3.7595,3.7595,3.7595,3.7595,3.7595,3.7595,3.7595,3.7595,3.7595,3.7595,3.7595,3.7522,3.743,3.743,3.7299,3.7185,3.7279,3.7087,3.6851,3.6849,3.6687,3.6502,3.6343,3.6301,3.6301,3.6301,3.6301,3.6301,3.6301,3.6301,3.6301,3.6301,3.6301,3.6301,3.6301,3.6301,3.5973,3.5076,3.4456,3.3412,3.16,3.1103,3.0794,3.0566,3.0392,3.0243,3.0129,2.9977,2.9896,2.9896,3.0042,3.0441,3.1114,3.1866,3.2595,3.3307,3.3841,3.4101,3.4101,3.4101,3.4101,3.6279,3.7118,3.7394,3.5748,3.4715,3.2962,2.8694,2.6479,2.4554,2.1863,2.0725,2.0405,2.0979,2.1983,2.3487,2.5818,2.7669,2.9991,3.3335,3.5192,3.6783,3.8404,3.9301,3.9792,3.9781,3.9724,3.9712,3.9781,3.9724,3.9654,3.9594,3.9389,3.9119,3.8759,3.8566,3.8285,3.7881,3.7757,3.7703,3.7685,3.7631,3.7595,3.7595,3.7595,3.7595,3.7595,3.7595,3.7595,3.7595,3.7595,3.7595,3.7595,3.7595,3.7595,3.7595,3.7595,3.7595,3.7595,3.7595,3.7595,3.7595,3.7595,3.7577,3.7577,3.7577,3.7485,3.7374,3.7392,3.7223,3.705,3.6989,3.6829,3.6623,3.6343,3.6301,3.6301,3.6301,3.6301,3.6301,3.6301,3.6301,3.6301,3.6301,3.6301,3.6301,3.6301,3.6301,3.5783,3.4389,3.4148,3.3507,3.1918,3.1449,3.1271,3.1313,3.0688,3.0456,3.0781,3.0253,2.9896,2.9896,3.049,3.1147,3.1875,3.2611,3.3323,3.4003,3.4068,3.4101,3.4101,3.4101,3.4101,3.5564,3.626,3.6575,3.5448,3.4149,3.205,2.7834,2.5996,2.4284,2.1216,2.0262,2.009,2.0424,2.1161,2.2362,2.4378,2.5262,2.6865,3.0219,3.2141,3.3989,3.6129,3.8004,3.9329,3.981,3.9845,3.9826,3.9867,3.9845,3.9823,3.9781,3.9642,3.9414,3.9119,3.8913,3.8618,3.8204,3.7951,3.7828,3.7828,3.7685,3.7613,3.7667,3.7613,3.7595,3.7595,3.7595,3.7595,3.7595,3.7595,3.7595,3.7595,3.7595,3.7595,3.7595,3.7595,3.7595,3.7595,3.7595,3.7595,3.7595,3.7595,3.7595,3.7595,3.7595,3.7558,3.7522,3.7522,3.7393,3.7279,3.7201,3.6968,3.6708,3.6464,3.6423,3.6402,3.6322,3.6301,3.6301,3.6301,3.6301,3.6301,3.6301,3.6301,3.6301,3.6301,3.6301,3.5766,3.4303,3.4113,3.3527,3.1955,3.2067,3.2176,3.2021,3.2169,3.2155,3.1876,3.1608,3.1371,3.1177,3.1429,3.1915,3.2643,3.2935,3.342,3.4101,3.4101,3.4101,3.4101,3.4101,3.4101,3.435,3.4879,3.5073,3.4284,3.2962,3.0867,2.6931,2.5415,2.3913,2.0746,2.0054,1.9996,2.0003,2.0465,2.1396,0.0,2.3537,2.4959,2.857,3.0313,3.2122,3.4605,3.6481,3.7978,3.9047,3.9616,3.99,3.99,3.99,3.99,3.99,3.9823,3.9642,3.9376,3.9137,3.884,3.8462,3.8104,3.7916,3.7934,3.7757,3.7703,3.7757,3.7721,3.7685,3.7685,3.7685,3.7685,3.7685,3.7685,3.7667,3.7631,3.7631,3.7613,3.7595,3.7595,3.7595,3.7595,3.7595,3.7595,3.7595,3.7595,3.7595,3.7595,3.7595,3.7595,3.7595,3.7595,3.7503,3.7392,3.7316,3.7105,3.6831,3.6647,3.6564,3.6523,3.6402,3.6322,3.6301,3.6301,3.6301,3.6301,3.6301,3.6301,3.6301,3.6301,3.6301,3.5766,3.4303,3.4113,3.3527,3.1955,3.2662,3.3115,3.2764,3.3254,3.3389,3.2859,3.2615,3.2357,3.2012,3.2206,3.2562,3.3105,3.3291,3.3631,3.4101,3.4101,3.4101,3.4101,3.4101,3.4101,3.2397,3.2831,3.2619,3.1678,3.0835,2.9351,2.5975,2.4536,2.3182,2.0632,2.0054,1.9996,2.0003,2.001,2.0562,2.223,2.3177,2.5167,2.9385,3.0692,3.2122,3.4605,3.4927,3.559,3.7268,3.8925,3.99,3.99,3.99,3.99,3.99,3.99,3.977,3.9514,3.9176,3.8872,3.86,3.8185,3.8001,3.8001,3.7916,3.7917,3.7899,3.7917,3.7917,3.7917,3.7917,3.7917,3.7917,3.7917,3.7828,3.7703,3.7703,3.7667,3.7595,3.7595,3.7595,3.7595,3.7595,3.7595,3.7595,3.7595,3.7595,3.7595,3.7595,3.7595,3.7595,3.7595,3.7503,3.7392,3.7316,3.7203,3.705,3.6851,3.6745,3.6643,3.6523,3.6402,3.6301,3.6301,3.6301,3.6301,3.6301,3.6301,3.6301,3.6301,3.6301,3.5766,3.4303,3.4113,3.3527,3.1955,3.3162,3.3922,3.3526,3.356,3.3609,3.3584,3.2895,3.2357,3.2012,3.2692,3.308,3.308,3.3744,3.4101,3.4101,3.4101,3.4101,3.4101,3.4101,3.4101,2.9468,3.029,3.0658,2.8567,2.8306,2.7662,2.4203,2.367,2.3187,2.0637,2.005,2.0001,1.9991,2.0007,2.0732,2.295,2.3537,2.4769,2.7866,2.9962,3.1933,3.3847,3.6594,3.8536,3.9047,3.9597,3.99,3.99,3.99,3.99,3.99,3.99,3.9826,3.9705,3.9421,3.9146,3.8888,3.846,3.8221,3.8122,3.7969,3.7916,3.7967,3.7934,3.7899,3.7899,3.7899,3.7899,3.7899,3.7899,3.7828,3.7703,3.7703,3.7667,3.7595,3.7595,3.7595,3.7595,3.7595,3.7595,3.7595,3.7595,3.7595,3.7595,3.7595,3.7595,3.7595,3.7595,3.7558,3.7503,3.7392,3.7336,3.7204,3.6871,3.6849,3.6829,3.6564,3.6482,3.6444,3.6444,3.6343,3.6301,3.6301,3.6301,3.6301,3.6301,3.587,3.5197,3.4234,3.3611,3.2904,3.1903,3.2679,3.3451,3.3868,3.4847,3.5343,3.5121,3.488,3.4492,3.3873,3.4079,3.4048,3.3777,3.3987,3.4101,3.4101,3.4101,3.4101,3.4101,3.4101,3.4101,2.6973,2.7752,2.8159,2.6472,2.6208,2.5721,2.3207,2.2793,2.2409,2.0494,2.0055,2.0006,2.0006,1.9993,2.0619,2.2457,2.3026,2.4352,2.7505,2.9279,3.1109,3.343,3.6822,3.8963,3.8963,3.9521,3.99,3.99,3.9616,3.9456,3.9456,3.9153,3.8942,3.8891,3.9255,3.935,3.9151,3.8796,3.851,3.8305,3.8189,3.8104,3.807,3.8038,3.8003,3.8003,3.8003,3.8003,0.0,3.8003,3.7933,3.781,3.7792,3.7542,3.7238,3.7506,3.7416,3.7149,3.7149,3.7345,3.7506,3.6899,3.6684,3.6738,3.7059,3.7363,3.7595,3.7595,3.7595,3.7577,3.7503,3.7485,3.7392,3.7085,3.6989,3.6928,3.6643,3.6502,3.6423,3.6423,3.6343,3.6301,3.6301,3.6059,3.587,3.587,3.5249,3.4507,3.3749,3.3214,3.2628,3.1869,3.2455,3.3093,3.3593,3.4766,3.5431,3.5346,3.5363,3.5194,3.4897,3.4763,3.457,3.4325,3.4176,3.4101,3.4101,3.4101,3.4101,3.4101,3.4101,3.4101,0.0,2.5234,2.5272,2.5003,2.4398,2.3621,2.2709,2.1934,0.0,2.0284,2.0055,2.0044,2.0153,2.0088,2.0329,2.1396,2.2192,2.4087,2.8135,2.8911,3.0257,3.3486,3.595,3.7401,3.7401,3.8812,3.973,3.973,3.902,3.8614,3.8614,3.7837,3.7401,3.7401,3.8678,3.9302,3.9233,3.8984,3.8689,3.8358,3.8413,3.8342,3.8135,3.8189,3.8189,3.8118,3.8118,3.8082,3.8046,3.8046,3.7959,3.7821,3.7754,3.7236,3.6593,3.7202,3.697,3.631,3.631,3.6792,3.7166,3.5685,3.5186,3.5329,3.6096,3.6881,3.7541,3.7577,3.7595,3.7595,3.7595,3.7595,3.7558,3.7353,3.7163,3.695,3.6676,3.6437,3.6236,3.6184,3.6146,3.6146,3.6146,3.5576,3.5111,3.5111,3.4493,3.3731,3.3007,3.2852,3.2559,3.1869,3.2403,3.2817,3.2817,3.3593,3.4232,3.4534,3.4546,3.4718,3.5046,3.4837,3.4681,3.4673,3.4317,3.4126,3.4101,3.4101,3.4101,3.4101,3.4101,3.4101,2.157,0.0,2.3315,2.1914,2.1891,2.1982,0.0,2.1139,2.1219,2.0298,2.0055,2.0382,2.1678,2.0861,2.1093,2.4491,2.4681,2.5413,2.8305,3.0901,3.3297,3.5363,3.668,3.7401,3.7401,3.775,3.7997,3.7997,3.7807,3.7704,3.7704,3.7514,3.7401,3.7401,3.7718,3.7777,3.7558,3.7461,3.7259,3.6985,3.7589,3.7772,3.7523,3.8141,3.8008,3.7285,3.7285,3.6924,3.6363,3.6363,3.628,3.6163,3.6146,3.5957,3.5697,3.5859,3.5719,3.5472,3.5472,3.5614,3.5703,3.5311,3.5186,3.5239,3.5435,3.6042,3.6809,3.7434,3.7595,3.7595,3.7595,3.7595,3.7558,3.7353,3.7259,3.7004,3.6194,3.5839,3.5526,3.4972,3.4713,3.4631,3.4631,3.4476,3.4372,3.4372,3.368,3.311,3.2921,3.2403,3.199,3.1817,3.1955,3.2059,3.2059,3.33,3.4125,3.4218,3.4218,3.4124,3.3922,3.4378,3.4505,3.4245,3.4459,3.4399,3.4101,3.4101,3.4101,3.4101,3.4101,3.4101,2.0498,2.1489,2.2277,2.1297,2.1364,2.156,2.1011,2.0901,2.076,2.0252,2.0065,2.0401,2.1703,2.1506,2.2002,2.4624,2.5325,2.6558,2.9442,3.2728,3.5173,3.6093,3.6908,3.7401,3.7401,3.7401,3.7401,3.7401,3.7059,3.6851,3.6851,3.6462,3.6253,3.6253,3.6253,3.6543,3.7137,3.7103,3.6953,3.6701,3.711,3.7133,3.682,3.7241,3.7085,3.6453,3.6453,3.62,3.5804,3.5804,3.577,3.5688,3.562,3.5357,3.5008,3.5301,3.5126,3.4754,3.4704,3.4454,3.4204,3.4579,3.4454,3.4204,3.4579,3.5007,3.5507,3.6274,3.6488,3.6488,3.6488,3.6488,3.6453,3.6308,3.6235,3.6038,3.5465,3.5189,3.4896,3.4439,3.4254,3.4135,3.4113,3.3783,3.3542,3.3542,3.2886,3.2405,3.2442,3.2098,3.1874,3.1929,3.1929,3.1911,3.1839,3.2671,3.3294,3.3544,3.3542,3.3618,3.3764,3.3976,3.4095,3.4091,3.4495,3.4594,3.4374,3.4201,3.4101,3.4101,3.4101,3.4101,2.0635,2.1434,2.2094,2.1696,2.1656,2.1687,2.154,0.0,0.0,0.0,2.0206,2.0555,2.1657,2.2315,2.3127,2.4428,2.5944,2.8029,3.1156,3.4036,3.5865,3.5998,3.6594,3.7021,3.7021,3.7021,3.7021,3.7021,3.6396,3.5998,3.5998,3.5306,3.4898,3.4889,3.4889,3.5551,3.6909,3.6919,3.6823,3.659,3.6721,3.6559,3.6145,3.6255,3.6098,3.5708,3.5696,3.5592,3.5486,3.5439,3.5424,3.5424,3.5309,3.488,3.4377,3.4867,3.4605,3.4015,3.3952,3.3473,3.3007,3.3705,3.3455,3.3025,3.3705,3.3919,3.4062,3.4668,3.5025,3.5186,3.5186,3.5186,3.5187,3.5136,3.5031,3.4871,3.4711,3.4494,3.4255,3.4023,3.3892,3.3831,3.3751,3.3179,3.2731,3.2731,3.2196,3.1819,3.1875,3.1894,3.1948,3.2037,3.2055,3.2019,3.1893,3.2001,3.2243,3.2697,3.275,3.3095,3.3889,3.3573,3.3605,3.3996,3.4436,3.4629,3.4526,3.4301,3.4151,3.4101,3.4101,3.4101,2.12,2.2778,2.3478,2.1257,2.1248,2.1582,2.0772,2.0482,0.0,0.0,2.0738,2.1851,2.403,2.398,2.4764,2.837,2.9783,3.1118,3.3032,3.3752,3.4339,3.5022,3.5211,3.5287,3.5287,3.5287,3.5287,3.5287,3.5173,3.5097,3.5097,3.4965,3.487,3.4819,3.4859,3.4991,3.5186,3.5247,3.5257,3.5215,3.5903,3.6058,3.5792,3.6533,3.6323,3.5367,3.5197,3.4692,3.4012,3.3829,3.3773,3.3773,3.3758,3.3641,3.3475,3.3458,3.3344,3.3158,3.3112,3.3007,3.2918,3.3043,3.3007,3.2918,3.3043,3.3078,3.3114,3.3221,3.4187,3.5186,3.5186,3.5186,3.5204,3.5187,3.5118,3.4871,3.4179,3.3794,3.335,3.265,3.233,3.2163,3.2145,3.2041,3.1972,3.1972,3.1869,3.18,3.1801,3.1857,3.1893,3.1838,3.1911,3.1893,3.1819,3.1819,3.1871,3.1955,3.2012,3.2359,3.3059,3.3018,3.3185,3.3571,3.4273,3.4315,3.3705,3.4323,3.4423,3.4101,3.4101,3.4101,2.0052,2.1317,2.2233,2.1979,2.2911,2.378,2.3314,2.2858,2.2596,2.2941,2.3287,2.3965,2.5475,2.5786,2.6859,3.0075,3.1705,3.2823,3.3581,3.4074,3.4491,3.4851,3.4908,3.4908,3.4908,3.4908,3.4908,3.4908,3.4908,3.4908,3.4908,3.4908,3.486,3.4798,3.4868,3.4868,3.4798,3.4868,3.4888,3.4898,3.5267,3.5327,3.5116,3.5529,3.5336,3.4693,3.445,3.4119,3.3739,3.3509,3.3393,3.3393,3.3393,3.3382,3.3337,3.3165,3.3057,3.2979,3.2916,3.29,3.29,3.29,3.29,3.29,3.29,3.29,3.29,3.29,3.3418,3.3955,3.3955,3.3955,3.3955,3.3955,3.3921,3.3816,3.3443,3.3155,3.2844,3.244,3.2144,3.1929,3.1874,3.1839,3.1839,3.1839,3.1911,3.1982,3.2001,3.2055,3.2055,3.2019,3.2108,3.2108,3.1965,3.2054,3.2054,3.1874,3.1839,3.1994,3.234,3.2698,3.2887,3.291,3.3436,3.3478,3.2971,3.3556,3.3746,3.3566,3.3922,3.4101,1.9489,2.0306,2.1219,2.2973,0.0,2.4937,2.5494,2.4793,2.4286,2.5231,2.5535,2.5855,2.656,2.7627,2.9137,3.1421,3.2861,3.3771,3.3941,3.451,3.4908,3.4908,3.4908,3.4908,3.4908,3.4908,3.4908,3.4908,3.4908,3.4908,3.4908,3.4908,3.486,3.4778,3.4848,3.4848,3.4778,3.4848,3.4888,3.4908,3.4908,3.4831,3.4689,3.4689,3.4564,3.4344,3.408,3.3972,3.3908,3.3605,3.3466,3.3466,3.3408,3.3396,3.3349,3.318,3.3057,3.2979,3.2916,3.29,3.29,3.29,3.29,3.29,3.29,3.29,3.29,3.29,3.29,3.29,3.29,3.29,3.29,3.29,3.29,3.29,3.29,3.2737,3.2589,3.254,3.2301,3.209,3.1984,3.1966,3.1966,3.1966,3.2073,3.2144,3.2214,3.2249,3.2249,3.2197,3.2319,3.2319,3.2126,3.2284,3.2284,3.2038,3.1893,3.1856,3.1894,3.2391,3.2513,3.2247,3.2655,3.2687,3.2348,3.2756,3.2999,3.3097,3.3631,3.3939,2.0955,2.1654,2.2116,2.3867,2.3187,2.272,2.5134,2.4384,2.3623,2.5165,2.6076,2.6805,2.7484,2.9468,3.1566,3.3249,3.3619,3.396,3.4718,3.4851,3.4908,3.4908,3.4908,3.4908,3.4908,3.4908,3.4908,3.4908,3.4908,3.4908,3.4908,3.4908,3.484,3.4708,3.4768,3.4778,3.4716,3.4768,3.483,3.4908,3.4908,3.4927,3.4974,3.4974,3.4927,3.4831,3.458,3.4416,3.4316,3.3855,3.3671,3.3657,3.3481,3.3367,3.3292,3.315,3.3057,3.2979,3.2916,3.29,3.29,3.29,3.29,3.29,3.29,3.29,3.29,3.29,3.29,3.29,3.29,3.29,3.29,3.29,3.29,3.29,3.29,3.2737,3.2606,3.2589,3.237,3.2179,3.2179,3.2126,3.2108,3.2161,3.2179,3.2232,3.2283,3.2387,3.2422,3.2214,3.2319,3.2336,3.2197,3.2266,3.2353,3.2439,3.2109,3.1894,3.1894,3.189,3.1869,3.1832,3.2249,3.2286,3.1951,3.2354,3.2754,3.308,3.3153,3.3501,1.9535,2.0603,2.1534,2.383,2.4316,0.0,0.0,2.6357,2.6887,2.903,2.926,2.913,2.9294,3.0442,3.1558,3.2175,3.3064,3.3809,3.4112,3.4586,3.4908,3.4908,3.4908,3.4908,3.4908,3.4908,3.4908,3.4908,3.4908,3.4908,3.4908,3.4908,3.485,3.4768,3.4838,3.4838,3.4768,3.4838,3.4878,3.4908,3.4908,3.4917,3.4936,3.4936,3.4927,3.4898,3.467,3.4542,3.4495,3.4111,3.3947,3.3934,3.3815,3.3671,3.3549,3.3601,3.3368,3.307,3.3129,3.3039,3.29,3.29,3.29,3.29,3.29,3.29,3.29,3.29,3.29,3.29,3.29,3.29,3.29,3.29,3.29,3.29,3.29,3.2804,3.2722,3.2722,3.254,3.2405,3.2405,3.2371,3.2371,3.237,3.2422,3.2455,3.2471,3.2539,3.2523,3.2387,3.2439,3.2473,3.2455,3.2472,3.2522,3.2556,3.2266,3.2126,3.2214,3.2072,3.1874,3.1615,3.1758,3.1526,3.0912,3.1528,3.1772,3.1769,3.2659,3.3161,1.8739,1.9709,2.0738,2.3343,0.0,0.0,2.7002,2.7762,2.8841,3.1096,3.1002,3.0569,3.0701,3.0925,3.1256,3.1769,3.2472,3.3056,3.3321,3.3798,3.4112,3.4112,3.4112,3.4112,3.4112,3.4112,3.4112,3.4112,3.4112,3.4112,3.4112,3.4112,3.4093,3.4044,3.4093,3.4093,3.4044,3.4093,3.4103,3.4112,3.4396,3.4643,3.4908,3.4908,3.4908,3.4879,3.474,3.4687,3.4666,3.4351,3.4185,3.4124,3.4086,3.3972,3.3829,3.3908,3.3638,3.3223,3.3276,3.3129,3.29,3.29,3.29,3.29,3.29,3.29,3.29,3.29,3.29,3.29,3.29,3.29,3.29,3.29,3.29,3.29,3.29,3.2852,3.2838,3.2838,3.2707,3.2591,3.2591,3.2557,3.254,3.2591,3.264,3.2672,3.2688,3.2688,3.2673,3.2608,3.2591,3.2607,3.2673,3.2672,3.2688,3.2688,3.2506,3.2405,3.2422,3.2249,3.202,3.1746,3.1504,3.1083,3.0522,3.0799,3.093,3.092,3.1947,3.2466,1.9057,1.9324,1.994,2.2487,2.379,2.5114,2.7645,2.821,2.8695,3.0436,3.0697,3.081,3.1466,3.0936,3.0918,3.2529,3.2007,3.1684,3.2476,3.2484,3.2406,3.2406,3.2406,3.2397,3.2397,3.2397,3.2397,3.2397,3.2397,3.2397,3.2397,3.2397,3.2399,3.241,3.241,3.241,3.241,3.241,3.2391,3.2397,3.3278,3.4112,3.4889,3.4908,3.4908,3.4908,3.4898,3.4897,3.4877,3.4623,3.4393,3.4209,3.4209,3.4161,3.4099,3.4036,3.3775,3.3477,3.335,3.3129,3.2916,3.29,3.29,3.29,3.29,3.29,3.29,3.29,3.29,3.29,3.29,3.29,3.29,3.29,3.29,3.29,3.29,3.29,3.29,3.29,3.2854,3.2807,3.2807,3.269,3.2639,3.2773,3.2807,3.2821,3.2884,3.29,3.2868,3.2823,3.2807,3.2807,3.2807,3.2852,3.29,3.29,3.2838,3.2707,3.2524,3.237,3.2284,3.2197,3.147,3.1064,3.1001,3.0258,3.0253,3.0888,3.0904,3.1292,1.9061,2.0615,2.2305,2.3665,2.6015,2.8191,2.8931,2.9106,2.9406,3.0454,3.119,3.1497,3.0989,3.0656,3.0606,3.1047,3.1316,3.1553,3.1802,3.2233,3.2534,3.2534,3.2458,3.2397,3.2397,3.2397,3.2397,3.2397,3.2397,3.2397,3.2397,3.2397,3.2397,3.2399,3.2399,3.2399,3.2399,3.2399,3.2408,3.2397,3.2672,3.324,3.4074,3.4643,3.4908,3.4908,3.4889,3.4908,3.4898,3.48,3.4727,3.4623,3.4623,3.4517,3.4404,3.4517,3.4233,3.3807,3.3902,3.3689,3.3357,3.316,3.3099,3.3068,3.293,3.29,3.29,3.29,3.29,3.29,3.29,3.29,3.29,3.29,3.29,3.29,3.29,3.29,3.29,3.29,3.2884,3.2868,3.2868,3.2836,3.2818,3.2852,3.2868,3.2868,3.29,3.29,3.29,3.2868,3.2868,3.2868,3.2868,3.2884,3.29,3.29,3.2884,3.2821,3.2707,3.2573,3.2489,3.2404,3.1912,3.1507,3.1218,3.0613,3.0303,3.0271,3.0707,3.0972,1.9493,2.1421,2.3482,2.5033,2.7229,2.9152,2.9866,3.0022,3.0149,3.0597,3.1156,3.1387,3.0754,3.0617,3.0567,3.0482,3.0816,3.1053,3.1053,3.1421,3.1672,3.1607,3.1537,3.1471,3.1421,3.1412,3.1412,3.1412,3.1412,3.1412,3.1412,3.1412,3.1412,3.1412,3.1412,3.1412,3.1412,3.1412,3.1412,3.1412,3.1753,3.2198,3.2728,3.3543,3.3903,3.3903,3.3903,3.4093,3.4415,3.4425,3.4585,3.484,3.484,3.4769,3.4666,3.4737,3.445,3.4036,3.4099,3.3895,3.3559,3.3415,3.3353,3.3327,3.3086,3.3024,3.2993,3.2932,3.29,3.29,3.29,3.29,3.29,3.29,3.29,3.29,3.29,3.29,3.29,3.29,3.29,3.29,3.29,3.29,3.29,3.29,3.29,3.29,3.29,3.29,3.29,3.29,3.29,3.29,3.29,3.29,3.29,3.29,3.29,3.2884,3.2838,3.2771,3.269,3.2625,3.2038,3.1584,3.1261,3.0617,3.0189,2.9968,3.0318,3.0461,2.0158,2.1816,2.3724,2.6341,2.7722,2.885,3.0433,3.0801,3.0799,3.0808,3.0806,3.0776,3.0707,3.0699,3.0673,3.0608,3.0501,3.0409,3.0428,3.0367,3.0266,3.0145,3.0123,3.0072,2.9929,2.9913,2.9905,2.9897,2.9897,2.9897,2.9897,2.9897,2.9897,2.9897,2.9897,2.9897,2.9897,2.9897,2.9897,2.9916,3.0692,3.1071,3.1109,3.2,3.2397,3.2397,3.2397,3.2861,3.3581,3.3581,3.4017,3.4661,3.4661,3.4671,3.4679,3.4617,3.4394,3.411,3.4049,3.3831,3.3552,3.3611,3.3578,3.3482,3.3291,3.322,3.316,3.2977,3.2916,3.29,3.29,3.29,3.29,3.29,3.29,3.29,3.29,3.29,3.29,3.29,3.29,3.29,3.29,3.29,3.29,3.29,3.29,3.29,3.29,3.29,3.29,3.29,3.29,3.29,3.29,3.29,3.29,3.29,3.29,3.29,3.29,3.29,3.2868,3.2805,3.1968,3.142,3.1227,3.0414,2.9973,2.9902,2.9902,2.9896,2.0319,2.1819,2.3726,2.6356,2.8627,3.0349,3.0706,3.0801,3.0799,3.0799,3.0796,3.0789,3.0716,3.0698,3.0687,3.061,3.0572,3.0559,3.0554,3.0444,3.0377,3.034,3.0286,3.0194,3.0079,3.0064,3.0007,2.9905,2.9897,2.9897,2.9897,2.9897,2.9897,2.9897,2.9897,2.9897,2.9897,2.9897,2.9897,2.9897,3.0086,3.0181,3.0238,3.1715,3.2397,3.2397,3.2397,3.2511,3.2691,3.2691,3.2785,3.2937,3.2937,3.2947,3.3005,3.3611,3.3689,3.3585,3.4184,3.3848,3.3216,3.3679,3.3406,3.2968,3.3391,3.3371,3.319,3.3144,3.3024,3.29,3.29,3.29,3.29,3.29,3.29,3.29,3.29,3.29,3.29,3.29,3.29,3.29,3.29,3.29,3.29,3.29,3.29,3.29,3.29,3.29,3.29,3.29,3.29,3.29,3.29,3.29,3.29,3.29,3.29,3.29,3.29,3.29,3.29,3.2884,3.2074,3.1568,3.1422,3.0563,3.0098,2.9989,2.9924,2.9896,2.0769,2.2445,2.4433,2.7454,2.9196,3.0293,3.0696,3.0806,3.0801,3.0801,3.0801,3.0794,3.0756,3.0719,3.0695,3.0649,3.0614,3.0604,3.0601,3.053,3.046,3.0403,3.0371,3.0305,3.0219,3.0138,3.0079,2.9992,2.9948,2.9897,2.9897,2.9897,2.9897,2.9897,2.9897,2.9897,2.9897,2.9897,2.9897,2.9897,2.9897,2.9897,2.9934,3.0806,3.1204,3.1204,3.1204,3.1431,3.1829,3.1829,3.2037,3.2397,3.2397,3.2397,3.2445,3.2826,3.2872,3.2779,3.3173,3.2922,3.2477,3.2778,3.2551,3.2237,3.2839,3.2853,3.2736,3.2993,3.2977,3.29,3.29,3.29,3.29,3.29,3.29,3.29,3.29,3.29,3.29,3.29,3.29,3.29,3.29,3.29,3.29,3.29,3.29,3.29,3.29,3.29,3.29,3.29,3.29,3.29,3.29,3.29,3.29,3.29,3.29,3.29,3.29,3.29,3.29,3.29,3.2109,3.1641,3.1497,3.0642,3.0124,2.9995,2.9924,2.9896,2.0787,2.2894,2.5118,2.8098,2.9161,2.9694,3.0414,3.0579,3.057,3.057,3.0704,3.0799,3.0808,3.0756,3.0716,3.0707,3.0645,3.0606,3.0604,3.0597,3.0554,3.0444,3.0439,3.04,3.0324,3.0221,3.0152,3.0138,3.0,2.9929,2.9929,2.9905,2.9897,2.9897,2.9897,2.9897,2.9897,2.9897,2.9897,2.9897,2.9897,2.9897,2.9897,2.9897,2.9897,2.9897,2.9897,3.0313,3.0977,3.0977,3.1374,3.1962,3.1962,3.1962,3.1972,3.2071,3.2005,3.1897,3.1981,3.1818,3.1626,3.1756,3.1598,3.1452,3.2091,3.2161,3.2079,3.2496,3.2583,3.2536,3.2505,3.2489,3.2489,3.2489,3.2489,3.2561,3.2846,3.29,3.29,3.29,3.29,3.29,3.29,3.29,3.29,3.29,3.29,3.29,3.29,3.29,3.29,3.29,3.29,3.29,3.29,3.29,3.29,3.29,3.29,3.29,3.29,3.29,3.29,3.2884,3.2074,3.1585,3.1382,3.0559,3.0103,2.9973,2.9924,2.9896,1.9148,2.1977,2.4689,2.5892,2.7861,2.9536,2.9645,2.9675,2.9669,2.9669,3.0263,3.0799,3.0799,3.0789,3.0776,3.0719,3.0694,3.0669,3.0606,3.0606,3.0593,3.0583,3.0564,3.051,3.0406,3.0364,3.0342,3.0273,3.0145,3.0079,3.0079,2.9953,2.9897,2.9897,2.9897,2.9897,2.9897,2.9897,2.9897,2.9897,2.9897,2.9897,2.9897,2.9897,2.9897,2.9897,2.9897,2.9972,3.0067,3.0067,3.0143,3.0238,3.0238,3.0238,3.0324,3.1011,3.1186,3.1146,3.178,3.1459,3.0883,3.1571,3.1318,3.0858,3.1651,3.174,3.1548,3.145,3.126,3.1045,3.0859,3.0814,3.0814,3.0814,3.0814,3.1207,3.2596,3.29,3.29,3.29,3.29,3.29,3.29,3.29,3.29,3.29,3.29,3.29,3.29,3.29,3.29,3.29,3.29,3.29,3.29,3.29,3.29,3.29,3.29,3.29,3.29,3.29,3.2868,3.2805,3.1968,3.1306,3.0888,3.0305,2.9989,2.9902,2.9902,2.9896,1.9286,2.1139,2.2817,2.5137,2.6538,2.7744,2.9166,2.9509,2.9501,2.9498,2.9803,2.9914,2.944,2.9335,2.9328,2.9296,2.969,2.979,2.9264,2.9617,2.9724,2.9208,2.9145,2.9128,2.9062,2.9017,2.8989,2.8969,2.883,2.8745,2.871,2.8634,2.8803,2.9215,2.9233,2.9442,2.9897,2.9897,2.9897,2.9897,2.9897,2.9897,2.9897,2.9897,2.9897,2.9897,2.9897,2.9897,2.9897,2.9897,2.9897,2.9897,2.9897,2.9897,2.9945,3.0307,3.0345,3.0265,3.0602,3.0372,2.9986,3.0336,3.0131,2.9895,3.0678,3.0796,3.0722,3.1039,3.1056,3.0917,3.0722,3.0683,3.0639,3.054,3.0496,3.0689,3.1403,3.1903,3.2364,3.2811,3.29,3.29,3.29,3.29,3.29,3.29,3.29,3.29,3.29,3.2507,3.24,3.2846,3.2507,3.2418,3.2864,3.29,3.29,3.29,3.29,3.29,3.29,3.29,3.2787,3.2522,3.1843,3.1382,3.1128,3.0368,2.9973,2.9968,2.9918,2.9896,1.8508,1.9756,2.0986,2.3989,2.5215,2.6264,2.8374,2.8855,2.8867,2.886,2.8856,2.8673,2.8002,2.8056,2.8266,2.8493,2.8855,2.8945,2.8524,2.8999,2.9222,2.8737,2.8694,2.859,2.838,2.8304,2.8189,2.7947,2.7827,2.7737,2.7682,2.7624,2.7842,2.8408,2.8396,2.8684,2.9271,2.9499,2.9707,2.9897,2.9897,2.9897,2.9897,2.9897,2.9905,2.9913,2.9916,2.9897,2.9897,2.9897,2.9897,2.9897,2.9897,2.9897,2.9897,2.9897,2.9822,2.9717,2.971,2.9589,2.9423,2.9409,2.9304,2.9267,2.9828,2.9926,2.9942,3.0447,3.0598,3.0547,3.0346,3.0292,3.0238,3.0034,2.9976,3.0087,3.0422,3.0975,3.1564,3.2186,3.24,3.2489,3.2489,3.2721,3.2757,3.2347,3.2418,3.2436,3.2311,3.176,3.1581,3.2061,3.1671,3.1706,3.2525,3.2418,3.2472,3.2864,3.2704,3.2686,3.2882,3.29,3.2705,3.2283,3.1753,3.142,3.1244,3.0389,2.9973,2.9973,2.9924,2.9896,1.5409,1.7477,1.9801,2.1648,2.391,2.5941,2.6918,2.7127,2.7121,2.712,2.7128,2.7114,2.7075,2.769,2.8463,2.9301,2.8773,2.8538,2.9319,2.9408,2.9689,3.0467,3.056,3.0223,2.9408,2.9327,2.8946,2.805,2.7923,2.7884,2.7878,2.7707,2.7629,2.766,2.7595,2.7589,2.7627,2.8389,2.9158,2.9897,2.9897,2.9897,2.9897,2.9897,2.994,2.998,2.9932,2.9897,2.9897,2.9897,2.9897,2.9897,2.9897,2.9897,2.9897,2.9897,2.9857,2.9799,2.9717,2.9608,2.9482,2.9423,2.939,2.9386,2.9423,2.9431,2.9389,2.9252,2.9207,2.9161,2.8967,2.8901,2.8852,2.8657,2.8606,2.8954,3.0234,3.0529,3.0582,3.0618,3.1028,3.1383,3.1383,3.2239,3.2382,3.085,3.1046,3.1204,3.0689,3.0585,3.0407,2.9997,3.0318,3.0886,3.1689,3.1064,3.1278,3.2793,3.2186,3.2114,3.2864,3.29,3.2688,3.2214,3.1752,3.1287,3.0845,3.0194,2.9918,2.9918,2.9896,2.9896,1.4863,1.6073,1.7479,2.0342,2.2174,2.3774,2.5726,2.6604,2.6992,2.7005,2.7,2.6994,2.7009,2.7657,2.8308,2.8619,2.8878,2.8946,2.8693,2.9124,2.9376,2.9114,2.9091,2.8968,2.8598,2.8576,2.8433,2.8089,2.8043,2.8004,2.7976,2.7893,2.8066,2.8552,2.7918,2.7537,2.7494,2.7793,2.837,2.9186,2.9186,2.9471,2.9964,2.9932,2.994,3.0007,2.9972,2.9964,2.9964,2.9964,2.994,2.9897,2.9897,2.9897,2.9897,2.9897,2.9883,2.9851,2.978,2.9692,2.955,2.9482,2.945,2.9396,2.9396,2.9396,2.9386,2.9304,2.9283,2.9251,2.9044,2.8998,2.8934,2.8743,2.8594,2.8629,2.9107,2.9898,3.0496,3.0496,3.0921,3.1143,3.0608,3.1864,3.2025,2.9408,2.9176,2.923,2.9052,2.9462,2.9922,3.0211,2.9976,3.0101,3.0868,3.0672,3.0761,3.1314,3.11,3.1064,3.135,3.1367,3.1507,3.1814,3.1272,3.0919,3.0804,3.0236,2.9951,2.9951,2.9924,2.9896,1.4411,1.5389,1.66,1.9764,2.0795,2.1768,2.462,2.5496,2.5765,2.6072,2.6596,2.7003,2.6999,2.7668,2.8104,2.7846,2.8033,2.8123,2.7812,2.8269,2.8512,2.8232,2.8193,2.8068,2.774,2.7698,2.7575,2.7288,2.7268,2.7362,2.7594,2.7574,2.7913,2.8664,2.8044,2.7797,2.7975,2.7703,2.7975,2.8787,2.8495,2.8639,2.9152,2.9106,2.9113,2.9152,2.9186,2.9502,3.0007,3.0007,2.9956,2.9897,2.9897,2.9897,2.9897,2.9897,2.9899,2.9893,2.9851,2.9746,2.9626,2.956,2.9471,2.9399,2.9407,2.9396,2.9396,2.9396,2.9396,2.9376,2.924,2.9152,2.9067,2.8934,2.8755,2.8582,2.8505,2.9147,2.9729,2.9729,2.9982,2.9988,2.9365,3.0235,3.0342,2.8326,2.8929,2.926,2.8324,2.8659,2.9176,2.9676,2.9283,2.9301,3.0083,2.9872,2.9943,3.046,3.0279,3.0243,3.0478,3.0496,3.0686,3.1066,3.0903,3.0761,3.0634,3.0398,3.0279,3.0262,3.0124,3.0038,0.0,0.0,0.0,1.9779,1.9824,2.0135,2.3515,2.3608,2.3247,2.4164,2.5681,2.6868,2.6907,2.7584,2.7869,2.7098,2.6289,2.605,2.6829,2.6944,2.7253,2.8099,2.8196,2.7878,2.7026,2.6945,2.659,2.574,2.5679,2.6024,2.6808,2.6805,2.7129,2.787,2.7928,2.8233,2.8868,2.8096,2.8071,2.8805,2.792,2.7526,2.7538,2.7509,2.749,2.7507,2.7573,2.8486,2.9939,2.995,2.9945,2.9897,2.9897,2.9897,2.9897,2.9897,2.9897,2.9907,2.9893,2.9806,2.969,2.9617,2.9511,2.9402,2.9399,2.9407,2.9396,2.9396,2.9396,2.9396,2.9396,2.9251,2.9119,2.9119,2.8964,2.8749,2.8556,2.8353,2.8209,2.8196,2.8095,2.7922,2.7662,2.7436,2.739,2.7657,3.0299,3.1274,2.8546,2.8182,2.8182,2.8182,2.8182,2.8517,2.9298,2.8641,2.8838,3.0336,2.9747,2.969,3.0389,3.0425,3.0292,2.9967,3.0622,3.0734,3.0267,3.0634,3.0804,3.0767,3.0456,3.0293,1.4189,0.0,0.0,0.0,0.0,0.0,2.1093,2.0935,2.0931,2.3034,2.3382,2.3673,2.4903,2.5816,2.6319,2.6103,2.6871,2.7581,2.7815,2.7846,2.7937,2.8167,2.8206,2.8108,2.787,2.7831,2.7749,2.7503,2.7483,2.7573,2.779,2.8384,2.8489,2.7989,2.8574,2.8678,2.8181,2.7951,2.8206,2.8938,2.8052,2.795,2.8498,2.7866,2.7568,2.7565,2.7591,2.7857,2.8301,2.89,2.9471,2.9964,2.9924,2.9897,2.9897,2.9897,2.9897,2.9897,2.9899,2.9841,2.9763,2.9681,2.9589,2.9463,2.9402,2.9409,2.9396,2.9396,2.9396,2.9396,2.9396,2.9365,2.9334,2.9334,2.9156,2.8998,2.8887,2.8669,2.8427,2.8237,2.8168,2.8081,2.7911,2.7559,2.739,2.7657,2.8438,2.8823,2.8261,2.8071,2.7996,2.8049,2.8053,2.8173,2.8429,2.8293,2.8374,2.8802,2.8641,2.8624,2.882,2.8838,2.9016,2.9405,2.9451,2.9547,2.9713,3.0592,3.0865,3.0572,3.0194,3.0017,0.0,0.0,1.7329,1.8084,0.0,0.0,2.0487,1.9863,1.949,2.2078,2.2232,2.231,2.3617,2.4279,2.4727,2.5097,2.5986,2.6736,2.7119,2.7166,2.7158,2.7158,2.7158,2.7158,2.7158,2.7158,2.7156,2.7152,2.7152,2.7303,2.7644,2.8481,2.8855,2.8625,2.9111,2.9267,2.9031,2.8685,2.8714,2.9074,2.8209,2.8013,2.8428,2.7899,2.7637,2.7597,2.7592,2.7598,2.763,2.8117,2.876,2.9494,2.9463,2.9629,2.9897,2.9897,2.9897,2.9897,2.9897,2.9874,2.9834,2.9763,2.9654,2.9531,2.9463,2.9421,2.9396,2.9396,2.9396,2.9396,2.9396,2.9396,2.9396,2.9396,2.9251,2.9067,2.8945,2.8743,2.8479,2.825,2.8196,2.8126,2.7908,2.7662,2.7481,2.7542,2.7524,2.763,2.7954,2.7879,2.7821,2.7836,2.794,2.8028,2.8056,2.8112,2.8168,2.8196,2.8196,2.8196,2.8196,2.8196,2.8382,2.877,2.8915,2.9278,2.9885,3.045,3.0619,3.041,3.0172,2.9995,0.0,0.0,0.0,1.9856,1.8505,0.0,2.067,1.947,1.8437,2.0947,2.1394,2.1627,2.2642,2.2896,2.3247,2.4125,2.4334,2.4697,2.558,2.5708,2.5703,2.5703,2.5701,2.5701,2.5701,2.5699,2.5699,2.5699,2.5699,2.6011,2.6729,2.7587,2.84,2.919,2.9404,2.9805,3.0478,2.9868,2.9482,2.9346,2.8472,2.8025,2.7961,2.7702,2.756,2.7484,2.7383,2.7351,2.7351,2.7338,2.7863,2.8673,2.8666,2.9129,2.9791,2.9764,2.9821,2.9897,2.9897,2.9891,2.9885,2.9834,2.971,2.9598,2.954,2.947,2.9396,2.9396,2.9396,2.9396,2.9396,2.9396,2.9396,2.9396,2.9262,2.9078,2.891,2.8669,2.8388,2.8154,2.814,2.8067,2.7774,2.7686,2.7585,2.736,2.7315,2.739,2.7657,2.7672,2.7644,2.7602,2.781,2.7954,2.7986,2.8056,2.8126,2.8213,2.8196,2.8196,2.8196,2.8196,2.8182,2.8168,2.8655,2.9313,3.0138,3.0142,3.0219,3.0293,3.0267,3.0113,1.7965,1.8335,1.8786,1.8479,1.8039,0.0,1.8516,1.7221,1.6455,1.8378,1.82,1.8414,2.0672,2.1666,2.2407,2.3228,2.3945,2.4701,2.5577,2.5708,2.5704,2.5704,2.5696,2.571,2.571,2.5703,2.5699,2.5699,2.5699,2.5777,2.5933,2.671,2.7236,2.7409,2.8773,2.9562,2.9716,3.0244,3.0464,3.0327,2.9501,2.9031,2.8874,2.7518,2.6896,2.6833,2.6074,2.5754,2.5748,2.5687,2.653,2.7831,2.7775,2.8271,2.9004,2.8946,2.9347,2.9897,2.9897,2.9907,2.9899,2.9876,2.9792,2.9683,2.9607,2.949,2.9396,2.9396,2.9396,2.9396,2.9396,2.9396,2.9396,2.9396,2.9376,2.9326,2.9294,2.8785,2.8169,2.7589,2.7739,2.794,2.7868,2.7587,2.739,2.7434,2.7376,2.739,2.7657,2.7511,2.7405,2.7511,2.7617,2.7719,2.7818,2.7996,2.8126,2.8213,2.8196,2.8196,2.8196,2.8196,2.814,2.8042,2.7724,2.7869,2.8476,2.9413,3.0025,3.0293,3.0087,2.9946,1.9325,1.943,1.9652,1.9253,1.885,0.0,0.0,1.7534,1.6615,1.8806,1.7891,1.7362,1.9547,2.0304,2.0885,2.1725,2.2581,2.3301,2.3731,2.4524,2.4888,2.4457,2.4786,2.5056,2.5056,2.5444,2.5692,2.5707,2.5701,2.5699,2.5699,2.6089,2.6498,2.6885,2.7743,2.8617,2.9489,2.9937,3.0347,3.0698,3.0296,3.0026,2.9864,2.9035,2.8623,2.8569,2.8092,2.7648,2.7205,2.675,2.6749,2.7044,2.6988,2.7433,2.8202,2.8598,2.8984,2.9366,2.9764,2.9897,2.9888,2.9891,2.9799,2.9683,2.9655,2.952,2.9396,2.9396,2.9396,2.9396,2.9396,2.9396,2.9396,2.9396,2.9294,2.9251,2.9376,2.8987,2.844,2.7893,2.7879,2.7879,2.765,2.7542,2.7496,2.745,2.7359,2.7345,2.7481,2.7421,2.739,2.7481,2.7557,2.7632,2.7704,2.7882,2.8032,2.8099,2.8126,2.8168,2.8196,2.8196,2.814,2.7996,2.7644,2.7702,2.8201,2.8713,2.9317,3.0052,2.9881,2.9996,2.1062,2.0875,2.0849,2.0694,2.0153,1.9777,0.0,0.0,0.0,1.9596,1.8374,1.7421,1.9004,1.9157,1.9326,2.0203,2.1081,2.1529,2.1197,2.2595,2.3466,2.2918,2.362,2.4148,2.4148,2.4479,2.4982,2.5657,2.5221,2.5177,2.5662,2.5701,2.5993,2.6654,2.6827,2.7587,2.8989,2.9321,2.9842,3.0555,3.0711,3.0742,3.0625,3.047,3.0362,3.0305,3.0119,2.9641,2.8934,2.8202,2.7465,2.671,2.6312,2.6631,2.7388,2.8248,2.8617,2.8825,2.9631,2.9897,2.9897,2.9897,2.9816,2.9683,2.9655,2.952,2.9396,2.9396,2.9396,2.9396,2.9396,2.9396,2.9396,2.9357,2.9211,2.9134,2.9315,2.9089,2.8743,2.8388,2.8128,2.7829,2.7421,2.7511,2.7569,2.7419,2.7359,2.7329,2.7297,2.7359,2.7419,2.745,2.7511,2.7572,2.7602,2.7768,2.79,2.8014,2.8071,2.8126,2.8213,2.814,2.8053,2.7968,2.7777,2.7879,2.8253,2.8091,2.8647,2.9799,2.9585,2.9964,2.2633,2.2613,2.2443,2.1727,2.1485,2.1058,1.9658,0.0,1.8778,1.8298,0.0,1.8151,1.9121,0.0,0.0,1.9306,2.0183,2.0203,1.8661,1.9949,2.1255,2.1878,2.2714,2.3258,2.3258,2.1942,2.2368,2.5473,2.3559,2.3241,2.5574,2.5691,2.5745,2.5835,2.6537,2.7002,2.7197,2.8736,2.9554,2.9669,3.0429,3.0791,3.0756,2.9977,2.9616,2.9573,2.8734,2.8329,2.8209,2.8059,2.7865,2.7491,2.5937,2.5828,2.6631,2.7369,2.8126,2.8898,2.9647,2.9897,2.9897,2.9897,2.9816,2.9664,2.9501,2.9411,2.9396,2.9396,2.9396,2.9396,2.9396,2.9396,2.9368,2.9246,2.9286,2.9326,2.9232,2.8955,2.8658,2.8425,2.8079,2.7771,2.7602,2.7436,2.736,2.7388,2.7434,2.7436,2.733,2.7359,2.739,2.7329,2.7376,2.7467,2.7587,2.7674,2.7836,2.8071,2.8099,2.8126,2.8213,2.7908,2.7774,2.7818,2.7674,2.7682,2.7779,2.7764,2.8485,2.988,2.9085,2.9479,2.3039,2.2903,2.271,2.1901,2.1694,2.1375,2.0172,1.9532,1.9243,1.9387,0.0,0.0,0.0,0.0,0.0,0.0,1.8841,1.8661,1.7411,1.831,1.9402,2.0241,2.1118,2.2035,2.3011,2.156,2.1575,2.4016,2.2704,2.2719,2.4823,2.5423,2.5691,2.5707,2.6032,2.6439,2.6905,2.7626,2.8502,2.9496,2.9866,3.0312,3.0794,3.0424,3.0246,3.0238,2.9847,2.9663,2.9618,2.902,2.8707,2.8449,2.6652,2.6144,2.6422,2.6693,2.7324,2.8157,2.8927,2.9518,2.9888,2.9857,2.9773,2.9664,2.9521,2.9421,2.9396,2.9396,2.9396,2.9396,2.9396,2.9396,2.9396,2.9336,2.9296,2.9275,2.9203,2.9097,2.892,2.8639,2.843,2.8192,2.7786,2.7481,2.7329,2.7388,2.739,2.739,2.7405,2.7421,2.7388,2.7359,2.7421,2.7483,2.7542,2.7644,2.776,2.7922,2.8067,2.814,2.8085,2.785,2.7698,2.7745,2.7644,2.7692,2.7864,2.7806,2.8345,2.9432,2.8819,2.909,2.377,2.3616,2.3368,2.2284,2.202,2.1736,2.0645,2.0122,2.0007,2.0427,1.9681,0.0,0.0,0.0,1.8261,1.8047,0.0,1.7607,1.6494,1.7099,1.7977,1.8836,1.9929,2.1179,2.2623,2.0804,2.0529,2.291,2.1657,2.1828,2.4265,2.4999,2.5441,2.5692,2.5703,2.5972,2.6576,2.6788,2.7548,2.8795,2.9262,2.9827,3.0451,3.0684,3.0801,3.0799,3.0794,3.0808,3.0747,3.0004,2.9501,2.9047,2.7508,2.6699,2.639,2.6346,2.6686,2.7298,2.8089,2.89,2.9558,2.9492,2.9575,2.9673,2.9569,2.9461,2.9399,2.9407,2.9396,2.9396,2.9396,2.9396,2.9396,2.9376,2.9315,2.9235,2.9181,2.9181,2.9115,2.8827,2.8785,2.8614,2.8106,2.7615,2.7313,2.7374,2.7329,2.7329,2.7436,2.7405,2.7374,2.7374,2.7436,2.7465,2.7496,2.7612,2.776,2.7861,2.8081,2.814,2.8042,2.7836,2.773,2.7748,2.7689,2.778,2.8014,2.7922,2.8222,2.8815,2.8441,2.8756,2.541,2.541,2.5008,2.329,2.2865,2.2427,2.0773,2.1036,2.1416,2.0658,2.1124,2.1435,2.0612,1.9743,1.89,1.8124,1.8005,0.0,0.0,1.6182,1.7079,1.7939,1.9559,2.0944,2.1841,1.8835,1.8562,2.2779,2.0007,1.9966,2.4175,2.4422,2.4823,2.5673,2.5703,2.5718,2.5738,2.6517,2.6924,2.7002,2.8697,2.9515,2.9574,3.0412,3.0801,3.0801,3.0799,3.0799,3.0799,3.0767,3.0137,2.9122,2.8287,2.732,2.6396,2.6397,2.6377,2.6458,2.726,2.8078,2.8733,2.8655,2.9118,2.969,2.9617,2.9501,2.9392,2.9399,2.9396,2.9396,2.9396,2.9396,2.9386,2.9323,2.9355,2.9336,2.9152,2.9145,2.9156,2.9028,2.8994,2.8905,2.8614,2.7879,2.7299,2.7297,2.7299,2.7299,2.7315,2.7297,2.7297,2.7297,2.736,2.7438,2.7496,2.7612,2.7803,2.8071,2.8154,2.8168,2.8099,2.7908,2.7821,2.7888,2.7821,2.7864,2.8014,2.8071,2.8099,2.812,2.7786,2.8411,2.5507,2.5894,2.5894,2.4176,2.3751,2.3313,2.1649,2.1493,2.1452,2.0614,2.1131,2.1476,2.0659,1.9787,1.9109,1.8842,1.7851,1.6923,0.0,1.6513,1.6805,1.7099,1.868,1.9636,1.9344,1.8251,1.8407,2.0436,1.9519,2.0006,2.2619,2.3804,2.4539,2.4823,2.54,2.5705,2.5699,2.5972,2.6361,2.6905,2.8074,2.8931,2.9535,3.0392,3.0801,3.0801,3.0801,3.0801,3.076,3.0136,2.9638,2.9129,2.7649,2.6829,2.6397,2.5773,2.5895,2.6472,2.7236,2.7687,2.7896,2.7888,2.8366,2.8962,2.8892,2.9139,2.9453,2.9421,2.9399,2.9396,2.9396,2.9396,2.9396,2.9376,2.9386,2.9376,2.9269,2.9218,2.9167,2.9078,2.904,2.8964,2.8881,2.8632,2.8169,2.7405,2.7299,2.7299,2.7299,2.7345,2.7343,2.7297,2.7362,2.7438,2.7496,2.7733,2.7968,2.8154,2.82,2.814,2.8042,2.7968,2.7893,2.7839,2.7911,2.7982,2.8071,2.8126,2.8168,2.8154,2.7996,2.8088,2.6381,2.6768,2.6764,2.5085,2.466,2.4141,2.2143,2.1949,2.1925,2.1044,2.131,2.1648,2.1437,2.0446,1.9567,1.9259,1.8046,1.6947,0.0,1.624,1.624,1.624,1.7782,1.8739,1.8485,1.7627,1.7822,1.9636,1.8894,1.9401,2.1763,2.3203,2.4075,2.4399,2.5249,2.5708,2.5699,2.5699,2.5952,2.6498,2.7645,2.8483,2.9087,3.0256,3.0801,3.0801,3.0801,3.0801,3.074,2.9805,2.9204,2.8724,2.7245,2.6446,2.6038,2.539,2.55,2.5996,2.6457,2.6795,2.7039,2.7039,2.7547,2.8212,2.8454,2.88,2.9157,2.9359,2.9421,2.9399,2.9407,2.9396,2.9396,2.9396,2.9396,2.9386,2.9312,2.928,2.9218,2.9163,2.9085,2.904,2.904,2.894,2.85,2.7452,2.7405,2.7419,2.733,2.7345,2.736,2.7297,2.7362,2.7438,2.7526,2.7813,2.8014,2.8112,2.814,2.8126,2.8042,2.8042,2.7982,2.7879,2.7982,2.8056,2.8099,2.8168,2.8196,2.8196,2.8154,2.8025]}]]